[[{"header":{"parameterUnit":"m.s-1","parameterCategory":1,"la1":30.6,"la2":29.2853,"lo1":-89.7004,"lo2":-87.6739,"dy":0.0162,"dx":0.0183,"nx":112,"ny":82,"refTime":"2024-07-04T12:00:00:Z","depth":0,"parameterNumber":2,"parameterNumberName":"U-component_of_WINDS"},"data":[0.0,0.0,0.0,0.0,0.0,0.0,0.0,0.0,0.0,0.0,0.0,0.0,0.0,0.0,0.0,0.0,0.0,0.0,0.0,0.0,0.0,0.0,0.0,0.0,0.0,0.0,0.0,0.0,0.0,0.0,0.0,0.0,0.0,0.0,0.0,0.0,0.0,0.0,0.0,0.0,0.0,0.0,0.0,0.0,0.0,0.0,0.0,0.0,0.0,0.0,0.0,0.0,0.0,0.0,0.0,0.0,0.0,0.0,0.0,0.0,0.0,0.0,0.0,0.0,0.0,0.0,0.0,0.0,0.0,0.0,0.0,0.0,0.0,0.0,0.0,0.0,0.0,0.0,0.0,0.0,0.0,0.0,0.0,0.0,0.0,0.0,0.0,0.0,0.0,0.0,0.3978,0.4438,0.2244,0.1121,0.2133,0.2406,0.3125,0.4363,0.0,0.0,0.0,0.0,0.0,0.0,0.0,0.0,0.0,0.0,0.0,0.0,0.0,0.0,0.0,0.0,0.0,0.0,0.0,0.0,0.0,0.0,0.0,0.0,0.0,0.0,0.0,0.0,0.0,0.0,0.0,0.0,0.0,0.0,0.0,0.0,0.0,0.0,0.0,0.0,0.0,0.0,0.0,0.0,0.0,0.0,0.0,0.0,0.0,0.0,0.0,0.0,0.0,0.0,0.0,0.0,0.0,0.0,0.0,0.0,0.0,0.0,0.0,0.0,0.0,0.0,0.0,0.0,0.0,0.0,0.0,0.0,0.0,0.0,0.0,0.0,0.0,0.0,0.0,0.0,0.0,0.0,0.0,0.0,0.0,0.0,0.0,0.0,0.0,0.0,0.0,0.0,0.0,0.0,0.0,0.0,0.0,0.0,0.0,0.0,0.0,0.0,0.0,0.0,0.2765,0.4314,0.4113,0.337,0.2291,0.3408,0.4204,0.4257,0.0,0.0,0.0,0.0,0.0,0.0,0.0,0.0,0.0,0.0,0.0,0.0,0.0,0.0,0.0,0.0,0.0,0.0,0.0,0.0,0.0,0.0,0.0,0.0,0.0,0.0,0.0,0.0,0.0,0.0,0.0,0.0,0.0,0.0,0.0,0.0,0.0,0.0,0.0,0.0,0.0,0.0,0.0,0.0,0.0,0.0,0.0,0.0,0.0,0.0,0.0,0.0,0.0,0.0,0.0,0.0,0.0,0.0,0.0,0.0,0.0,0.0,0.0,0.0,0.0,0.0,0.0,0.0,0.0,0.0,0.0,0.0,0.0,0.0,0.0,0.0,0.0,0.0,0.0,0.0,0.0,0.0,0.0,0.0,0.0,0.0,0.0,0.0,0.0,0.0,0.0,0.0,0.0,0.0,0.0,0.0,0.0,0.0,0.0,0.0,0.0,0.0,0.0,0.2956,0.2329,0.3176,0.399,0.4216,0.3527,0.4086,0.445,0.4385,0.4155,0.0,0.0,0.0,0.0,0.0,0.0,0.0,0.0,0.0,0.0,0.0,0.0,0.0,0.0,0.0,0.0,0.0,0.0,0.0,0.0,0.0,0.0,0.0,0.0,0.0,0.0,0.0,0.0,0.0,0.0,0.0,0.0,0.0,0.0,0.0,0.0,0.0,0.0,0.0,0.0,0.0,0.0,0.0,0.0,0.0,0.0,0.0,0.0,0.0,0.0,0.0,0.0,0.0,0.0,0.0,0.0,0.0,0.0,0.0,0.0,0.0,0.0,0.0,0.0,0.0,0.0,0.0,0.0,0.0,0.0,0.0,0.0,0.0,0.0,0.0,0.0,0.0,0.0,0.0,0.0,0.0,0.0,0.0,0.0,0.0,0.0,0.0,0.0,0.0,0.0,0.0,0.0,0.0,0.0,0.0,0.0,0.0,0.0,0.0,0.0,0.0,0.0,0.3411,0.2769,0.2728,0.3808,0.449,0.4487,0.445,0.4409,0.4372,0.4114,0.0,0.0,0.0,0.0,0.0,0.0,0.0,0.0,0.0,0.0,0.0,0.0,0.0,0.0,0.0,0.0,0.0,0.0,0.0,0.0,0.0,0.0,0.0,0.0,0.0,0.0,0.0,0.0,0.0,0.0,0.0,0.0,0.0,0.0,0.0,0.0,0.0,0.0,0.0,0.0,0.0,0.0,0.0,0.0,0.0,0.0,0.0,0.0,0.0,0.0,0.0,0.0,0.0,0.0,0.0,0.0,0.0,0.0,0.0,0.0,0.0,0.0,0.0,0.0,0.0,0.0,0.0,0.0,0.0,0.0,0.0,0.0,0.0,0.0,0.0,0.0,0.0,0.0,0.0,0.0,0.0,0.0,0.0,0.0,0.0,0.0,0.0,0.0,0.0,0.0,0.0,0.0,0.0,0.0,0.0,0.0,0.0,0.0,0.0,0.0,0.0,0.0,0.4184,0.4353,0.4363,0.4425,0.4477,0.4522,0.4341,0.4153,0.406,0.3897,0.0,0.0,0.0,0.0,0.0,0.0,0.0,0.0,0.0,0.0,0.0,0.0,0.0,0.0,0.0,0.0,0.0,0.0,0.0,0.0,0.0,0.0,0.0,0.0,0.0,0.0,0.0,0.0,0.0,0.0,0.0,0.0,0.0,0.0,0.0,0.0,0.0,0.0,0.0,0.0,0.0,0.0,0.0,0.0,0.0,0.0,0.0,0.0,0.0,0.0,0.0,0.0,0.0,0.0,0.0,0.0,0.0,0.0,0.0,0.0,0.0,0.0,0.0,0.0,0.0,0.0,0.0,0.0,0.0,0.0,0.0,0.0,0.0,0.0,0.0,0.0,0.0,0.0,0.0,0.0,0.0,0.0,0.0,0.0,0.0,0.0,0.0,0.0,0.0,0.0,0.0,0.0,0.0,0.0,0.0,0.0,0.0,0.0,0.0,0.0,0.0,0.0,0.4153,0.4368,0.4515,0.4525,0.4522,0.4519,0.4412,0.4317,0.412,0.0,0.0,0.0,0.0,0.0,0.0,0.0,0.0,0.0,0.0,0.0,0.0,0.0,0.0,0.0,0.0,0.0,0.0,0.0,0.0,0.0,0.0,0.0,0.0,0.0,0.0,0.0,0.0,0.0,0.0,0.0,0.0,0.0,0.0,0.0,0.0,0.0,0.0,0.0,0.0,0.0,0.0,0.0,0.0,0.0,0.0,0.0,0.0,0.0,0.0,0.0,0.0,0.0,0.0,0.0,0.0,0.0,0.0,0.0,0.0,0.0,0.0,0.0,0.0,0.0,0.0,0.0,0.0,0.0,0.0,0.0,0.0,0.0,0.0,0.0,0.0,0.0,0.0,0.0,0.0,0.0,0.0,0.0,0.0,0.0,0.0,0.0,0.0,0.0,0.0,0.0,0.0,0.0,0.0,0.0,0.0,0.0,0.0,0.0,0.0,0.0,0.0,0.4005,0.4192,0.4355,0.4508,0.4519,0.4519,0.4519,0.4426,0.4338,0.4192,0.0,0.0,0.0,0.0,0.0,0.0,0.0,0.0,0.0,0.0,0.0,0.0,0.0,0.0,0.0,0.0,0.0,0.0,0.0,0.0,0.0,0.0,0.0,0.0,0.0,0.0,0.0,0.0,0.0,0.0,0.0,0.0,0.0,0.0,0.0,0.0,0.0,0.0,0.0,0.0,0.0,0.0,0.0,0.0,0.0,0.0,0.0,0.0,0.0,0.0,0.0,0.0,0.0,0.0,0.0,0.0,0.0,0.0,0.0,0.0,0.0,0.0,0.0,0.0,0.0,0.0,0.0,0.0,0.0,0.0,0.0,0.0,0.0,0.0,0.0,0.0,0.0,0.0,0.0,0.0,0.0,0.0,0.0,0.0,0.0,0.0,0.0,0.0,0.0,0.0,0.0,0.0,0.0,0.0,0.0,0.0,0.0,0.0,0.0,0.0,0.0,0.0,0.4019,0.4277,0.4519,0.4519,0.4519,0.4519,0.4519,0.4341,0.4202,0.0,0.0,0.0,0.0,0.0,0.0,0.0,0.0,0.0,0.0,0.0,0.0,0.0,0.0,0.0,0.0,0.0,0.0,0.0,0.0,0.0,0.0,0.0,0.0,0.0,0.0,0.0,0.0,0.0,0.0,0.0,0.0,0.0,0.0,0.0,0.0,0.0,0.0,0.0,0.0,0.0,0.0,0.0,0.0,0.0,0.0,0.0,0.0,0.0,0.0,0.0,0.0,0.0,0.0,0.0,0.0,0.0,0.0,0.0,0.0,0.0,0.0,0.0,0.0,0.0,0.0,0.0,0.0,0.0,0.0,0.0,0.0,0.0,0.0,0.0,0.0,0.0,0.0,0.0,0.0,0.0,0.0,0.0,0.0,0.0,0.0,0.0,0.0,0.0,0.0,0.0,0.0,0.0,0.0,0.0,0.0,0.0,0.0,0.0,0.0,0.0,0.0,0.0,0.4005,0.4277,0.4522,0.4473,0.4473,0.4477,0.4487,0.445,0.3937,0.2883,0.0,0.0,0.0,0.0,0.0,0.0,0.0,0.0,0.0,0.0,0.0,0.0,0.0,0.0,0.0,0.0,0.0,0.0,0.0,0.0,0.0,0.0,0.0,0.0,0.0,0.0,0.0,0.0,0.0,0.0,0.0,0.0,0.0,0.0,0.0,0.0,0.0,0.0,0.0,0.0,0.0,0.0,0.0,0.0,0.0,0.0,0.0,0.0,0.0,0.0,0.0,0.0,0.0,0.0,0.0,0.0,0.0,0.0,0.0,0.0,0.0,0.0,0.0,0.0,0.0,0.0,0.0,0.0,0.0,0.0,0.0,0.0,0.0,0.0,0.0,0.0,0.0,0.0,0.0,0.0,0.0,0.0,0.0,0.0,0.0,0.0,0.0,0.0,0.0,0.0,0.0,0.0,0.0,0.0,0.0,0.0,0.0,0.0,0.0,0.0,0.0,0.0,0.3963,0.429,0.448,0.4487,0.3971,0.335,0.2732,0.2679,0.2331,0.1512,0.0,0.0,0.0,0.0,0.0,0.0,0.0,0.0,0.0,0.0,0.0,0.0,0.0,0.0,0.0,0.0,0.0,0.0,0.0,0.0,0.0,0.0,0.0,0.0,0.0,0.0,0.0,0.0,0.0,0.0,0.0,0.0,0.0,0.0,0.0,0.0,0.0,0.0,0.0,0.0,0.0,0.0,0.0,0.0,0.0,0.0,0.0,0.0,0.0,0.0,0.0,0.0,0.0,0.0,0.0,0.0,0.0,0.0,0.0,0.0,0.0,0.0,0.0,0.0,0.0,0.0,0.0,0.0,0.0,0.0,0.0,0.0,0.0,0.0,0.0,0.0,0.0,0.0,0.0,0.0,0.0,0.0,0.0,0.0,0.0,0.0,0.0,0.0,0.0,0.0,0.0,0.0,0.0,0.0,0.0,0.0,0.0,0.0,0.0,0.0,0.0,0.0,0.3695,0.4041,0.4209,0.4095,0.3074,0.1725,-0.0055,-0.0333,-0.0324,-0.0151,0.0,0.0,0.0,0.0,0.0,0.0,0.0,0.0,0.0,0.0,0.0,0.0,0.0,0.0,0.0,0.0,0.0,0.0,0.0,0.0,0.0,0.0,0.0,0.0,0.0,0.0,0.0,0.0,0.0,0.0,0.0,0.0,0.0,0.0,0.0,0.0,0.0,0.0,0.0,0.0,0.0,0.0,0.0,0.0,0.0,0.0,0.0,0.0,0.0,0.0,0.0,0.0,0.0,0.0,0.0,0.0,0.0,0.0,0.0,0.0,-0.2991,-0.3533,0.0,0.0,0.0,0.0,0.0,0.0,0.0,0.0,0.0,0.0,0.0,0.0,0.0,0.0,0.0,0.0,0.0,0.0,0.0,0.0,0.0,0.0,0.0,0.0,0.0,0.0,0.0,0.0,0.0,0.0,0.0,0.0,0.0,0.0,0.0,0.0,0.0,0.0,0.0,0.0,0.2345,0.2505,0.2232,0.1058,0.2792,0.2454,-0.1392,-0.2847,-0.352,-0.3478,-0.3068,0.0,0.0,0.0,0.0,0.0,0.0,0.0,0.0,0.0,0.0,0.0,0.0,0.0,0.0,0.0,0.0,0.0,0.0,0.0,0.0,0.0,0.0,0.0,0.0,0.0,0.0,0.0,0.0,0.0,0.0,0.0,0.0,0.0,0.0,0.0,0.0,0.0,0.0,0.0,0.0,0.0,0.0,0.0,0.0,0.0,0.0,0.0,0.0,0.0,0.0,0.0,0.0,0.0,0.0,0.0,0.0,0.0,0.0,0.0,-0.2611,-0.3148,0.0,0.0,0.0,0.0,0.0,0.0,0.0,0.0,0.0,0.0,0.0,0.0,0.0,0.0,0.0,0.0,0.0,0.0,0.0,0.0,0.0,0.0,0.0,0.0,0.0,0.0,0.0,0.0,0.0,0.0,0.0,0.0,0.0,0.0,0.0,0.0,0.0,0.0,0.0,0.0,0.2588,0.1748,0.0835,0.0056,0.0111,-0.0779,-0.3125,-0.403,-0.4481,-0.4488,-0.421,0.0,0.0,0.0,0.0,0.0,0.0,0.0,0.0,0.0,0.0,0.0,0.0,0.0,0.0,0.0,0.0,0.0,0.0,0.0,0.0,0.0,0.0,0.0,0.0,0.0,0.0,0.0,0.0,0.0,0.0,0.0,0.0,0.0,0.0,0.0,0.0,0.0,0.0,0.0,0.0,0.0,0.0,0.0,0.0,0.0,0.0,0.0,0.0,0.0,0.0,0.0,0.0,0.0,-0.4532,-0.4532,-0.4539,-0.4509,-0.4344,-0.3954,-0.1747,-0.1874,-0.3761,-0.4277,0.0,0.0,0.0,0.0,0.0,0.0,0.0,0.0,0.0,0.0,0.0,0.0,0.0,0.0,0.0,0.0,0.0,0.0,0.0,0.0,0.0,0.0,0.372,0.2147,0.1986,0.2399,0.3164,0.0,0.0,0.0,0.0,0.0,0.0,0.0,0.0,0.0,0.0,0.0,0.1975,0.0438,-0.0779,-0.0778,-0.3016,-0.449,-0.4477,-0.4477,-0.4481,-0.4517,-0.4485,-0.4284,0.0,0.0,0.0,0.0,0.0,0.0,0.0,0.0,0.0,0.0,0.0,0.0,0.0,0.0,0.0,0.0,0.0,0.0,0.0,0.0,0.0,0.0,0.0,0.0,0.0,0.0,0.0,0.0,0.0,0.0,0.0,0.0,-0.0,-0.0,0.0,0.0,0.0,0.0,0.0,0.0,0.0,0.0,0.0,0.0,0.0,0.0,0.0,-0.4342,-0.4449,-0.4823,-0.4939,-0.4865,-0.4816,-0.476,-0.476,-0.4603,-0.3756,-0.2536,-0.3517,0.0,-0.0782,-0.3413,0.0,0.0,0.0,0.0,0.0,0.0,0.0,0.0,0.0,0.0,0.0,0.0,0.0,0.0,0.0,0.0,0.0,0.0,0.0,0.0,0.0,0.0,0.3971,0.2225,0.2004,0.223,0.2332,0.3021,0.3553,0.3399,0.1668,0.0302,0.0,0.0,0.0,0.0,0.0,0.0,-0.3109,-0.3694,-0.3922,-0.3913,-0.4252,-0.4477,-0.4522,-0.4519,-0.4515,-0.4505,-0.4481,-0.4438,-0.4396,-0.1561,0.0,0.0,0.0,0.0,0.0,0.0,0.0,0.0,0.0,0.0,0.0,0.0,0.0,0.0,0.0,0.0,0.0,0.0,0.0,0.0,0.0,0.0,0.0,0.0,0.0,0.0,0.0,0.0,0.0,-0.0,-0.0,-0.0,-0.0,-0.0,0.0,0.0,0.0,0.0,0.0,0.0,0.0,0.0,0.0,-0.4983,-0.4921,-0.4918,-0.4989,-0.4935,-0.4874,-0.4867,-0.4877,-0.432,-0.3383,-0.4142,-0.4145,-0.352,-0.4218,-0.3724,-0.2491,-0.2135,-0.1956,-0.1837,0.0,0.0,0.0,0.0,-0.0,-0.0,-0.0,-0.1419,-0.3232,-0.3209,0.0,0.0,0.0,0.0,0.0,0.0,0.0,0.0926,0.1449,0.1759,0.1778,0.1006,0.0888,0.0948,0.0948,0.2905,0.4011,0.1948,0.0697,-0.0,-0.0,-0.0,0.0,0.0,0.0,-0.1074,-0.4095,-0.4504,-0.449,-0.448,-0.448,-0.4473,-0.4519,-0.4522,-0.4525,-0.4525,-0.2914,-0.1997,-0.1956,0.0922,0.2539,0.0,0.0,0.0,0.0,0.0,0.0,0.0,0.0,0.0,0.0,0.0,0.0,0.0,0.0,0.0,0.0,0.0,0.0,0.0,0.0,0.0,0.0,0.0,0.0,0.0,0.0,0.0,0.0,-0.0,-0.0,-0.0,-0.0,-0.0375,0.0,0.0,0.0,0.0,0.0,0.0,-0.4905,-0.5002,-0.5074,-0.5112,-0.4982,-0.4996,-0.5036,-0.4984,-0.4734,-0.4284,-0.4806,-0.4301,-0.3024,-0.3223,-0.3741,-0.4448,-0.3682,-0.3364,-0.3168,-0.0932,-0.0,-0.0,-0.0,0.0556,0.1358,0.1358,0.111,0.0678,0.0677,-0.0,-0.0916,-0.0937,-0.1737,-0.2125,0.0702,0.0,0.0,0.0,0.0,0.0677,0.0678,0.0678,0.0678,0.0678,0.0678,0.0678,0.0678,0.2778,0.3785,0.0638,-0.0,-0.0,-0.0,-0.0,0.0,-0.0,-0.0,-0.0833,-0.306,-0.3347,-0.3329,-0.3347,-0.4027,-0.448,-0.4473,-0.448,-0.4193,-0.3395,-0.05,0.1154,0.1171,0.3326,0.4519,0.4517,0.0,0.0,0.0,0.0,0.0,0.0,0.0,0.0,0.0,0.0,0.0,0.0,0.0,0.0,0.0,0.0,0.0,0.0,0.0,0.0,0.0,0.0,0.0,0.0,0.0,0.0,0.0,0.0,0.0,-0.0,-0.0,0.0,0.0,0.0,0.0,-0.4901,-0.4914,-0.5039,-0.5104,-0.4982,-0.4982,-0.5118,-0.5068,-0.5206,-0.5355,-0.5369,-0.4486,-0.28,-0.4564,-0.5322,-0.5116,-0.1743,-0.1814,-0.4325,-0.1478,-0.0201,-0.0201,-0.0063,-0.0,-0.0,-0.0,0.21,0.5102,0.5102,0.4022,0.2582,0.2582,0.2521,0.2468,0.2463,0.2418,0.2659,0.42,0.4921,0.0,0.0,0.3888,0.2582,0.2582,0.2582,0.2582,0.2582,0.2582,0.2582,0.2582,0.2707,0.2274,0.0369,-0.0,-0.0,-0.0,0.0,-0.0,-0.0,-0.0,-0.006,-0.0234,-0.0233,-0.023,-0.0223,-0.2788,-0.4494,-0.4494,-0.4494,-0.3299,-0.0389,0.2623,0.4301,0.4252,0.4395,0.4497,0.448,0.4139,0.0,0.0,0.0,0.0,0.0,0.0,0.0,0.0,0.0,0.0,0.0,0.0,0.0,0.0,0.0,0.0,0.0,0.0,0.0,0.0,0.0,0.0,0.0,0.0,0.0,0.0,0.0,0.0,-0.1897,-0.1763,0.0,-0.3517,-0.4623,-0.514,-0.5064,-0.5082,-0.5108,-0.5084,-0.5176,-0.5228,-0.5306,-0.5294,-0.4784,-0.3648,-0.4827,-0.5062,-0.4448,-0.276,-0.1954,-0.1885,-0.0606,-0.0607,-0.1552,-0.0472,-0.0,0.0202,0.2505,0.2091,0.0261,0.2548,0.4509,0.594,0.5552,0.4966,0.442,0.4469,0.444,0.4431,0.4458,0.4322,0.4388,0.5004,0.5206,0.522,0.5396,0.4958,0.4431,0.444,0.444,0.444,0.444,0.444,0.444,0.444,0.4434,0.4237,0.3589,0.1577,-0.0,-0.0,-0.0,-0.0,-0.0,-0.0,-0.0,-0.0,0.1691,0.2144,0.0228,-0.0967,-0.1579,-0.1591,-0.1587,-0.1149,-0.0055,0.2854,0.5316,0.7198,0.728,0.7009,0.6391,0.5486,0.4646,0.0,0.0,0.0,0.0,0.0,0.0,0.0,0.0,0.0,0.0,0.0,0.0,0.0,0.0,0.0,0.0,0.0,0.0,0.0,0.0,0.0,0.0,0.0,0.0,0.0,-0.4656,-0.4819,-0.3754,-0.3593,-0.3589,-0.3618,-0.4566,-0.522,-0.5206,-0.5213,-0.5203,-0.5174,-0.4752,-0.4504,-0.4514,-0.5098,-0.4838,-0.3617,-0.3561,-0.3602,-0.3533,-0.1166,-0.0,-0.0,-0.0,-0.0,0.0067,0.128,0.1963,0.2255,0.3963,0.3569,0.2144,0.3908,0.5261,0.6055,0.5703,0.5599,0.5524,0.5569,0.5501,0.5454,0.5536,0.5446,0.538,0.5477,0.5432,0.5379,0.5491,0.5488,0.5454,0.546,0.5423,0.5382,0.5382,0.5382,0.5382,0.5382,0.5379,0.5393,0.545,0.3468,0.1833,0.1834,0.1834,0.1834,0.1834,0.1834,0.1826,0.1807,0.3554,0.405,0.2046,0.2523,0.2979,0.2954,0.296,0.2992,0.2953,0.4839,0.6827,0.8744,0.8502,0.8045,0.743,0.6388,0.5385,0.4361,0.0,0.0,0.0,0.0,0.0,0.0,0.0,0.0,0.0,0.0,0.0,0.0,0.0,0.0,0.0,0.0,0.0,0.0,0.0,0.0,0.0,0.0,0.0,-0.3299,-0.4107,-0.5099,-0.5384,-0.5409,-0.5403,-0.5407,-0.5421,-0.542,-0.5425,-0.5381,-0.5401,-0.5408,-0.3732,-0.2764,-0.262,-0.4312,-0.5207,-0.5207,-0.1749,-0.0,-0.0,-0.0,0.007,0.0211,0.0205,0.0135,0.027,0.3785,0.5723,0.6154,0.4064,0.4197,0.5617,0.389,0.4201,0.571,0.5919,0.5885,0.58,0.58,0.5711,0.562,0.5755,0.58,0.58,0.58,0.58,0.58,0.58,0.5701,0.5596,0.5596,0.5484,0.5435,0.5435,0.5435,0.5435,0.5435,0.5439,0.542,0.5566,0.5488,0.5396,0.5399,0.5399,0.5399,0.5396,0.5393,0.0,0.5375,0.5396,0.5417,0.5529,0.7655,0.9002,0.9057,0.8988,0.892,0.8912,0.8923,0.8891,0.8908,0.8008,0.7538,0.7481,0.6826,0.6081,0.5351,0.0,0.0,0.0,0.0,0.0,0.0,0.0,0.0,0.0,0.0,0.0,0.0,0.0,0.0,0.0,0.0,0.0,0.0,0.0,0.0,0.0,-0.7494,-0.748,-0.6587,-0.6492,-0.6423,-0.6141,-0.5694,-0.5397,-0.5367,-0.541,-0.5426,-0.5395,-0.5403,-0.5394,-0.5427,-0.4941,-0.3477,-0.0845,-0.121,-0.1499,-0.1499,-0.0515,-0.0,-0.0,-0.0,0.1587,0.4563,0.4602,0.3714,0.2278,0.3276,0.4588,0.5868,0.5405,0.5496,0.5899,0.5412,0.5607,0.6145,0.5913,0.5806,0.58,0.58,0.5776,0.5749,0.5789,0.58,0.58,0.58,0.58,0.58,0.58,0.5772,0.5742,0.5742,0.5637,0.5528,0.5528,0.5528,0.5528,0.5528,0.5606,0.5691,0.5735,0.5711,0.5654,0.5411,0.5395,0.5426,0.5386,0.5369,0.5422,0.5377,0.5432,0.6386,0.8902,1.1819,1.3782,1.4347,1.2767,1.178,1.1772,1.1754,1.1464,1.0794,1.0494,0.9984,0.9068,0.8329,0.7561,0.0,0.0,0.0,0.0,0.0,0.0,0.0,0.0,0.0,0.0,0.0,0.0,0.0,0.0,0.0,0.0,0.0,0.0,0.0,0.0,0.0,0.0,-0.8206,-0.8363,-0.8299,-0.7451,-0.6755,-0.6557,-0.5885,-0.546,-0.5393,-0.5467,-0.5197,-0.4336,-0.4971,-0.539,-0.5397,-0.3984,-0.2168,-0.0078,-0.0,-0.0,-0.0,0.1743,0.2636,0.2634,0.171,0.2589,0.4975,0.5891,0.5636,0.4445,0.4362,0.498,0.6009,0.5991,0.6022,0.6148,0.0,0.0,0.0,0.0,0.5952,0.5908,0.5969,0.5952,0.5908,0.5973,0.5993,0.5993,0.5993,0.5993,0.5993,0.5993,0.6022,0.5971,0.5898,0.5789,0.5677,0.5677,0.5677,0.5677,0.5677,0.5742,0.582,0.5884,0.5895,0.0,0.5789,0.5573,0.5414,0.541,0.5386,0.5433,0.5369,0.5411,0.6189,0.8183,1.2606,1.6056,1.7739,1.4811,0.0,0.0,0.0,1.1995,1.1243,1.1192,0.0,0.0,0.0,0.0,0.0,0.8134,0.0,0.0,0.5272,0.443,0.0,0.0,0.0,0.0,0.0,0.0,0.0,0.0,0.0,0.0,0.0,0.0,0.0,0.0,0.0,0.0,-0.9235,-0.8819,-0.8713,-0.7409,-0.6485,-0.6728,-0.6041,-0.553,-0.5414,-0.5555,-0.4901,-0.3138,-0.4126,-0.4809,-0.4809,-0.1707,0.0,0.0,0.0,0.0236,0.0707,0.4413,0.6329,0.6244,0.4378,0.3487,0.3561,0.5433,0.628,0.6277,0.6103,0.6099,0.6303,0.6136,0.6135,0.6247,0.6108,0.6057,0.6071,0.621,0.6173,0.6074,0.6213,0.0,0.0,0.6217,0.6338,0.6338,0.6338,0.6338,0.6338,0.6338,0.6318,0.6289,0.6057,0.5942,0.5827,0.5827,0.5827,0.5827,0.5827,0.584,0.5891,0.603,0.6057,0.6057,0.6289,0.5852,0.5483,0.5491,0.5471,0.5415,0.5406,0.5418,0.5411,0.5414,1.0707,0.0,1.8486,1.5183,1.2878,1.2726,1.2076,1.1504,1.1192,1.109,1.109,1.1192,1.0988,1.0937,1.0937,0.9568,0.8891,0.8771,0.6416,0.5151,0.0,0.0,0.0,0.0,0.0,0.0,0.0,0.0,0.0,0.0,0.0,0.0,0.0,0.0,0.0,-0.8089,-0.7947,-0.7876,-0.8127,-0.7311,-0.6671,-0.6861,-0.6047,-0.5507,-0.5633,-0.5494,-0.5283,-0.4902,-0.2462,-0.1014,-0.1014,-0.0392,-0.0,-0.0,-0.0,0.1649,0.5048,0.5927,0.6322,0.6302,0.587,0.0,0.5684,0.613,0.627,0.6259,0.6256,0.627,0.6297,0.6294,0.6234,0.6335,0.6227,0.6217,0.622,0.6251,0.624,0.622,0.6251,0.624,0.622,0.6251,0.6338,0.6338,0.6338,0.6338,0.0,0.6338,0.6318,0.6294,0.6217,0.6101,0.5986,0.5986,0.5986,0.5986,0.5986,0.6084,0.6183,0.621,0.6217,0.6217,0.6294,0.6167,0.6162,0.6151,0.5688,0.5416,0.5421,0.5405,0.5386,0.5413,0.6576,0.8708,1.2101,1.272,1.2572,1.1664,1.2234,1.2895,1.3446,1.2958,1.2904,1.3446,1.2286,1.1688,1.1688,1.0758,1.0045,0.9486,0.7572,0.6657,0.0,0.0,0.0,0.0,0.0,0.0,0.0,0.0,0.0,0.0,0.0,-0.6865,-0.6653,0.0,-0.7471,-0.7818,-0.779,-0.7688,-0.7593,-0.7158,-0.692,-0.6929,-0.6073,-0.5197,-0.4289,-0.5182,-0.4955,-0.2855,-0.1014,-0.0,-0.0,-0.0,-0.0,-0.0,-0.0,0.2043,0.625,0.6318,0.6305,0.6288,0.6281,0.6274,0.6271,0.6271,0.6268,0.6338,0.6338,0.6338,0.6338,0.6338,0.6338,0.6338,0.6338,0.6338,0.6338,0.6338,0.6338,0.6338,0.6338,0.6338,0.6338,0.6338,0.6338,0.6338,0.6338,0.6338,0.6338,0.6338,0.6338,0.6338,0.6338,0.6203,0.6146,0.6146,0.6146,0.6146,0.6146,0.6207,0.6338,0.6338,0.6338,0.6338,0.6338,0.6276,0.6324,0.6316,0.6065,0.5837,0.5842,0.5603,0.5381,0.5432,0.5403,0.6073,0.7828,0.953,1.0574,1.0844,1.136,1.2044,1.2841,1.2575,1.2575,1.2896,1.1758,1.1135,1.1135,0.9994,0.9208,0.8872,0.7828,0.7537,0.0,0.0,0.0,0.0,0.0,0.0,0.0,-0.5206,-0.5178,-0.5257,-0.5815,-0.6393,-0.6679,-0.7147,-0.7575,-0.7957,-0.7749,-0.7306,-0.681,-0.6476,-0.619,-0.6128,-0.5854,-0.5046,-0.3569,-0.3649,-0.2433,0.0942,0.0863,0.0627,0.0627,0.0627,0.0627,0.0627,0.0627,0.2433,0.624,0.6302,0.6288,0.6274,0.6268,0.6338,0.6338,0.6338,0.6338,0.6338,0.6338,0.6338,0.6338,0.6338,0.6338,0.6338,0.6338,0.6338,0.6338,0.6338,0.6338,0.6338,0.6338,0.6338,0.6338,0.6338,0.6338,0.6338,0.6338,0.6338,0.6338,0.6338,0.6338,0.6338,0.6338,0.6338,0.6338,0.6338,0.6338,0.6338,0.6338,0.6338,0.6338,0.6338,0.6338,0.6338,0.6338,0.6264,0.63,0.6331,0.631,0.6293,0.6317,0.517,0.4386,0.4319,0.4375,0.4652,0.5338,0.6853,0.8297,0.9648,1.0017,1.0559,1.1394,1.1451,1.1451,1.1451,1.0617,1.0147,1.0147,0.8747,0.8104,0.805,0.7721,0.8037,0.2341,0.1001,-0.0,-0.0,-0.2682,-0.5247,0.0,-0.5655,-0.6211,-0.5967,-0.6655,-0.7489,-0.7928,-0.7555,-0.7346,-0.7893,-0.6694,-0.5646,-0.5594,-0.42,-0.3205,-0.3204,-0.4517,-0.5585,-0.5886,0.0625,0.5123,0.5526,0.3841,0.2734,0.2734,0.2734,0.2734,0.2734,0.2734,0.391,0.6281,0.6281,0.6274,0.6264,0.6338,0.6338,0.6338,0.6338,0.6338,0.6338,0.6338,0.6338,0.6338,0.6338,0.6338,0.6338,0.6338,0.6338,0.6338,0.6338,0.6338,0.6338,0.6338,0.6338,0.6338,0.6338,0.6338,0.6338,0.6338,0.6338,0.6338,0.6338,0.6338,0.6338,0.6338,0.6338,0.6338,0.6338,0.6338,0.6338,0.6338,0.6338,0.6338,0.6338,0.6338,0.6338,0.6338,0.6271,0.6271,0.6331,0.6328,0.6276,0.6282,0.2936,0.0572,0.0625,0.061,0.1931,0.5124,0.6469,0.725,0.7467,0.8663,0.9712,1.0506,1.0561,1.0561,1.0561,0.9775,0.9343,0.9343,0.8435,0.8009,0.8009,0.7976,0.826,0.3749,0.1807,-0.0,-0.0,-0.1159,-0.2754,-0.4772,-0.5385,-0.5601,-0.5623,-0.6012,-0.6351,-0.6535,-0.543,-0.4627,-0.485,-0.4331,-0.4174,-0.5223,-0.4779,-0.3891,-0.2797,-0.4308,-0.4675,-0.2815,0.2821,0.6325,0.6312,0.55,0.4937,0.4937,0.4937,0.4937,0.4937,0.4937,0.541,0.6278,0.6278,0.6274,0.6338,0.6338,0.6338,0.6338,0.6338,0.6338,0.6338,0.6338,0.6644,0.7099,0.6567,0.6644,0.7099,0.6567,0.6338,0.6338,0.6338,0.6338,0.6338,0.6338,0.6338,0.6338,0.6338,0.6338,0.6338,0.6338,0.6338,0.6338,0.6338,0.6338,0.6338,0.6338,0.6338,0.6338,0.6338,0.6338,0.6338,0.6338,0.6338,0.6338,0.6338,0.6268,0.6271,0.6271,0.6281,0.6291,0.6305,0.4226,0.263,0.2651,0.1122,-0.0,-0.0,-0.0,0.0602,0.2135,0.3661,0.4976,0.6074,0.6677,0.7603,0.8977,0.8977,0.8977,0.8977,0.8646,0.8479,0.8479,0.7143,0.6482,0.6482,0.6474,0.6876,0.4588,0.2928,0.1031,0.0181,-0.0,-0.058,-0.2669,-0.3389,-0.36,-0.3872,-0.3885,-0.3912,-0.3925,-0.2792,-0.17,-0.1155,-0.11,-0.1564,-0.2892,-0.4444,-0.4528,-0.2219,-0.3115,-0.2434,0.1406,0.4477,0.6312,0.6291,0.6288,0.6285,0.6285,0.6285,0.6285,0.6285,0.6285,0.6302,0.6332,0.6291,0.6288,0.6318,0.6281,0.6338,0.6338,0.6338,0.6338,0.6338,0.6338,0.6718,0.7326,0.6567,0.6718,0.7326,0.6567,0.6338,0.6338,0.6338,0.6338,0.6338,0.6338,0.6338,0.6338,0.6338,0.6338,0.6338,0.6338,0.6338,0.6338,0.6338,0.6338,0.6338,0.6338,0.6338,0.6338,0.6338,0.6338,0.6338,0.6338,0.6338,0.6338,0.6338,0.6271,0.6278,0.6278,0.6295,0.5908,0.4726,0.1956,-0.0,-0.0,-0.0,-0.0,-0.0,-0.0,-0.0,-0.0,0.1205,0.2539,0.3803,0.4406,0.5206,0.6465,0.6535,0.6535,0.6535,0.6506,0.6527,0.6527,0.5439,0.5103,0.5379,0.5432,0.5752,0.4725,0.4601,0.3649,0.0759,-0.0,0.0453,0.2059,0.1132,-0.0133,-0.0133,-0.0133,-0.0133,-0.0133,0.007,0.0794,0.2613,0.2948,0.2882,0.2885,-0.1954,-0.4086,-0.0469,-0.0157,0.1492,0.5686,0.6227,0.6291,0.6281,0.6268,0.6264,0.6264,0.6264,0.6264,0.6264,0.6264,0.6329,0.6464,0.6329,0.6329,0.6464,0.6325,0.6338,0.6338,0.6338,0.6338,0.6338,0.6338,0.6338,0.6338,0.6338,0.6338,0.6338,0.6338,0.6338,0.6338,0.6338,0.6338,0.6338,0.6338,0.6338,0.6338,0.6338,0.6338,0.6338,0.6338,0.6338,0.6338,0.6338,0.6338,0.6338,0.6338,0.6338,0.6338,0.6338,0.6338,0.6338,0.6338,0.6338,0.6338,0.6338,0.6271,0.6278,0.6278,0.6305,0.4886,0.0784,0.0078,-0.0,-0.0,-0.0,-0.0,-0.0,-0.0,-0.0,-0.0,0.0067,0.0134,0.0134,0.1806,0.2811,0.2878,0.2878,0.2878,0.2878,0.2878,0.2878,0.2878,0.3411,0.4287,0.5379,0.5432,0.5428,0.4806,0.4864,0.4457,0.2615,0.2017,0.1919,0.2538,0.3147,0.3549,0.3613,0.3613,0.3569,0.3569,0.3761,0.4244,0.5075,0.5228,0.5254,0.5254,0.3606,0.1793,0.0153,-0.0,0.0546,0.1993,0.4675,0.6312,0.6291,0.6288,0.6281,0.6274,0.6274,0.6271,0.6338,0.6352,0.6424,0.6471,0.6525,0.6525,0.6471,0.6329,0.6338,0.6338,0.6338,0.6312,0.6396,0.6302,0.6759,0.7492,0.6652,0.678,0.7324,0.6606,0.6338,0.6338,0.6338,0.6338,0.6338,0.6338,0.6338,0.6338,0.6338,0.6338,0.6338,0.6338,0.6338,0.6338,0.6338,0.6338,0.6338,0.6338,0.6338,0.6338,0.6338,0.6338,0.6338,0.6338,0.6338,0.6264,0.6271,0.6281,0.6295,0.6308,0.401,0.1649,0.0235,-0.0,-0.0,-0.0,-0.0,-0.0,-0.0,-0.0,-0.0,-0.0,-0.0,-0.0,-0.0,0.0605,0.0941,0.0941,0.0941,0.0941,0.0941,0.0941,0.0941,0.0941,0.2344,0.382,0.5389,0.5369,0.5428,0.4938,0.5008,0.4964,0.4223,0.3835,0.3687,0.3685,0.4567,0.5389,0.5382,0.5382,0.5413,0.5372,0.5584,0.581,0.611,0.618,0.622,0.6274,0.6298,0.5079,0.1912,0.1406,0.1262,0.1318,0.373,0.5286,0.5182,0.5179,0.5269,0.5565,0.6009,0.6349,0.6335,0.6424,0.6525,0.6634,0.6678,0.6651,0.6552,0.6461,0.6417,0.6417,0.6417,0.6468,0.6549,0.6458,0.6925,0.7581,0.6812,0.6867,0.7492,0.6706,0.6335,0.6329,0.6281,0.6338,0.6338,0.6338,0.6338,0.6338,0.6338,0.6264,0.6268,0.6268,0.6271,0.6274,0.6268,0.6268,0.6268,0.6264,0.6338,0.6338,0.6338,0.6338,0.6264,0.6268,0.6268,0.6271,0.6281,0.6298,0.583,0.4328,0.1805,-0.0,-0.0,-0.0,-0.0,-0.0,-0.0,-0.0,-0.0,-0.0,-0.0,-0.0,-0.0,-0.0,-0.0,-0.0,-0.0,-0.0,-0.0,-0.0,-0.0,-0.0,-0.0,-0.0,0.114,0.3015,0.5396,0.5376,0.5396,0.5053,0.5081,0.5128,0.5342,0.5386,0.5389,0.5379,0.5376,0.5376,0.5428,0.5428,0.5425,0.5418,0.5488,0.5644,0.5769,0.5932,0.6095,0.624,0.6271,0.5799,0.445,0.3989,0.3726,0.3806,0.381,0.3626,0.3304,0.3187,0.3451,0.4318,0.5618,0.6341,0.6485,0.6491,0.6634,0.6926,0.6783,0.6712,0.6712,0.6705,0.6702,0.6702,0.6702,0.6705,0.6712,0.6705,0.6709,0.6722,0.6709,0.6705,0.6698,0.6546,0.6485,0.6468,0.6332,0.6285,0.6285,0.6285,0.6274,0.6338,0.6338,0.6271,0.6278,0.6197,0.6126,0.6132,0.6122,0.6197,0.6278,0.6264,0.6338,0.6338,0.6338,0.6338,0.6264,0.6278,0.6119,0.5964,0.5973,0.5993,0.4726,0.0705,-0.0,-0.0,-0.0,-0.0,-0.0,-0.0,-0.0,-0.0,-0.0,-0.0,-0.0,-0.0,-0.0,-0.0,-0.0,-0.0,-0.0,-0.0,-0.0,-0.0,-0.0,-0.0,0.0067,0.027,0.0202,0.1947,0.5406,0.5403,0.5471,0.5108,0.5216,0.5318,0.5355,0.5369,0.5369,0.5432,0.5432,0.5432,0.5428,0.5428,0.5325,0.5209,0.5494,0.5725,0.5654,0.5959,0.6217,0.6254,0.6271,0.6197,0.5799,0.5851,0.6025,0.6192,0.6251,0.6147,0.6059,0.4421,0.4251,0.6021,0.6473,0.6658,0.6644,0.6753,0.6851,0.6929,0.6892,0.6871,0.6868,0.6756,0.6702,0.6702,0.6702,0.6763,0.6865,0.6749,0.6824,0.701,0.679,0.6766,0.6854,0.6702,0.6644,0.6637,0.6603,0.6586,0.6586,0.6586,0.6444,0.6264,0.6271,0.6278,0.6038,0.438,0.3908,0.391,0.3908,0.5087,0.6278,0.6274,0.6268,0.6338,0.6338,0.6268,0.6274,0.6278,0.3824,0.1637,0.1642,0.1568,0.1256,0.0157,-0.0,-0.0,-0.0,-0.0,-0.0,-0.0,-0.0,-0.0,-0.0,-0.0,-0.0,-0.0,-0.0,-0.0,-0.0,-0.0,-0.0,-0.0,-0.0,-0.0,-0.0,-0.0,0.1347,0.4048,0.2877,0.3457,0.5628,0.565,0.5711,0.5213,0.5294,0.5428,0.5428,0.5428,0.5411,0.5277,0.526,0.5243,0.5182,0.5165,0.5142,0.5053,0.5294,0.5525,0.5583,0.5854,0.6108,0.624,0.6268,0.65,0.688,0.6784,0.693,0.75,0.73,0.7104,0.7107,0.5881,0.5656,0.6729,0.6783,0.6814,0.68,0.6881,0.6959,0.7021,0.7021,0.7021,0.7021,0.6936,0.6895,0.6895,0.6895,0.6939,0.7017,0.6932,0.6987,0.7129,0.6963,0.6946,0.7007,0.6858,0.68,0.6793,0.6725,0.6702,0.6702,0.6629,0.6525,0.6458,0.64,0.6386,0.6064,0.4883,0.3212,0.1721,0.172,0.2577,0.3982,0.5799,0.6274,0.6268,0.6268,0.6278,0.5808,0.3912,0.164,-0.0,-0.0,-0.0,-0.0,-0.0,-0.0,-0.0,-0.0,-0.0,-0.0,-0.0,-0.0,-0.0,-0.0,-0.0,-0.0,-0.0,-0.0,-0.0,-0.0,-0.0,-0.0,-0.0,0.153,0.24,0.24,0.1623,0.223,0.439,0.4312,0.4789,0.5849,0.5851,0.5916,0.5621,0.5606,0.5547,0.5508,0.5446,0.5291,0.5138,0.5101,0.5067,0.4945,0.4918,0.4911,0.4894,0.502,0.5223,0.5511,0.5694,0.5908,0.6217,0.6338,0.6641,0.7706,0.7213,0.7244,0.8324,0.771,0.7291,0.7312,0.7166,0.7065,0.6874,0.6813,0.688,0.6956,0.6956,0.7014,0.7139,0.7139,0.7139,0.7139,0.7139,0.7139,0.7139,0.7139,0.7139,0.7139,0.7139,0.7139,0.7139,0.7139,0.7129,0.7105,0.7,0.6953,0.6922,0.6807,0.6766,0.677,0.6703,0.6699,0.6659,0.659,0.6465,0.6202,0.5668,0.2917,-0.0,-0.0,-0.0,0.0935,0.5171,0.6285,0.6197,0.5562,0.5491,0.447,0.0783,-0.0,-0.0,-0.0,-0.0,-0.0,-0.0,-0.0,-0.0,-0.0,-0.0,0.0236,0.0785,0.0314,-0.0,-0.0,-0.0,-0.0,-0.0,-0.0,0.0228,0.0837,0.0817,0.0732,0.0439,0.3432,0.5237,0.5454,0.392,0.3223,0.3511,0.5093,0.5884,0.5995,0.6019,0.6022,0.722,0.6797,0.6392,0.5976,0.5516,0.5131,0.4989,0.4955,0.4948,0.4925,0.4918,0.488,0.4755,0.4948,0.5189,0.5372,0.5627,0.5908,0.6217,0.6338,0.6641,0.7706,0.7812,0.8235,0.9519,0.8774,0.8295,0.8528,0.7672,0.7126,0.7071,0.7004,0.7017,0.7102,0.7102,0.7115,0.7139,0.7139,0.7139,0.7139,0.7139,0.7139,0.7139,0.7139,0.7139,0.7139,0.7139,0.7139,0.7139,0.7139,0.7078,0.708,0.7092,0.7068,0.7073,0.7075,0.7017,0.7021,0.7021,0.7044,0.6929,0.6515,0.6312,0.5638,0.2187,0.0558,-0.0,-0.0,-0.0,0.0939,0.5199,0.6308,0.5413,0.1947,0.1093,0.0861,0.0157,-0.0,-0.0,-0.0,-0.0,-0.0,-0.0,-0.0,-0.0,-0.0,-0.0,0.1256,0.4729,0.2121,-0.0,-0.0,-0.0,-0.0,-0.0,-0.0,0.1483,0.5018,0.5211,0.4448,0.2625,0.3149,0.4198,0.5669,0.5421,0.5337,0.549,0.5988,0.6134,0.5996,0.6135,0.621,0.7365,0.6794,0.627,0.6034,0.5513,0.4982,0.4833,0.0,0.0,0.4697,0.468,0.466,0.4585,0.4752,0.4952,0.5108,0.5379,0.5885,0.6706,0.7056,0.7816,0.9376,0.9358,0.9629,1.067,1.0001,0.9515,0.9596,0.8657,0.7753,0.7139,0.7139,0.7139,0.7139,0.7139,0.7139,0.7139,0.7139,0.7139,0.7139,0.7139,0.7139,0.7139,0.7139,0.7139,0.7139,0.7139,0.7139,0.7143,0.7064,0.7122,0.6984,0.5791,0.5247,0.53,0.5262,0.5247,0.5468,0.664,0.709,0.7048,0.681,0.5079,0.2681,0.0642,-0.0,-0.0,-0.0,-0.0,0.047,0.2511,0.3057,0.2503,0.0469,-0.0,-0.0,-0.0,-0.0,-0.0,-0.0,-0.0,-0.0,-0.0,-0.0,-0.0,-0.0,-0.0,0.1492,0.5767,0.457,0.2827,0.1722,0.1643,0.1643,0.1643,0.1643,0.2506,0.4474,0.5687,0.5806,0.478,0.4662,0.5046,0.5879,0.5867,0.5861,0.6005,0.6081,0.6156,0.6159,0.624,0.5721,0.7592,0.7027,0.6446,0.6189,0.5612,0.5005,0.4735,0.4643,0.4609,0.4543,0.4519,0.4519,0.4519,0.4562,0.4704,0.4891,0.5329,0.6022,0.7153,0.7829,0.899,1.1004,1.0814,1.0903,1.1742,1.1134,1.0595,1.0471,0.9365,0.8285,0.7136,0.7139,0.7139,0.7139,0.7139,0.7139,0.7139,0.7139,0.7139,0.7139,0.7139,0.7139,0.7139,0.7139,0.7139,0.7139,0.7139,0.7143,0.7061,0.7078,0.7071,0.6959,0.5092,0.3744,0.2841,0.2854,0.2823,0.3122,0.4964,0.6272,0.6906,0.5895,0.3063,-0.0,-0.0,-0.0,-0.0,-0.0,-0.0,-0.0,-0.0,-0.0,-0.0,-0.0,-0.0,-0.0,-0.0,-0.0,-0.0,-0.0,-0.0,-0.0,-0.0,-0.0,-0.0,-0.0,0.0785,0.2357,0.528,0.5999,0.5668,0.3986,0.375,0.3752,0.3752,0.3752,0.3752,0.375,0.5332,0.6291,0.6288,0.6162,0.6095,0.6095,0.5966,0.5959,0.6078,0.6081,0.6149,0.6278,0.6285,0.5413,0.9227,0.8591,0.7899,0.6804,0.6126,0.5522,0.4685,0.0,0.4536,0.4522,0.4519,0.4519,0.4519,0.4529,0.4579,0.487,0.567,0.6534,0.7202,0.8351,0.9682,1.101,1.1158,1.1667,1.2942,1.18,1.1055,1.1341,0.9428,0.7942,0.7126,0.7139,0.7139,0.7139,0.7139,0.7139,0.7139,0.7139,0.7139,0.7139,0.7139,0.7139,0.7139,0.7139,0.7139,0.7139,0.7139,0.7064,0.7081,0.7084,0.7112,0.7118,0.6897,0.4174,0.035,0.0357,0.0355,0.0348,0.0609,0.3479,0.6427,0.2043,0.0326,-0.0,-0.0,-0.0,-0.0,-0.0,-0.0,-0.0,-0.0,-0.0,-0.0,-0.0,-0.0,-0.0,-0.0,-0.0,-0.0,-0.0,-0.0,-0.0,-0.0,-0.0,-0.0,-0.0,0.3303,0.5121,0.3599,0.5093,0.6197,0.6025,0.6041,0.5977,0.5977,0.5977,0.597,0.6038,0.62,0.6274,0.6264,0.6251,0.624,0.624,0.6227,0.6227,0.624,0.6251,0.6264,0.6278,0.6312,0.6165,0.9065,0.8507,0.7859,0.7393,0.6763,0.6087,0.5289,0.5109,0.5003,0.457,0.4519,0.4519,0.4519,0.4519,0.456,0.4623,0.5408,0.645,0.7562,0.8944,1.0271,1.1665,1.2177,1.2524,1.2939,1.259,1.2103,1.1558,1.0239,0.8977,0.7943,0.7267,0.7051,0.7136,0.7139,0.7139,0.7139,0.7054,0.7014,0.701,0.6919,0.6922,0.7014,0.693,0.6977,0.7143,0.7074,0.7084,0.7081,0.7099,0.7099,0.6854,0.3921,0.1646,-0.0,-0.0,-0.0,-0.0,-0.0,0.1229,0.2553,0.0637,-0.0,-0.0,-0.0,-0.0,-0.0,-0.0,-0.0,-0.0,-0.0,-0.0,-0.0,-0.0,-0.0,-0.0,-0.0,-0.0,-0.0,-0.0,-0.0,-0.0,-0.0,-0.0,-0.0,-0.0,0.3618,0.5999,0.5101,0.5805,0.6274,0.6264,0.6271,0.6274,0.6274,0.6274,0.6274,0.6268,0.6268,0.6268,0.6338,0.6338,0.6338,0.6338,0.6338,0.6338,0.6338,0.6274,0.564,0.438,0.5677,0.4967,0.8804,0.8427,0.7996,0.7777,0.7289,0.6745,0.5982,0.5814,0.571,0.5226,0.5117,0.5117,0.5117,0.5117,0.5117,0.5117,0.598,0.7042,0.8291,0.9722,1.0985,1.1838,1.2344,1.2433,1.1908,1.2001,1.186,1.1453,1.0181,0.9147,0.8434,0.7399,0.6902,0.7132,0.7099,0.7078,0.7078,0.6936,0.6861,0.6861,0.6756,0.6787,0.6847,0.6863,0.656,0.6104,0.676,0.7102,0.7138,0.7056,0.6288,0.4667,0.1278,-0.0,-0.0,-0.0,-0.0,-0.0,-0.0,-0.0,-0.0,-0.0,-0.0,-0.0,-0.0,-0.0,-0.0,-0.0,-0.0,-0.0,-0.0,-0.0,-0.0,-0.0,-0.0,-0.0,-0.0,-0.0,-0.0,-0.0,-0.0,-0.0,-0.0,-0.0,-0.0,-0.0,0.3062,0.5593,0.6217,0.6281,0.6271,0.6264,0.6338,0.6338,0.6338,0.6338,0.6338,0.6338,0.6338,0.6338,0.6338,0.6338,0.624,0.6193,0.6193,0.6169,0.6125,0.6266,0.5197,0.3093,0.3995,0.2829,0.8791,0.8804,0.8593,0.7883,0.767,0.7509,0.675,0.6588,0.6588,0.6588,0.6588,0.6588,0.6588,0.6588,0.6588,0.6588,0.7694,0.8789,0.9376,1.0895,1.1715,1.1284,1.1194,1.0806,0.986,0.9509,0.9856,1.1099,0.9125,0.8026,0.8384,0.7193,0.6681,0.7126,0.7004,0.6929,0.6929,0.678,0.6702,0.6702,0.6798,0.68,0.6771,0.6973,0.5829,0.3727,0.6097,0.7083,0.7119,0.7119,0.4303,0.0084,-0.0,-0.0,-0.0,-0.0,-0.0,-0.0,-0.0,-0.0,-0.0,-0.0,-0.0,-0.0,-0.0,-0.0,-0.0,-0.0,-0.0,-0.0,-0.0,-0.0,-0.0,-0.0,-0.0,-0.0,-0.0,-0.0,-0.0,-0.0,-0.0,-0.0,-0.0,-0.0,-0.0,-0.0,0.18,0.391,0.6054,0.6274,0.6338,0.6338,0.6338,0.6338,0.6338,0.6338,0.6338,0.6338,0.6338,0.6338,0.6338,0.6338,0.6186,0.6034,0.603,0.5959,0.5806,0.6145,0.5234,0.3022,0.1008,0.0079,0.8043,0.8427,0.8752,0.8533,0.8427,0.8262,0.7509,0.7343,0.7069,0.6036,0.6253,0.6421,0.5928,0.6258,0.6693,0.69,0.7728,0.8288,0.8291,0.9437,1.0077,0.9486,0.9739,0.9785,0.9479,0.9337,0.9478,0.9856,0.87,0.8011,0.8125,0.716,0.6695,0.6837,0.6797,0.6773,0.6773,0.662,0.6546,0.6546,0.6458,0.6552,0.6632,0.6567,0.5491,0.3552,0.2606,0.4128,0.685,0.3562,0.1328,-0.0,-0.0,-0.0,-0.0,-0.0,-0.1839,-0.3901,-0.1032,-0.0,-0.0,-0.0,-0.0,-0.0,-0.0,-0.0,-0.0,-0.0,-0.0,-0.0,-0.0,-0.0,-0.0,-0.0,-0.0,-0.0,-0.0,-0.0,-0.0,-0.0,-0.0,-0.0,-0.0,-0.0,-0.0,-0.0,0.18,0.391,0.6054,0.6274,0.6338,0.6338,0.6338,0.6338,0.6338,0.6338,0.6338,0.6338,0.6338,0.6338,0.6338,0.6338,0.6237,0.6186,0.6084,0.6061,0.6125,0.6019,0.4277,0.0931,0.0313,-0.0,0.7245,0.7955,0.8374,0.8374,0.8593,0.8699,0.8209,0.8103,0.7777,0.6573,0.6686,0.6804,0.6036,0.6312,0.6688,0.6885,0.744,0.7868,0.7974,0.8838,0.9333,0.8897,0.8416,0.8169,0.8138,0.8156,0.8318,0.8694,0.7884,0.7324,0.7324,0.6878,0.6536,0.6536,0.6586,0.6614,0.6614,0.6468,0.6393,0.639,0.6318,0.5924,0.5221,0.432,0.3347,0.22,0.0678,0.1676,0.0,0.1211,-0.0,-0.0,-0.0,-0.0951,-0.2405,-0.237,-0.3066,-0.3775,-0.275,-0.1334,-0.0,-0.0,-0.0,-0.0,-0.0,-0.0,-0.0,-0.0,-0.0,-0.0,-0.0,-0.0,-0.0,-0.0,-0.0,-0.0,-0.0,-0.0,-0.0,-0.0,-0.0,-0.0,-0.0,-0.0,-0.0,-0.0,0.18,0.391,0.6054,0.6274,0.6338,0.6338,0.6338,0.6338,0.6338,0.6338,0.6338,0.6338,0.6338,0.6338,0.6338,0.6338,0.6234,0.6176,0.6027,0.6003,0.6112,0.5786,0.3683,-0.0,-0.0,-0.0,0.0,0.7278,0.7587,0.7646,0.8143,0.8646,0.8646,0.8646,0.0,0.7723,0.7563,0.7402,0.6663,0.6598,0.6657,0.6688,0.7032,0.7511,0.8375,0.8751,0.8872,0.8832,0.7231,0.6035,0.606,0.6173,0.6659,0.7633,0.6795,0.6264,0.6338,0.6338,0.6338,0.6264,0.639,0.6458,0.6458,0.6325,0.6338,0.6264,0.6285,0.5244,0.3239,0.1056,-0.0,-0.0,-0.0,-0.0,-0.0,-0.0,-0.0,-0.0,-0.0,-0.2435,-0.5849,-0.6172,-0.3851,-0.1019,-0.4967,-0.3698,-0.0393,-0.0079,-0.0,-0.0,-0.0,-0.0,-0.0,-0.0,-0.0,-0.0,-0.0,-0.0,-0.0,-0.0,-0.0,-0.0,-0.0,-0.0,-0.0,-0.0,-0.0,-0.0,-0.0,-0.0,0.0079,0.0393,0.18,0.3675,0.5977,0.6278,0.6264,0.6264,0.6264,0.6264,0.6338,0.6338,0.6338,0.6264,0.6264,0.6264,0.6264,0.6264,0.6196,0.6051,0.5998,0.593,0.5706,0.5265,0.3308,-0.0,-0.0,-0.0,0.2895,0.0,0.6494,0.7281,0.7295,0.7128,0.0,0.7128,0.6907,0.6195,0.0,0.6693,0.6075,0.6663,0.7351,0.7786,0.7254,0.7104,0.7975,0.5866,0.4355,0.4503,0.4142,0.3828,0.382,0.5326,0.6362,0.6659,0.6426,0.6271,0.6338,0.6338,0.6264,0.6274,0.6305,0.6318,0.6312,0.6355,0.6268,0.6274,0.6288,0.606,0.5389,0.1709,-0.0,-0.0,-0.0,-0.0,-0.0,-0.0,-0.0,-0.0,-0.0,-0.0628,-0.1886,-0.5137,-0.5692,-0.4967,-0.5937,-0.5614,-0.4254,-0.1021,-0.0,-0.0,-0.0,-0.0,-0.0,-0.0,-0.0,-0.0,-0.0,-0.0,-0.0,-0.0,-0.0,-0.0,-0.0,-0.0,-0.0,-0.0,-0.0,-0.0,-0.0,-0.0,0.1099,0.4332,0.2508,0.2112,0.5814,0.6291,0.6285,0.6274,0.6274,0.6271,0.6338,0.6338,0.6264,0.6274,0.6274,0.6278,0.6288,0.6288,0.6271,0.6234,0.6217,0.5997,0.5501,0.2617,0.0859,-0.0,-0.0,-0.0,0.2619,0.4115,0.5742,0.6292,0.6723,0.6993,0.6993,0.0,0.0,0.0,0.0,0.6037,0.5309,0.5659,0.5697,0.4497,0.3832,0.3607,0.41,0.261,0.1479,0.1632,0.1642,0.1643,0.1641,0.2738,0.3837,0.4771,0.5727,0.6285,0.6278,0.6278,0.6281,0.6285,0.5329,0.5323,0.6274,0.6278,0.6281,0.6288,0.6305,0.628,0.6128,0.1922,-0.0,-0.0,-0.0,-0.0,-0.0,-0.0,-0.0,-0.0,-0.0,-0.0,-0.0549,-0.4726,-0.6318,-0.6315,-0.6322,-0.5045,-0.3066,-0.0707,-0.0,-0.0,-0.0,-0.0,-0.0,-0.0,-0.0,-0.0,-0.0,-0.0,-0.0,-0.0,-0.0,-0.0,-0.0,-0.0,-0.0,-0.0,-0.0,-0.0,-0.0,-0.0,0.0785,0.3066,0.3142,0.2981,0.3368,0.4231,0.4857,0.4851,0.5727,0.6285,0.6278,0.6278,0.6278,0.6278,0.5351,0.4801,0.4854,0.4812,0.5304,0.6259,0.627,0.5205,0.2931,0.0986,-0.0,-0.0,-0.0,-0.0,0.3591,0.4353,0.5083,0.5139,0.6053,0.696,0.696,0.0,0.0,0.0,0.0,0.0,0.4577,0.4101,0.2872,0.0176,-0.0739,-0.1051,-0.1067,-0.0937,-0.0882,-0.0847,-0.031,-0.0,-0.0,-0.0,0.0696,0.2471,0.4337,0.5449,0.5783,0.5786,0.5954,0.6302,0.4545,0.4309,0.5821,0.5817,0.5977,0.6302,0.6322,0.593,0.5207,0.1649,-0.0,-0.0,-0.0,-0.0,-0.0,-0.0,-0.0,-0.0079,-0.0707,-0.0942,-0.141,-0.4948,-0.6298,-0.6213,-0.5578,-0.2979,-0.0,-0.0,-0.0,-0.0,-0.0,-0.0,-0.0,-0.0,-0.0,-0.0,-0.0,-0.0,-0.0,-0.0,-0.0,-0.0,-0.0,-0.0,-0.0,-0.0,-0.0,-0.0,-0.0,-0.0,-0.0,-0.0,0.3066,0.4252,0.1332,0.1955,0.2656,0.2655,0.4545,0.5817,0.5814,0.6136,0.6295,0.6281,0.4614,0.329,0.264,0.2592,0.3515,0.528,0.5352,0.3543,-0.0,-0.0,-0.0,-0.0,-0.0,-0.0,0.3509,0.4011,0.4207,0.4318,0.4639,0.4963,0.4971,0.0,0.0,0.0,0.0,0.0,0.0,0.2219,0.0236,-0.0,-0.2634,-0.4611,-0.4624,-0.4804,-0.4859,-0.457,-0.1841,-0.0,-0.0,-0.0,0.0147,0.0441,0.0808,0.1707,0.3489,0.3569,0.4459,0.624,0.6002,0.5123,0.362,0.3604,0.447,0.6325,0.6329,0.4413,0.0942,0.0314,-0.0,-0.0,-0.0,-0.0,-0.0,-0.0,-0.0,-0.0393,-0.3942,-0.5294,-0.5445,-0.6084,-0.6312,-0.5817,-0.2192,-0.0549,-0.0,-0.0,-0.0,-0.0,-0.0,-0.0,-0.0,-0.0,-0.0,-0.0,-0.0,-0.0,-0.0,-0.0,-0.0,-0.0,-0.0,-0.0,-0.0,-0.0,-0.0,-0.0,-0.0,-0.0,-0.0,-0.0,0.0549,0.2042,0.4967,0.2512,0.047,0.047,0.235,0.3606,0.3597,0.5271,0.6315,0.6295,0.597,0.4194,0.0609,0.0455,0.0598,0.0948,0.0947,0.0655,-0.0,-0.0,-0.0,-0.0,-0.0,-0.0,0.3572,0.3849,0.4022,0.4079,0.4306,0.4473,0.4477,0.0,0.0,0.0,0.0,0.0,0.0,0.325,0.11,-0.2369,-0.4319,-0.5372,-0.5385,-0.5484,-0.5611,-0.562,-0.401,-0.2179,-0.0218,-0.0,-0.08,-0.2767,-0.2913,-0.2046,-0.0147,-0.0,0.0373,0.1226,0.4553,0.4745,0.1491,0.141,0.1881,0.2909,0.2909,0.1885,-0.0,-0.0,-0.0,-0.0,-0.0,-0.0,-0.0,-0.0,-0.0,-0.0393,-0.4661,-0.626,-0.6329,-0.6308,-0.6298,-0.6054,-0.4075,-0.1881,-0.0,-0.0,-0.0,-0.0,-0.0,-0.0,-0.0,-0.0,-0.0,-0.0,-0.0,-0.0,-0.0,-0.0,-0.0,-0.0,-0.0,-0.0,-0.0,-0.0,-0.0,-0.0,-0.0,-0.0,-0.0,-0.0,-0.0,0.0707,0.2672,0.1178,-0.0,-0.0,0.0863,0.2356,0.4643,0.5767,0.5341,0.3001,0.2882,0.2019,0.0076,-0.0,-0.0,-0.0,-0.0,-0.0,-0.0,-0.0,-0.0,-0.0,-0.0,-0.0,0.3622,0.3795,0.3975,0.4012,0.425,0.4477,0.448,0.3574,0.0,0.0,0.0,0.0,0.3946,0.362,0.1565,-0.3899,-0.4764,-0.4882,-0.5343,-0.5142,-0.518,-0.5654,-0.5525,-0.4293,-0.1569,-0.1284,-0.2429,-0.5179,-0.5396,-0.4819,-0.3385,-0.3313,-0.3437,-0.3626,0.09,0.2275,-0.0,-0.0,-0.0,-0.0,-0.0,-0.0,-0.0,-0.0,-0.0,-0.0,-0.0,-0.0,-0.0,-0.0,-0.0,-0.0393,-0.4101,-0.5852,-0.6318,-0.6285,-0.6285,-0.6136,-0.5176,-0.2741,-0.0,-0.0,-0.0,-0.0,-0.0,-0.0,-0.0,-0.0,-0.0,0.0236,0.1256,0.0707,-0.0,-0.0,-0.0,-0.0,-0.0,-0.0,-0.0,-0.0,-0.0,-0.0,-0.0,-0.0,-0.0,-0.0,-0.0,-0.0,-0.0,-0.0,-0.0,-0.0,-0.0,0.1335,0.458,0.4818,0.3832,0.1607,0.0543,-0.0,-0.0,-0.0,-0.0,-0.0,-0.0,-0.0,-0.0,-0.0,-0.0,-0.0,-0.0,-0.0,0.3741,0.3792,0.3843,0.3985,0.4243,0.0,0.4477,0.4421,0.0,0.4494,0.0,0.2343,0.2345,0.1058,-0.0681,-0.256,-0.2896,-0.3489,-0.5135,-0.4442,-0.4167,-0.5276,-0.5423,-0.5292,-0.5014,-0.5023,-0.51,-0.5376,-0.5369,-0.5352,-0.5202,-0.5208,-0.5194,-0.524,-0.5356,-0.3632,-0.0,-0.0,-0.0,-0.0,-0.0,-0.0,-0.0,-0.0,-0.0,-0.0,-0.0,-0.0,-0.0,-0.0,-0.0,-0.0236,-0.2438,-0.4565,-0.6295,-0.6271,-0.6278,-0.5733,-0.1793,-0.0235,-0.0,-0.0,-0.0,-0.0,-0.0,-0.0,-0.0,-0.0,-0.0,0.0864,0.481,0.2909,-0.0,-0.0,-0.0,-0.0,-0.0,-0.0,-0.0,-0.0,-0.0,-0.0,-0.0,-0.0,-0.0,-0.0,-0.0,-0.0,-0.0,-0.0,-0.0,-0.0,-0.0,0.0157,0.0393,0.047,0.196,0.5608,0.2199,-0.0,-0.0,-0.0,-0.0,-0.0,-0.0,-0.0,-0.0,-0.0,-0.0,-0.0,-0.0,-0.0,0.3457,0.3721,0.3948,0.4005,0.4243,0.0,0.0,0.5043,0.5007,0.4563,0.4141,0.3771,0.3677,0.1535,-0.0317,-0.0897,-0.0989,-0.2016,-0.4995,-0.4992,-0.4916,-0.5322,-0.5393,-0.5399,-0.5406,-0.5403,-0.5403,-0.5403,-0.5393,-0.5406,-0.5389,-0.5393,-0.5418,-0.5555,-0.4575,-0.3381,-0.1917,-0.0665,-0.0,-0.0,-0.0,-0.0,-0.0,-0.0,-0.0,-0.0,-0.0,-0.0,-0.0,-0.0,-0.0,-0.0079,-0.0863,-0.3294,-0.6295,-0.6278,-0.6281,-0.5733,-0.148,-0.0,-0.0,-0.0,-0.0,-0.0,-0.0,-0.0,-0.0,-0.0,-0.0,0.0393,0.1963,0.3147,0.3228,0.0628,-0.0,-0.0,-0.0,-0.0,-0.0,-0.0,-0.0,-0.0,-0.0,-0.0,-0.0,-0.0,-0.0,-0.0,-0.0,-0.0,-0.0,-0.0,-0.0,-0.0,-0.0,-0.0,0.0706,0.2281,0.3335,0.2743,0.0075,-0.0,-0.0,-0.0,-0.0,-0.0,-0.0,-0.0,-0.0,-0.0,-0.0,-0.0,0.3476,0.3714,0.3961,0.4009,0.0,0.0,0.5188,0.5255,0.505,0.4604,0.4597,0.468,0.466,0.2925,0.1082,0.0129,-0.0,-0.0875,-0.3364,-0.4657,-0.5202,-0.4643,-0.5055,-0.5403,-0.5406,-0.4852,-0.4776,-0.5389,-0.5379,-0.5369,-0.5428,-0.5428,-0.5433,-0.552,-0.4227,-0.3074,-0.215,-0.0719,-0.0,-0.0,-0.0,-0.0,-0.0,-0.0,-0.0,-0.0,-0.0,-0.078,-0.1965,-0.1964,-0.1178,-0.0,-0.0,-0.18,-0.447,-0.5808,-0.6295,-0.5665,-0.1483,-0.0,-0.0,-0.0,-0.0,-0.0,-0.0,-0.0,-0.023,-0.1381,-0.0844,-0.0,-0.0,0.2175,0.3936,0.2335,0.0937,-0.0,-0.0,-0.0,-0.0,-0.0,-0.0,-0.0,-0.0,-0.0,-0.0,-0.0,-0.0,-0.0,-0.0,-0.0,-0.0,-0.0,-0.0,-0.0,-0.0,-0.0,-0.0,-0.0,0.2734,0.2996,0.015,-0.0,-0.0,-0.0,-0.0,-0.0,-0.0,-0.0,-0.0,-0.0,-0.0,-0.0,0.3883,0.3788,0.3829,0.0,0.0,0.0,0.5289,0.4889,0.4519,0.4519,0.4519,0.4629,0.5035,0.4783,0.3551,0.0512,-0.0,-0.0,-0.0,-0.3092,-0.4721,-0.2947,-0.4308,-0.5343,-0.5329,-0.3756,-0.3482,-0.5243,-0.5369,-0.5428,-0.5428,-0.5428,-0.5369,-0.5385,-0.54,-0.3675,-0.007,-0.0,-0.0,-0.0,-0.0,-0.0,-0.0,-0.0,-0.0074,-0.0076,-0.0,-0.2382,-0.626,-0.6254,-0.3773,-0.0,-0.0,-0.0,-0.047,-0.4706,-0.6227,-0.5605,-0.1488,-0.0,-0.0,-0.0078,-0.0077,-0.0076,-0.0,-0.0,-0.0729,-0.4387,-0.2772,-0.0073,-0.0,-0.0,0.1092,0.5278,0.3011,-0.0,-0.0,-0.0,-0.0,-0.0,-0.0,-0.0,-0.0,-0.0,-0.0,-0.0,-0.0,-0.0,-0.0,-0.0,-0.0,-0.0,-0.0,-0.0,-0.0,-0.0,-0.0,-0.0,-0.0,-0.0,-0.0,-0.0,-0.0,-0.0,-0.0,-0.0,-0.0,-0.0,-0.0,-0.0,-0.0,-0.0,0.4428,0.447,0.0,0.5278,0.0,0.0,0.0,0.5671,0.0,0.5381,0.5409,0.5429,0.5546,0.5321,0.4353,0.1934,0.065,-0.0,-0.0,-0.0941,-0.2357,-0.4381,-0.2827,-0.1616,-0.1615,-0.3433,-0.4855,-0.5336,-0.5393,-0.5386,-0.5386,-0.5386,-0.5403,-0.5376,-0.542,-0.4258,-0.1897,-0.0613,-0.0,-0.0,-0.0,-0.0,-0.0073,-0.2625,-0.3814,-0.3691,-0.2428,-0.2585,-0.3883,-0.5569,-0.3782,-0.0,-0.0,-0.0,-0.0152,-0.137,-0.1885,-0.1715,-0.0455,-0.0,-0.0446,-0.2984,-0.3786,-0.3536,-0.2278,-0.1024,-0.0509,-0.2837,-0.3649,-0.3214,-0.0654,-0.0,0.0298,0.155,0.089,-0.0,-0.0,-0.0,-0.0,-0.0,-0.0,-0.0,-0.0,-0.0,-0.0,-0.0,-0.0,-0.0,-0.0,-0.0,-0.0,-0.0,-0.0,-0.0,-0.0,-0.0,-0.0,-0.0,-0.0,-0.0,-0.0,-0.0,-0.0,-0.0,-0.0,-0.0,-0.0,-0.0,-0.0,-0.0,-0.0,-0.0,0.5797,0.576,0.0,0.6479,0.5944,0.5515,0.6406,0.6258,0.5959,0.6086,0.6113,0.6079,0.5817,0.5411,0.4684,0.3508,0.1456,-0.0,-0.0,-0.0,-0.0791,-0.3,-0.1328,-0.0,-0.0,-0.2003,-0.3565,-0.4241,-0.4303,-0.43,-0.43,-0.43,-0.4298,-0.4359,-0.5055,-0.4855,-0.3763,-0.1275,-0.0,-0.0,-0.0,-0.0752,-0.2187,-0.4393,-0.5429,-0.5334,-0.428,-0.3853,-0.4003,-0.5648,-0.4814,-0.2497,-0.2539,-0.2376,-0.2004,-0.0519,-0.0,-0.0,-0.0,-0.0,-0.058,-0.4232,-0.5375,-0.5176,-0.4084,-0.2985,-0.2394,-0.3451,-0.4526,-0.4751,-0.183,-0.0563,-0.0,-0.0,-0.0,-0.0,-0.0,-0.0,-0.0,-0.0,-0.0,-0.0,-0.0,-0.0,-0.0,-0.0,-0.0,-0.0,-0.0,-0.0,-0.0,-0.0,-0.0,-0.0,-0.0,-0.0,-0.0,-0.0,-0.0,-0.0,-0.0,-0.0,-0.0,-0.0,-0.0,-0.0,-0.0,-0.0,-0.0,-0.0,-0.0,-0.0,0.7636,0.7448,0.711,0.7656,0.7229,0.6748,0.6854,0.6956,0.6902,0.675,0.6642,0.643,0.5941,0.517,0.4711,0.5015,0.2455,0.0369,0.0062,-0.0,-0.0,-0.0,-0.0,-0.0,-0.0,-0.0,-0.0665,-0.2326,-0.2465,-0.2468,-0.2468,-0.2474,-0.2477,-0.2476,-0.403,-0.5059,-0.541,-0.2142,-0.0468,-0.0469,-0.0468,-0.2207,-0.5393,-0.5403,-0.541,-0.5395,-0.5454,-0.5656,-0.581,-0.6115,-0.6198,-0.6277,-0.6201,-0.5906,-0.5015,-0.1733,-0.0504,-0.0503,-0.0505,-0.0504,-0.1007,-0.4339,-0.5422,-0.5385,-0.5385,-0.5433,-0.5393,-0.5379,-0.5386,-0.5052,-0.3351,-0.1472,-0.0,-0.0,-0.0,-0.0,-0.0,-0.0,-0.0,-0.0,-0.0,-0.0,-0.0,-0.0,-0.0,-0.0,-0.0,-0.0,-0.0,-0.0,-0.0,-0.0,-0.0,-0.0,-0.0,-0.0,-0.0,-0.0,-0.0,-0.0,-0.0,-0.0,-0.0,-0.0,-0.0,-0.0,-0.0,-0.0,-0.0,-0.0,-0.0,-0.0,0.8405,0.8474,0.0,0.8912,0.9054,0.9085,0.9061,0.9496,0.9415,0.7818,0.702,0.6549,0.643,0.5949,0.5327,0.4696,0.4194,0.296,0.037,-0.0,-0.0,-0.0,-0.0,-0.0,-0.0,-0.0,-0.0189,-0.0566,-0.0578,-0.0586,-0.0586,-0.0598,-0.0605,-0.0602,-0.0938,-0.2547,-0.5399,-0.4643,-0.4233,-0.4236,-0.4233,-0.4637,-0.5382,-0.5386,-0.5396,-0.5416,-0.6108,-0.6531,-0.6591,-0.5876,-0.5731,-0.5905,-0.5677,-0.5507,-0.53,-0.4512,-0.4242,-0.4254,-0.4206,-0.4242,-0.4368,-0.5132,-0.5383,-0.5416,-0.5416,-0.5399,-0.5379,-0.5369,-0.5379,-0.5326,-0.4906,-0.2409,-0.0,-0.0,-0.0,-0.0,-0.0,-0.0,-0.0,-0.0,-0.0,-0.0,-0.0,-0.0,-0.0,-0.0,-0.0,-0.0,-0.0,-0.0,-0.0,-0.0,-0.0,-0.0,-0.0,-0.0,-0.0,-0.0,-0.0,-0.0,-0.0,-0.0,-0.0,-0.0,-0.0,-0.0,-0.0,-0.0,-0.0,-0.0,-0.0,-0.0,0.9131,0.0,0.0,1.0017,0.0,1.0254,1.0222,1.0297,1.0005,0.8922,0.8125,0.7374,0.6745,0.6193,0.5546,0.4659,0.4622,0.4086,0.2422,0.0897,-0.0,-0.0,-0.0,-0.0,-0.0,-0.0,-0.0,-0.0,-0.0,-0.0,-0.0,-0.0,-0.0,-0.0,-0.0,-0.1731,-0.537,-0.5422,-0.5382,-0.5386,-0.5382,-0.5844,-0.6639,-0.5771,-0.5627,-0.6075,-0.6527,-0.6973,-0.7398,-0.6839,-0.621,-0.5593,-0.5467,-0.5396,-0.542,-0.542,-0.5373,-0.5389,-0.54,-0.5373,-0.5369,-0.5369,-0.5432,-0.5428,-0.5428,-0.5432,-0.5369,-0.5428,-0.5369,-0.5379,-0.5386,-0.4028,-0.2146,-0.0403,-0.0,-0.0,-0.0,-0.0,-0.0,-0.0,-0.0,-0.0,-0.0,-0.0,-0.0,-0.0,-0.0,-0.0,-0.0,-0.0,-0.0,-0.0,-0.0,-0.0,-0.0,-0.0,-0.0,-0.0,-0.0,-0.0,-0.0,-0.0,-0.0,-0.0,-0.0,-0.0,-0.0,-0.0,-0.0,-0.0,-0.0,-0.0,0.9381,0.0,1.0704,1.1086,1.1074,1.1015,1.1124,1.0618,1.0115,1.0012,0.911,0.8006,0.6918,0.6173,0.5415,0.465,0.4501,0.434,0.3772,0.155,-0.0,-0.0,-0.0,-0.0,-0.0,-0.0,-0.0,-0.0,-0.0,-0.0,-0.0,-0.0,-0.0253,-0.0741,-0.0902,-0.2351,-0.5357,-0.5401,-0.538,-0.5425,-0.5978,-0.6933,-0.8098,-0.6622,-0.6342,-0.6915,-0.7111,-0.7502,-0.8151,-0.8371,-0.7572,-0.6233,-0.5636,-0.5394,-0.5428,-0.5428,-0.5428,-0.5428,-0.5428,-0.5428,-0.5428,-0.5428,-0.5428,-0.5428,-0.5428,-0.5428,-0.5428,-0.5428,-0.5428,-0.5432,-0.5386,-0.5186,-0.4239,-0.1548,-0.0472,-0.0,-0.0,-0.0,-0.0,-0.0,-0.0,-0.0,-0.0,-0.0,-0.0,-0.0,-0.0,-0.0,-0.0,-0.0,-0.0,-0.0,-0.0,-0.0,-0.0,-0.0,-0.0,-0.0,-0.0,-0.0,-0.0,-0.0,-0.0,-0.0,-0.0,-0.0,-0.0,-0.0,-0.0,-0.0,-0.0,-0.0,0.8135,0.0,1.094,0.0,1.2138,1.1823,1.2461,1.2039,1.1366,1.0762,0.8633,0.6972,0.7225,0.5854,0.4653,0.4504,0.4511,0.3602,0.0953,0.0281,-0.0,-0.0,-0.0,-0.0,-0.0,-0.0,-0.0,-0.0,-0.0,-0.0,-0.0,-0.0,-0.1178,-0.384,-0.4426,-0.4937,-0.5417,-0.5423,-0.5409,-0.5441,-0.8448,-0.9458,-0.8668,-0.8468,-0.8182,-0.7897,-0.8619,-0.8865,-0.879,-0.9839,-1.0089,-0.9604,-0.6556,-0.5422,-0.5428,-0.5428,-0.5428,-0.5428,-0.5428,-0.5428,-0.5428,-0.5428,-0.5428,-0.5428,-0.5428,-0.5428,-0.5428,-0.5428,-0.5428,-0.5432,-0.5376,-0.4228,-0.3353,-0.4453,-0.229,-0.0,-0.0,-0.0,-0.0,-0.0,-0.0,-0.0,-0.0,-0.0,-0.0,-0.0,-0.0,-0.0,-0.0,-0.0,-0.0,-0.0,-0.0,-0.0,-0.0,-0.0,-0.0,-0.0,-0.0,-0.0,-0.0,-0.0,-0.0,-0.0,-0.0,-0.0,-0.0,-0.0,-0.0,-0.0,-0.0,-0.0,0.7809,0.9614,1.0813,0.0,1.2344,1.2393,1.2295,1.1724,1.1065,1.0364,0.8646,0.7187,0.6987,0.5167,0.3574,0.3249,0.2519,0.1511,0.0168,-0.0,0.0617,0.2301,0.1009,-0.0,-0.0,-0.0,-0.0,-0.0,-0.0,-0.0,-0.0,-0.1596,-0.3109,-0.4478,-0.474,-0.4891,-0.49,-0.4914,-0.5693,-0.735,-0.9083,-0.9781,-0.9493,-0.9531,-0.9265,-0.8748,-0.9139,-0.9484,-0.9841,-1.0374,-1.0581,-1.0223,-0.6745,-0.5404,-0.5428,-0.5428,-0.5428,-0.5428,-0.5428,-0.5428,-0.5428,-0.5428,-0.5428,-0.5428,-0.5428,-0.5428,-0.5428,-0.5428,-0.5428,-0.5432,-0.5376,-0.409,-0.3151,-0.4995,-0.2627,-0.0,-0.0,-0.0,-0.0,-0.0,-0.1616,-0.2357,-0.0337,-0.0,-0.0,-0.0,-0.0,-0.0,-0.0,-0.0,-0.0,-0.0,-0.0,-0.0,-0.0,-0.0,-0.0,-0.0,-0.0,-0.0,-0.0,-0.0,-0.0,-0.0,-0.0,-0.0,-0.0,-0.0,-0.0,-0.0,-0.0,0.1078,0.0,0.0,0.9892,1.1151,1.1791,1.203,1.1814,1.1166,1.0415,0.9917,0.8666,0.7509,0.6966,0.498,0.3226,0.2839,0.156,0.0559,0.0559,0.056,0.1399,0.3652,0.2298,0.084,0.0056,-0.0,-0.0,-0.0,-0.0,-0.0336,-0.1121,-0.328,-0.4512,-0.4507,-0.482,-0.4979,-0.483,-0.5343,-0.6719,-0.8967,-0.9272,-0.9604,-0.9946,-0.9967,-0.9823,-0.9468,-0.9599,-0.9996,-1.0581,-1.0591,-1.0053,-0.9009,-0.6392,-0.5429,-0.5428,-0.5428,-0.5428,-0.5428,-0.5428,-0.5335,-0.5311,-0.5415,-0.5335,-0.5311,-0.5415,-0.5428,-0.5428,-0.5428,-0.5428,-0.5432,-0.5376,-0.4428,-0.3489,-0.3904,-0.1951,-0.0,-0.0,-0.0,-0.0,-0.0,-0.2155,-0.3439,-0.1685,-0.0605,-0.0,-0.0,-0.0,-0.0,-0.0,-0.0,-0.0,-0.0,-0.0,-0.0,-0.0,-0.0,-0.0,-0.0,-0.0,-0.0,-0.0,-0.0,-0.0,-0.0,-0.0,-0.0,-0.0,-0.0,0.0472,0.1347,0.1347,0.2559,0.0,0.5831,0.0,0.9988,1.0204,1.0199,1.1499,1.0762,0.9865,0.9814,0.8666,0.767,0.767,0.5905,0.4433,0.4388,0.3116,0.2063,0.2063,0.2063,0.212,0.2287,0.3479,0.3144,0.0279,-0.0,-0.0,-0.0,-0.0,-0.1233,-0.4113,-0.4406,-0.4511,-0.4484,-0.5784,-0.628,-0.5845,-0.7643,-0.8818,-0.9395,-0.9376,-0.9495,-0.9713,-0.9706,-0.9784,-1.0014,-1.0368,-1.054,-1.0588,-1.0576,-0.867,-0.5679,-0.5456,-0.5431,-0.5428,-0.5428,-0.5428,-0.5428,-0.5428,-0.5267,-0.5165,-0.5315,-0.526,-0.5169,-0.5318,-0.5428,-0.5428,-0.5428,-0.5428,-0.5432,-0.5376,-0.5319,-0.4439,-0.1072,-0.0134,-0.0,-0.0,-0.0,-0.0,-0.0,-0.0135,-0.1281,-0.4549,-0.2296,-0.0,-0.0,-0.0,-0.0,-0.0,-0.0,-0.0,-0.0,-0.0,-0.0,-0.0,-0.0,-0.0,-0.0,-0.0,-0.0,-0.0,-0.0,-0.0,-0.0,-0.0,-0.0,-0.0,-0.0,0.1751,0.5138,0.5138,0.4311,0.1366,0.0,0.0,0.7158,0.8588,0.9627,0.9753,0.9784,0.9666,0.9263,0.8738,0.8427,0.8427,0.7009,0.5751,0.5471,0.4426,0.3663,0.3669,0.3685,0.3697,0.3697,0.4163,0.4054,0.2974,0.112,-0.0784,-0.2751,-0.2865,-0.2919,-0.3023,-0.3981,-0.4487,-0.448,-0.5407,-0.6213,-0.6843,-0.8174,-0.8891,-0.9029,-0.9025,-0.918,-0.9525,-0.9525,-0.9596,-0.9818,-1.0386,-1.058,-1.0629,-1.0601,-0.8342,-0.4859,-0.522,-0.5428,-0.5424,-0.5391,-0.5163,-0.4816,-0.4816,-0.4858,-0.4954,-0.5165,-0.5176,-0.5159,-0.5315,-0.5428,-0.5428,-0.5428,-0.5428,-0.5428,-0.5432,-0.5382,-0.4512,-0.0873,-0.0,-0.0,-0.0,-0.0,-0.0,-0.0,-0.0,-0.0403,-0.1687,-0.2765,-0.2695,-0.0337,-0.0,-0.0,-0.0,-0.0,-0.0,-0.0,-0.0,-0.0,-0.0,-0.0,-0.0,-0.0,-0.0,-0.101,-0.337,-0.1212,-0.0,-0.0,-0.0,-0.0,-0.0,-0.0,0.1885,0.5413,0.5413,0.5059,-0.0483,0.1342,0.3542,0.5061,0.6641,0.7964,0.8547,0.8867,0.8892,0.8514,0.8209,0.8156,0.8374,0.745,0.6583,0.6504,0.5579,0.482,0.4827,0.4632,0.4487,0.449,0.4042,0.3937,0.4455,0.1794,-0.1233,-0.4284,-0.4514,-0.4048,-0.3014,-0.3968,-0.4698,-0.5183,-0.5878,-0.6789,-0.7865,-0.8474,-0.8804,-0.8804,-0.8804,-0.8925,-0.92,-0.92,-0.9279,-0.9398,-0.9799,-1.0243,-1.0507,-0.9136,-0.6973,-0.4543,-0.4945,-0.5206,-0.5398,-0.5375,-0.5081,-0.4609,-0.4546,-0.4587,-0.4803,-0.4951,-0.4961,-0.5009,-0.5165,-0.5247,-0.5284,-0.5284,-0.5321,-0.5428,-0.5432,-0.5382,-0.4517,-0.0876,-0.0,-0.0,-0.0,-0.0,-0.0,-0.0,-0.0,-0.0,-0.0,-0.2021,-0.2762,-0.0337,-0.0,-0.0,-0.0,-0.0,-0.0,-0.0,-0.0,-0.0,-0.0,-0.0,-0.0,-0.0,-0.0,-0.1078,-0.3507,-0.2427,-0.1212,-0.0,-0.0,-0.0,-0.0,0.0996,0.2457,0.432,0.4944,0.524,0.0,0.0,0.0,0.3862,0.4441,0.5109,0.7878,0.7896,0.7373,0.7617,0.7122,0.6853,0.7503,0.7074,0.6858,0.7563,0.6465,0.5487,0.5487,0.4948,0.4522,0.4477,0.3183,0.2796,0.4228,0.1738,-0.1233,-0.4225,-0.4458,-0.4504,-0.448,-0.448,-0.5132,-0.6534,-0.7289,-0.7996,-0.8752,-0.8804,-0.8804,-0.8804,-0.8811,-0.8791,-0.8798,-0.8798,-0.8777,-0.8667,-0.8651,-0.9327,-1.0094,-0.6138,-0.4518,-0.4503,-0.451,-0.4845,-0.5354,-0.5358,-0.5168,-0.485,-0.4601,-0.4568,-0.4711,-0.48,-0.475,-0.4718,-0.4874,-0.5016,-0.5125,-0.5125,-0.5233,-0.5418,-0.5428,-0.5389,-0.4456,-0.0875,-0.0,-0.0,-0.0,-0.0,-0.0,-0.0,-0.0,-0.0,-0.0,-0.0,-0.0,-0.0,-0.0,-0.0,-0.0,-0.0,-0.0,-0.0,-0.0,-0.0,-0.0,-0.0,-0.0,-0.0,-0.0,-0.0,-0.0,-0.3383,-0.3655,-0.0202,-0.0067,0.0066,0.0129,0.3103,0.3747,0.2309,0.3996,0.4867,-0.2316,0.0,0.0,0.0,0.0,0.0,0.3565,0.4757,0.5713,0.6701,0.7032,0.7023,0.6484,0.681,0.7106,0.6918,0.6091,0.5487,0.5487,0.4901,0.448,0.449,0.4101,0.32,0.1401,0.0505,-0.0784,-0.2685,-0.3872,-0.449,-0.4522,-0.4522,-0.5014,-0.605,-0.6642,-0.7176,-0.7759,-0.8474,-0.8804,-0.8804,-0.8805,-0.8778,-0.8798,-0.879,-0.7643,-0.5701,-0.571,-0.5876,-0.6128,-0.4978,-0.4477,-0.4478,-0.4528,-0.4598,-0.4769,-0.4753,-0.4663,-0.4572,-0.4513,-0.4535,-0.4551,-0.4704,-0.4724,-0.4718,-0.4874,-0.4948,-0.4975,-0.4975,-0.5078,-0.5189,-0.5339,-0.5383,-0.45,-0.0854,-0.0,-0.0,-0.0,-0.0,-0.0,-0.0,-0.0,-0.0,-0.0,-0.0,-0.0,-0.0,-0.0,-0.0,-0.0,-0.0,-0.0,-0.0,-0.0,-0.0,-0.0,-0.0,-0.0,-0.0,-0.0,-0.0,-0.0,-0.0942,-0.2272,-0.3871,-0.1334,0.1064,0.3243,0.4084,0.429,0.3872,0.4574,0.486,-0.287,-0.2259,-0.1473,-0.0764,0.0,0.0,-0.0439,0.0927,0.2348,0.3565,0.4517,0.4951,0.4707,0.5492,0.585,0.4933,0.4948,0.5234,0.5614,0.4971,0.449,0.4501,0.4511,0.3317,0.028,-0.0,-0.0896,-0.3023,-0.399,-0.4494,-0.4525,-0.4791,-0.5167,-0.5714,-0.6317,-0.7036,-0.8003,-0.8504,-0.8778,-0.8778,-0.8817,-0.8189,-0.7025,-0.7003,-0.6109,-0.4488,-0.4488,-0.4498,-0.4519,-0.4519,-0.4519,-0.4525,-0.4502,-0.4478,-0.4488,-0.4516,-0.4493,-0.4478,-0.4478,-0.4478,-0.4532,-0.4565,-0.4596,-0.4613,-0.4701,-0.4772,-0.4823,-0.483,-0.5015,-0.5272,-0.5352,-0.4261,-0.2598,-0.0517,-0.0,-0.0,-0.0,-0.0,-0.0,-0.0,-0.0,-0.0,-0.0,-0.0,-0.0,-0.0,-0.0,-0.0,-0.0,-0.0,-0.0,-0.0,-0.0,-0.0,-0.0,-0.0,-0.0,-0.0,-0.0,-0.0,-0.0,-0.0,-0.0985,-0.3105,-0.1103,0.0897,0.2616,0.3856,0.4482,0.4519,0.4689,0.4741,-0.284,-0.2841,-0.2766,-0.271,-0.3135,0.0,-0.3601,-0.2759,-0.1679,-0.061,0.0414,0.1423,0.2286,0.3317,0.3511,0.2057,0.2903,0.4141,0.5352,0.493,0.4501,0.4511,0.4228,0.2921,0.028,-0.0,-0.1121,-0.3828,-0.4166,-0.433,-0.4484,-0.5069,-0.5382,-0.5378,-0.6036,-0.7003,-0.8304,-0.8479,-0.8479,-0.8298,-0.8304,-0.696,-0.4518,-0.4525,-0.4488,-0.4512,-0.4515,-0.4519,-0.4519,-0.4519,-0.4519,-0.4519,-0.4519,-0.4519,-0.4519,-0.4519,-0.4519,-0.4519,-0.4519,-0.4519,-0.4519,-0.4519,-0.4519,-0.4519,-0.4519,-0.4558,-0.467,-0.4742,-0.4998,-0.5197,-0.4867,-0.2398,-0.0,-0.0,-0.0,-0.0,-0.0,-0.0,-0.0,-0.0,-0.0,-0.0,-0.0,-0.0,-0.0,-0.0,-0.0,-0.0,-0.0,-0.0,-0.0,-0.0,-0.0337,-0.0606,-0.0606,-0.0202,-0.0,-0.0,-0.0,-0.0,-0.0,-0.0,-0.0,-0.0,-0.0,-0.0,-0.0,0.2717,0.4107,0.4268,0.4268,0.4268,-0.1642,-0.2506,-0.3304,-0.2817,-0.3137,0.0,-0.3621,-0.3435,-0.3166,-0.2947,-0.2863,-0.2372,-0.0683,0.032,0.059,-0.0328,-0.0718,-0.0,0.2561,0.3814,0.4511,0.4514,0.2357,0.0673,0.0056,-0.0,-0.0224,-0.0838,-0.1955,-0.3188,-0.4435,-0.4598,-0.4705,-0.4691,-0.4831,-0.5035,-0.5362,-0.6485,-0.647,-0.5329,-0.535,-0.507,-0.4494,-0.4488,-0.4494,-0.4477,-0.4505,-0.4519,-0.4519,-0.4519,-0.4519,-0.4519,-0.4519,-0.4519,-0.4519,-0.4519,-0.4519,-0.4519,-0.4519,-0.4519,-0.4519,-0.4519,-0.4519,-0.4519,-0.4519,-0.4546,-0.4524,-0.4545,-0.4606,-0.4095,-0.167,-0.0535,-0.0,-0.0,-0.0,-0.0,-0.0,-0.0,-0.0,-0.0,-0.0,-0.0,-0.0,-0.0,-0.0,-0.0,-0.0,-0.0,-0.0,-0.0,-0.0,-0.0,-0.2627,-0.4322,-0.4322,-0.1678,-0.0,-0.0,-0.0,-0.0,-0.0,-0.0,-0.0,-0.0,-0.0,-0.0,-0.0,0.0576,0.147,0.2625,0.2625,0.2625,-0.0656,-0.1231,-0.2006,-0.2912,-0.3385,0.0,0.0,-0.4866,-0.3862,-0.4733,-0.4755,-0.4307,-0.3262,-0.3002,-0.3103,-0.3732,-0.4167,-0.361,-0.1436,0.0835,0.224,0.224,0.0896,-0.0,-0.0,0.1347,0.1628,0.0112,-0.0669,-0.1448,-0.2235,-0.2963,-0.3355,-0.335,-0.4073,-0.4512,-0.4501,-0.5226,-0.5214,-0.4474,-0.4488,-0.4477,-0.4559,-0.5964,-0.5845,-0.4504,-0.4481,-0.4491,-0.4494,-0.4512,-0.4519,-0.4519,-0.4519,-0.4519,-0.4519,-0.4519,-0.4519,-0.4519,-0.4519,-0.4519,-0.4519,-0.4519,-0.4519,-0.4519,-0.4519,-0.3962,-0.3522,-0.4278,-0.3416,-0.189,-0.0394,-0.0,-0.0,-0.0,-0.0,-0.0,-0.0,-0.0,-0.0,-0.0,-0.0,-0.0,-0.0,-0.0,-0.0,-0.0,-0.0,-0.0,-0.0,-0.0,-0.0,-0.0,-0.1616,-0.3442,-0.5225,-0.3715,-0.1951,-0.0134,-0.0,-0.0,-0.0,-0.0,-0.0,-0.0,-0.0,-0.0,-0.0,-0.0,0.0391,0.1118,0.1118,0.1118,0.0129,-0.0,-0.0589,-0.2995,-0.3693,-0.4602,0.0,0.0,0.0,-0.6368,-0.6012,-0.5376,-0.5259,-0.5529,-0.5917,-0.6558,-0.6566,-0.613,-0.4985,-0.2528,-0.0664,-0.0056,-0.0,-0.0,-0.0,0.2757,0.3495,0.1064,0.0335,-0.0,-0.0,-0.1116,-0.1785,-0.1785,-0.3246,-0.4206,-0.448,-0.4525,-0.4519,-0.4508,-0.4505,-0.4484,-0.4616,-0.7503,-0.7546,-0.5317,-0.535,-0.5023,-0.4522,-0.4498,-0.4512,-0.4519,-0.4519,-0.4519,-0.4519,-0.4519,-0.4519,-0.4519,-0.4519,-0.4519,-0.4519,-0.4519,-0.4519,-0.4522,-0.4522,-0.363,-0.2796,-0.3429,-0.1906,-0.0,-0.0,-0.0,-0.0,-0.0,-0.0,-0.0,-0.0,-0.0,-0.0,-0.0,-0.0,-0.0,-0.0,-0.0,-0.0,-0.0,-0.0,-0.0,-0.0,-0.0,-0.0,-0.0,-0.0,-0.1203,-0.41,-0.4989,-0.4159,-0.1194,-0.0398,-0.0,-0.0,-0.0,-0.0,-0.0,-0.0,-0.0,-0.0,-0.0,-0.0,-0.0,-0.0,-0.0,0.0578,-0.0,-0.056,-0.3004,-0.3997,-0.491,-0.6791,0.0,-0.6956,-0.8171,0.0,-0.5881,-0.6094,0.0,0.0,-0.6648,-0.6473,-0.6211,-0.6014,-0.4867,-0.3004,-0.0334,-0.0,-0.0,-0.0,0.2753,0.434,0.3987,0.1507,-0.0,-0.0,-0.0168,-0.0224,-0.0223,-0.1673,-0.3128,-0.448,-0.4494,-0.4529,-0.4525,-0.4504,-0.4476,-0.4606,-0.7501,-0.8629,-0.8331,-0.8334,-0.6846,-0.4522,-0.4525,-0.4491,-0.4519,-0.4519,-0.4519,-0.4519,-0.4519,-0.4519,-0.4519,-0.4519,-0.4519,-0.4519,-0.4519,-0.4525,-0.448,-0.449,-0.4386,-0.3711,-0.1233,-0.028,-0.0,-0.0,-0.0,-0.0,-0.0,-0.0,-0.0,-0.0,-0.0,-0.0,-0.0,-0.0,-0.0,-0.0,-0.0,-0.0,-0.0,-0.0,-0.0,-0.0,-0.0,-0.0,-0.0,-0.0,-0.0194,-0.0582,-0.3575,-0.5236,-0.4843,-0.1747,-0.0,-0.0,-0.0,-0.0,-0.0,-0.0,-0.0,-0.0,-0.0,-0.0,-0.0,-0.0,-0.0,0.2373,0.1056,-0.0658,-0.345,-0.4055,-0.4497,-0.6541,-0.7006,-0.733,-0.8442,0.0,0.0,0.0,0.0,0.0,0.0,-0.7164,-0.6727,-0.6564,-0.5349,-0.3691,-0.1546,-0.0539,-0.0,-0.0,0.2711,0.4497,0.4504,0.3302,0.184,0.0112,-0.0,-0.0,-0.0,-0.2293,-0.4661,-0.6994,-0.5336,-0.5316,-0.7014,-0.7003,-0.702,-0.7026,-0.823,-0.8804,-0.8798,-0.8811,-0.8129,-0.6858,-0.5183,-0.4812,-0.5285,-0.4736,-0.4519,-0.4519,-0.4519,-0.4519,-0.4519,-0.4519,-0.4519,-0.4519,-0.4519,-0.4522,-0.4356,-0.3411,-0.319,-0.3081,-0.2693,-0.2639,-0.2411,-0.1509,-0.0615,-0.0,-0.0,-0.0,-0.0,-0.0,-0.0,-0.0,-0.0,-0.0,-0.0,-0.0,-0.0,-0.0,-0.0,-0.0,-0.0,-0.0,-0.0,-0.0,-0.0,-0.0,-0.0,-0.0,-0.1383,-0.2254,-0.2288,-0.085,-0.0,-0.0,-0.0,-0.0,-0.0,-0.0,-0.0,-0.0,-0.0,-0.0,-0.0,-0.0,-0.0,0.1813,0.0369,-0.155,-0.389,-0.4046,-0.4187,-0.6476,-0.7473,-0.8131,-0.8985,-0.9121,0.0,0.0,0.0,-0.8435,-0.8378,0.0,-0.7432,-0.6712,-0.5673,-0.4447,-0.299,-0.175,-0.106,-0.1198,0.1494,0.3607,0.444,0.4488,0.3545,0.1338,0.0447,-0.0,-0.0,-0.2903,-0.5499,-0.7592,-0.5541,-0.5573,-0.7614,-0.8419,-0.8805,-0.8825,-0.8825,-0.8798,-0.8811,-0.8805,-0.8366,-0.7461,-0.5621,-0.5144,-0.5449,-0.4791,-0.4519,-0.4519,-0.4519,-0.4519,-0.4519,-0.4519,-0.4519,-0.4522,-0.4522,-0.4525,-0.4307,-0.3186,-0.285,-0.291,-0.3198,-0.3884,-0.4225,-0.3137,-0.2014,-0.1007,-0.0224,-0.0,-0.0,-0.0,-0.0,-0.0,-0.0,-0.0,-0.0,-0.0,-0.0,-0.0,-0.0,-0.0733,-0.0962,-0.012,-0.0,-0.0,-0.0,-0.0,-0.0,-0.0,-0.0,-0.0,-0.0,-0.0,-0.0,-0.0,-0.0,-0.0,-0.0,-0.0,-0.0,-0.0,-0.0,-0.0,-0.0,-0.0,-0.0,-0.2746,-0.3404,-0.3642,-0.4329,-0.4047,-0.4176,-0.6459,-0.8667,-1.0209,-1.0246,-1.0171,-1.0077,-1.0072,-0.9928,-0.9547,-0.8658,-0.8701,0.0,0.0,-0.6174,-0.5738,-0.4581,-0.385,-0.3716,-0.4313,-0.1605,0.1379,0.4302,0.4495,0.4459,0.4359,0.1562,-0.0,-0.0,-0.292,-0.4525,-0.4653,-0.4528,-0.4562,-0.4652,-0.7469,-0.8776,-0.8811,-0.8811,-0.8811,-0.8804,-0.8811,-0.7233,-0.4707,-0.55,-0.5316,-0.4519,-0.4519,-0.4519,-0.4519,-0.4519,-0.4519,-0.4519,-0.4519,-0.4525,-0.448,-0.448,-0.4494,-0.4511,-0.4442,-0.4448,-0.3825,-0.095,-0.224,-0.4514,-0.4412,-0.4416,-0.3613,-0.0673,-0.0,-0.0,-0.0,-0.0,-0.0,-0.0,-0.0,-0.0,-0.0,-0.0,-0.0,-0.0,-0.248,-0.3327,-0.0394,-0.0,-0.0,-0.0,-0.0,-0.0,-0.0,-0.0,-0.0,-0.0,-0.0,-0.0,-0.0,-0.0,-0.0,-0.0,-0.0,-0.0,-0.0,-0.0,-0.0,-0.0,-0.0,-0.0,-0.3475,-0.3579,-0.4024,-0.5707,-0.5996,-0.6411,-0.8683,-0.9769,-1.0625,-1.1767,-1.1984,-1.1797,-1.1192,-1.082,-1.0552,-1.0538,-1.0057,-0.9013,0.0,-0.6738,-0.7145,-0.8199,-0.6886,-0.5332,-0.4055,-0.2983,-0.1718,-0.0053,0.1691,0.2788,0.2977,0.2987,0.1154,-0.2841,-0.5801,-0.7344,-0.7338,-0.5444,-0.5471,-0.7355,-0.8316,-0.8813,-0.8804,-0.8804,-0.8804,-0.8804,-0.8804,-0.8243,-0.7292,-0.6328,-0.5914,-0.5769,-0.4846,-0.4519,-0.4519,-0.4519,-0.4519,-0.4519,-0.4519,-0.4525,-0.448,-0.448,-0.3805,-0.3193,-0.4163,-0.4511,-0.4284,-0.3256,-0.2296,-0.1734,-0.2745,-0.3713,-0.4231,-0.3205,-0.1457,-0.0,-0.0,-0.0,-0.0,-0.0,-0.0,-0.0627,-0.2626,-0.2969,-0.2983,-0.2956,-0.2956,-0.297,-0.2977,-0.123,-0.0,-0.0,-0.0,-0.0,-0.0,-0.0,-0.0,-0.0,-0.0,-0.0,-0.0,-0.0,-0.0,-0.0,-0.0,-0.0,-0.0,-0.0,-0.0,-0.0,-0.0,-0.0,-0.4928,-0.4799,-0.5144,-0.6623,-0.7609,-0.8527,-0.9967,-1.0284,-1.0794,-1.2542,-1.292,-1.2726,-1.2188,-1.1795,-1.1727,-1.2031,-1.0937,-0.9317,0.0,-0.7665,-0.8705,-1.0127,-0.9055,-0.7289,-0.5035,-0.4061,-0.336,-0.2722,-0.1279,0.0569,0.2902,0.0962,-0.2023,-0.5905,-0.7821,-0.8591,-0.8156,-0.633,-0.6345,-0.8161,-0.8574,-0.8799,-0.8786,-0.8809,-0.8806,-0.8826,-0.8826,-0.8613,-0.8196,-0.6725,-0.619,-0.6095,-0.4952,-0.4519,-0.4519,-0.4519,-0.4519,-0.4519,-0.4519,-0.4525,-0.4421,-0.3858,-0.2679,-0.1618,-0.2577,-0.2916,-0.3142,-0.4225,-0.3086,-0.1566,-0.1453,-0.2127,-0.2921,-0.2921,-0.1401,-0.0,-0.0,-0.0,-0.0,-0.0,-0.0841,-0.2244,-0.4169,-0.4507,-0.4478,-0.4521,-0.364,-0.336,-0.4396,-0.2805,-0.1175,-0.0112,-0.0,-0.0,-0.0,-0.0,-0.0,-0.0,-0.0,-0.0,-0.0,-0.0,-0.0,-0.0,-0.0,-0.0,-0.0,-0.0,-0.0,-0.0,-0.0,-0.0]},{"header":{"parameterUnit":"m.s-1","parameterCategory":1,"la1":30.6,"la2":29.2853,"lo1":-89.7004,"lo2":-87.6739,"dy":0.0162,"dx":0.0183,"nx":112,"ny":82,"refTime":"2024-07-04T12:00:00:Z","depth":0,"parameterNumber":3,"parameterNumberName":"V-component_of_WINDS"},"data":[0.0,0.0,0.0,0.0,0.0,0.0,0.0,0.0,0.0,0.0,0.0,0.0,0.0,0.0,0.0,0.0,0.0,0.0,0.0,0.0,0.0,0.0,0.0,0.0,0.0,0.0,0.0,0.0,0.0,0.0,0.0,0.0,0.0,0.0,0.0,0.0,0.0,0.0,0.0,0.0,0.0,0.0,0.0,0.0,0.0,0.0,0.0,0.0,0.0,0.0,0.0,0.0,0.0,0.0,0.0,0.0,0.0,0.0,0.0,0.0,0.0,0.0,0.0,0.0,0.0,0.0,0.0,0.0,0.0,0.0,0.0,0.0,0.0,0.0,0.0,0.0,0.0,0.0,0.0,0.0,0.0,0.0,0.0,0.0,0.0,0.0,0.0,0.0,0.0,0.0,-2.4424,-2.5495,-2.5644,-2.5679,-2.5673,-2.5571,-2.5453,-2.539,0.0,0.0,0.0,0.0,0.0,0.0,0.0,0.0,0.0,0.0,0.0,0.0,0.0,0.0,0.0,0.0,0.0,0.0,0.0,0.0,0.0,0.0,0.0,0.0,0.0,0.0,0.0,0.0,0.0,0.0,0.0,0.0,0.0,0.0,0.0,0.0,0.0,0.0,0.0,0.0,0.0,0.0,0.0,0.0,0.0,0.0,0.0,0.0,0.0,0.0,0.0,0.0,0.0,0.0,0.0,0.0,0.0,0.0,0.0,0.0,0.0,0.0,0.0,0.0,0.0,0.0,0.0,0.0,0.0,0.0,0.0,0.0,0.0,0.0,0.0,0.0,0.0,0.0,0.0,0.0,0.0,0.0,0.0,0.0,0.0,0.0,0.0,0.0,0.0,0.0,0.0,0.0,0.0,0.0,0.0,0.0,0.0,0.0,0.0,0.0,0.0,0.0,0.0,0.0,-2.3805,-2.5438,-2.5609,-2.5599,-2.5542,-2.5456,-2.5119,-2.4456,0.0,0.0,0.0,0.0,0.0,0.0,0.0,0.0,0.0,0.0,0.0,0.0,0.0,0.0,0.0,0.0,0.0,0.0,0.0,0.0,0.0,0.0,0.0,0.0,0.0,0.0,0.0,0.0,0.0,0.0,0.0,0.0,0.0,0.0,0.0,0.0,0.0,0.0,0.0,0.0,0.0,0.0,0.0,0.0,0.0,0.0,0.0,0.0,0.0,0.0,0.0,0.0,0.0,0.0,0.0,0.0,0.0,0.0,0.0,0.0,0.0,0.0,0.0,0.0,0.0,0.0,0.0,0.0,0.0,0.0,0.0,0.0,0.0,0.0,0.0,0.0,0.0,0.0,0.0,0.0,0.0,0.0,0.0,0.0,0.0,0.0,0.0,0.0,0.0,0.0,0.0,0.0,0.0,0.0,0.0,0.0,0.0,0.0,0.0,0.0,0.0,0.0,0.0,-2.3644,-2.4185,-2.5408,-2.555,-2.5533,-2.5499,-2.5436,-2.5236,-2.487,-2.3562,0.0,0.0,0.0,0.0,0.0,0.0,0.0,0.0,0.0,0.0,0.0,0.0,0.0,0.0,0.0,0.0,0.0,0.0,0.0,0.0,0.0,0.0,0.0,0.0,0.0,0.0,0.0,0.0,0.0,0.0,0.0,0.0,0.0,0.0,0.0,0.0,0.0,0.0,0.0,0.0,0.0,0.0,0.0,0.0,0.0,0.0,0.0,0.0,0.0,0.0,0.0,0.0,0.0,0.0,0.0,0.0,0.0,0.0,0.0,0.0,0.0,0.0,0.0,0.0,0.0,0.0,0.0,0.0,0.0,0.0,0.0,0.0,0.0,0.0,0.0,0.0,0.0,0.0,0.0,0.0,0.0,0.0,0.0,0.0,0.0,0.0,0.0,0.0,0.0,0.0,0.0,0.0,0.0,0.0,0.0,0.0,0.0,0.0,0.0,0.0,0.0,0.0,-2.4273,-2.4787,-2.542,-2.5479,-2.5466,-2.5447,-2.5236,-2.5005,-2.4793,-2.3331,0.0,0.0,0.0,0.0,0.0,0.0,0.0,0.0,0.0,0.0,0.0,0.0,0.0,0.0,0.0,0.0,0.0,0.0,0.0,0.0,0.0,0.0,0.0,0.0,0.0,0.0,0.0,0.0,0.0,0.0,0.0,0.0,0.0,0.0,0.0,0.0,0.0,0.0,0.0,0.0,0.0,0.0,0.0,0.0,0.0,0.0,0.0,0.0,0.0,0.0,0.0,0.0,0.0,0.0,0.0,0.0,0.0,0.0,0.0,0.0,0.0,0.0,0.0,0.0,0.0,0.0,0.0,0.0,0.0,0.0,0.0,0.0,0.0,0.0,0.0,0.0,0.0,0.0,0.0,0.0,0.0,0.0,0.0,0.0,0.0,0.0,0.0,0.0,0.0,0.0,0.0,0.0,0.0,0.0,0.0,0.0,0.0,0.0,0.0,0.0,0.0,0.0,-2.435,-2.5332,-2.539,-2.5418,-2.539,-2.5322,-2.462,-2.386,-2.3024,-2.21,0.0,0.0,0.0,0.0,0.0,0.0,0.0,0.0,0.0,0.0,0.0,0.0,0.0,0.0,0.0,0.0,0.0,0.0,0.0,0.0,0.0,0.0,0.0,0.0,0.0,0.0,0.0,0.0,0.0,0.0,0.0,0.0,0.0,0.0,0.0,0.0,0.0,0.0,0.0,0.0,0.0,0.0,0.0,0.0,0.0,0.0,0.0,0.0,0.0,0.0,0.0,0.0,0.0,0.0,0.0,0.0,0.0,0.0,0.0,0.0,0.0,0.0,0.0,0.0,0.0,0.0,0.0,0.0,0.0,0.0,0.0,0.0,0.0,0.0,0.0,0.0,0.0,0.0,0.0,0.0,0.0,0.0,0.0,0.0,0.0,0.0,0.0,0.0,0.0,0.0,0.0,0.0,0.0,0.0,0.0,0.0,0.0,0.0,0.0,0.0,0.0,0.0,-2.386,-2.4774,-2.5284,-2.5341,-2.5322,-2.5303,-2.5024,-2.4485,-2.3667,0.0,0.0,0.0,0.0,0.0,0.0,0.0,0.0,0.0,0.0,0.0,0.0,0.0,0.0,0.0,0.0,0.0,0.0,0.0,0.0,0.0,0.0,0.0,0.0,0.0,0.0,0.0,0.0,0.0,0.0,0.0,0.0,0.0,0.0,0.0,0.0,0.0,0.0,0.0,0.0,0.0,0.0,0.0,0.0,0.0,0.0,0.0,0.0,0.0,0.0,0.0,0.0,0.0,0.0,0.0,0.0,0.0,0.0,0.0,0.0,0.0,0.0,0.0,0.0,0.0,0.0,0.0,0.0,0.0,0.0,0.0,0.0,0.0,0.0,0.0,0.0,0.0,0.0,0.0,0.0,0.0,0.0,0.0,0.0,0.0,0.0,0.0,0.0,0.0,0.0,0.0,0.0,0.0,0.0,0.0,0.0,0.0,0.0,0.0,0.0,0.0,0.0,-2.2716,-2.3774,-2.4697,-2.5245,-2.5303,-2.5303,-2.5303,-2.5101,-2.4601,-2.3774,0.0,0.0,0.0,0.0,0.0,0.0,0.0,0.0,0.0,0.0,0.0,0.0,0.0,0.0,0.0,0.0,0.0,0.0,0.0,0.0,0.0,0.0,0.0,0.0,0.0,0.0,0.0,0.0,0.0,0.0,0.0,0.0,0.0,0.0,0.0,0.0,0.0,0.0,0.0,0.0,0.0,0.0,0.0,0.0,0.0,0.0,0.0,0.0,0.0,0.0,0.0,0.0,0.0,0.0,0.0,0.0,0.0,0.0,0.0,0.0,0.0,0.0,0.0,0.0,0.0,0.0,0.0,0.0,0.0,0.0,0.0,0.0,0.0,0.0,0.0,0.0,0.0,0.0,0.0,0.0,0.0,0.0,0.0,0.0,0.0,0.0,0.0,0.0,0.0,0.0,0.0,0.0,0.0,0.0,0.0,0.0,0.0,0.0,0.0,0.0,0.0,0.0,-2.2793,-2.4255,-2.5303,-2.5303,-2.5303,-2.5303,-2.5303,-2.462,-2.3832,0.0,0.0,0.0,0.0,0.0,0.0,0.0,0.0,0.0,0.0,0.0,0.0,0.0,0.0,0.0,0.0,0.0,0.0,0.0,0.0,0.0,0.0,0.0,0.0,0.0,0.0,0.0,0.0,0.0,0.0,0.0,0.0,0.0,0.0,0.0,0.0,0.0,0.0,0.0,0.0,0.0,0.0,0.0,0.0,0.0,0.0,0.0,0.0,0.0,0.0,0.0,0.0,0.0,0.0,0.0,0.0,0.0,0.0,0.0,0.0,0.0,0.0,0.0,0.0,0.0,0.0,0.0,0.0,0.0,0.0,0.0,0.0,0.0,0.0,0.0,0.0,0.0,0.0,0.0,0.0,0.0,0.0,0.0,0.0,0.0,0.0,0.0,0.0,0.0,0.0,0.0,0.0,0.0,0.0,0.0,0.0,0.0,0.0,0.0,0.0,0.0,0.0,0.0,-2.2716,-2.4255,-2.5322,-2.537,-2.537,-2.539,-2.5447,-2.5236,-2.451,-2.3063,0.0,0.0,0.0,0.0,0.0,0.0,0.0,0.0,0.0,0.0,0.0,0.0,0.0,0.0,0.0,0.0,0.0,0.0,0.0,0.0,0.0,0.0,0.0,0.0,0.0,0.0,0.0,0.0,0.0,0.0,0.0,0.0,0.0,0.0,0.0,0.0,0.0,0.0,0.0,0.0,0.0,0.0,0.0,0.0,0.0,0.0,0.0,0.0,0.0,0.0,0.0,0.0,0.0,0.0,0.0,0.0,0.0,0.0,0.0,0.0,0.0,0.0,0.0,0.0,0.0,0.0,0.0,0.0,0.0,0.0,0.0,0.0,0.0,0.0,0.0,0.0,0.0,0.0,0.0,0.0,0.0,0.0,0.0,0.0,0.0,0.0,0.0,0.0,0.0,0.0,0.0,0.0,0.0,0.0,0.0,0.0,0.0,0.0,0.0,0.0,0.0,0.0,-2.2763,-2.4332,-2.5409,-2.5447,-2.5434,-2.5444,-2.5459,-2.5485,-2.4773,-2.3075,0.0,0.0,0.0,0.0,0.0,0.0,0.0,0.0,0.0,0.0,0.0,0.0,0.0,0.0,0.0,0.0,0.0,0.0,0.0,0.0,0.0,0.0,0.0,0.0,0.0,0.0,0.0,0.0,0.0,0.0,0.0,0.0,0.0,0.0,0.0,0.0,0.0,0.0,0.0,0.0,0.0,0.0,0.0,0.0,0.0,0.0,0.0,0.0,0.0,0.0,0.0,0.0,0.0,0.0,0.0,0.0,0.0,0.0,0.0,0.0,0.0,0.0,0.0,0.0,0.0,0.0,0.0,0.0,0.0,0.0,0.0,0.0,0.0,0.0,0.0,0.0,0.0,0.0,0.0,0.0,0.0,0.0,0.0,0.0,0.0,0.0,0.0,0.0,0.0,0.0,0.0,0.0,0.0,0.0,0.0,0.0,0.0,0.0,0.0,0.0,0.0,0.0,-2.3006,-2.4473,-2.5495,-2.5493,-2.5499,-2.5469,-2.541,-2.5467,-2.4783,-2.3124,0.0,0.0,0.0,0.0,0.0,0.0,0.0,0.0,0.0,0.0,0.0,0.0,0.0,0.0,0.0,0.0,0.0,0.0,0.0,0.0,0.0,0.0,0.0,0.0,0.0,0.0,0.0,0.0,0.0,0.0,0.0,0.0,0.0,0.0,0.0,0.0,0.0,0.0,0.0,0.0,0.0,0.0,0.0,0.0,0.0,0.0,0.0,0.0,0.0,0.0,0.0,0.0,0.0,0.0,0.0,0.0,0.0,0.0,0.0,0.0,-2.3108,-2.2952,0.0,0.0,0.0,0.0,0.0,0.0,0.0,0.0,0.0,0.0,0.0,0.0,0.0,0.0,0.0,0.0,0.0,0.0,0.0,0.0,0.0,0.0,0.0,0.0,0.0,0.0,0.0,0.0,0.0,0.0,0.0,0.0,0.0,0.0,0.0,0.0,0.0,0.0,0.0,0.0,-2.3811,-2.4874,-2.5508,-2.5505,-2.5492,-2.5488,-2.5489,-2.5486,-2.5047,-2.3987,-2.2546,0.0,0.0,0.0,0.0,0.0,0.0,0.0,0.0,0.0,0.0,0.0,0.0,0.0,0.0,0.0,0.0,0.0,0.0,0.0,0.0,0.0,0.0,0.0,0.0,0.0,0.0,0.0,0.0,0.0,0.0,0.0,0.0,0.0,0.0,0.0,0.0,0.0,0.0,0.0,0.0,0.0,0.0,0.0,0.0,0.0,0.0,0.0,0.0,0.0,0.0,0.0,0.0,0.0,0.0,0.0,0.0,0.0,0.0,0.0,-2.3842,-2.3915,0.0,0.0,0.0,0.0,0.0,0.0,0.0,0.0,0.0,0.0,0.0,0.0,0.0,0.0,0.0,0.0,0.0,0.0,0.0,0.0,0.0,0.0,0.0,0.0,0.0,0.0,0.0,0.0,0.0,0.0,0.0,0.0,0.0,0.0,0.0,0.0,0.0,0.0,0.0,0.0,-2.4119,-2.4997,-2.5494,-2.5508,-2.5508,-2.5496,-2.5453,-2.5444,-2.5091,-2.4216,-2.2997,0.0,0.0,0.0,0.0,0.0,0.0,0.0,0.0,0.0,0.0,0.0,0.0,0.0,0.0,0.0,0.0,0.0,0.0,0.0,0.0,0.0,0.0,0.0,0.0,0.0,0.0,0.0,0.0,0.0,0.0,0.0,0.0,0.0,0.0,0.0,0.0,0.0,0.0,0.0,0.0,0.0,0.0,0.0,0.0,0.0,0.0,0.0,0.0,0.0,0.0,0.0,0.0,0.0,-2.387,-2.387,-2.3909,-2.463,-2.4957,-2.4962,-2.4978,-2.5223,-2.5545,-2.4889,0.0,0.0,0.0,0.0,0.0,0.0,0.0,0.0,0.0,0.0,0.0,0.0,0.0,0.0,0.0,0.0,0.0,0.0,0.0,0.0,0.0,0.0,-2.4524,-2.4535,-2.4549,-2.4355,-2.3637,0.0,0.0,0.0,0.0,0.0,0.0,0.0,0.0,0.0,0.0,0.0,-2.4412,-2.5094,-2.5496,-2.5476,-2.5486,-2.5466,-2.539,-2.539,-2.5091,-2.437,-2.3621,-2.2566,0.0,0.0,0.0,0.0,0.0,0.0,0.0,0.0,0.0,0.0,0.0,0.0,0.0,0.0,0.0,0.0,0.0,0.0,0.0,0.0,0.0,0.0,0.0,0.0,0.0,0.0,0.0,0.0,0.0,0.0,0.0,0.0,-2.0703,-2.2402,0.0,0.0,0.0,0.0,0.0,0.0,0.0,0.0,0.0,0.0,0.0,0.0,0.0,-2.5948,-2.7316,-2.7351,-2.7311,-2.7245,-2.7313,-2.7343,-2.7343,-2.7508,-2.7597,-2.7599,-2.7648,0.0,-2.5593,-2.5495,0.0,0.0,0.0,0.0,0.0,0.0,0.0,0.0,0.0,0.0,0.0,0.0,0.0,0.0,0.0,0.0,0.0,0.0,0.0,0.0,0.0,0.0,-2.5434,-2.543,-2.5468,-2.5489,-2.5381,-2.4167,-2.3087,-2.3091,-2.3123,-2.3084,0.0,0.0,0.0,0.0,0.0,0.0,-2.5318,-2.5476,-2.5481,-2.5423,-2.5408,-2.539,-2.5322,-2.5303,-2.5284,-2.5226,-2.4476,-2.3948,-2.3717,-2.2328,0.0,0.0,0.0,0.0,0.0,0.0,0.0,0.0,0.0,0.0,0.0,0.0,0.0,0.0,0.0,0.0,0.0,0.0,0.0,0.0,0.0,0.0,0.0,0.0,0.0,0.0,0.0,0.0,0.0,-2.0371,-2.2285,-2.3008,-2.3535,-2.3652,0.0,0.0,0.0,0.0,0.0,0.0,0.0,0.0,0.0,-2.6886,-2.6877,-2.7196,-2.7937,-2.7986,-2.7997,-2.7958,-2.8016,-2.8068,-2.8058,-2.8134,-2.8153,-2.816,-2.8222,-2.7818,-2.7112,-2.7123,-2.7117,-2.7125,0.0,0.0,0.0,0.0,-2.6582,-2.6543,-2.6152,-2.5996,-2.5853,-2.5226,0.0,0.0,0.0,0.0,0.0,0.0,0.0,-2.6507,-2.6542,-2.6837,-2.7129,-2.711,-2.7134,-2.7151,-2.7151,-2.6521,-2.5685,-2.4748,-2.458,-2.4434,-2.3926,-2.3828,0.0,0.0,0.0,-2.4605,-2.5493,-2.5543,-2.5466,-2.5409,-2.5409,-2.537,-2.5303,-2.5322,-2.5341,-2.5341,-2.5085,-2.4685,-2.4179,-2.3478,-2.273,0.0,0.0,0.0,0.0,0.0,0.0,0.0,0.0,0.0,0.0,0.0,0.0,0.0,0.0,0.0,0.0,0.0,0.0,0.0,0.0,0.0,0.0,0.0,0.0,0.0,0.0,0.0,0.0,-2.1973,-2.3516,-2.373,-2.4336,-2.4567,0.0,0.0,0.0,0.0,0.0,0.0,-2.6145,-2.7319,-2.806,-2.8272,-2.8255,-2.8332,-2.8563,-2.8632,-2.8674,-2.8666,-2.8722,-2.8782,-2.8767,-2.8844,-2.8899,-2.8898,-2.8946,-2.8965,-2.8929,-2.8481,-2.8301,-2.8301,-2.8301,-2.8295,-2.8268,-2.8268,-2.8259,-2.8234,-2.8195,-2.8164,-2.7993,-2.6839,-2.6506,-2.6262,-2.4756,0.0,0.0,0.0,0.0,-2.8195,-2.8234,-2.8254,-2.8254,-2.8254,-2.8254,-2.8254,-2.8254,-2.8203,-2.781,-2.6594,-2.6348,-2.6133,-2.5508,-2.5391,0.0,-2.5391,-2.5332,-2.5455,-2.5855,-2.5858,-2.5723,-2.5425,-2.5425,-2.5409,-2.537,-2.5409,-2.5398,-2.536,-2.5444,-2.5169,-2.4386,-2.4443,-2.4091,-2.3237,0.0,0.0,0.0,0.0,0.0,0.0,0.0,0.0,0.0,0.0,0.0,0.0,0.0,0.0,0.0,0.0,0.0,0.0,0.0,0.0,0.0,0.0,0.0,0.0,0.0,0.0,0.0,0.0,0.0,-2.5469,-2.5605,0.0,0.0,0.0,0.0,-2.7794,-2.7871,-2.7868,-2.7876,-2.7898,-2.8255,-2.9025,-2.9113,-2.9525,-3.0371,-3.0448,-3.0472,-3.0477,-3.054,-3.0575,-3.0571,-3.0693,-3.0767,-3.0772,-3.0765,-3.0761,-3.0644,-2.8984,-2.8301,-2.8301,-2.8301,-2.8262,-2.8214,-2.8214,-2.8171,-2.8104,-2.8104,-2.811,-2.8212,-2.8879,-2.9099,-2.8941,-2.8106,-2.7909,0.0,0.0,-2.8111,-2.8104,-2.8104,-2.8104,-2.8104,-2.8104,-2.8104,-2.8104,-2.8104,-2.8112,-2.8111,-2.8162,-2.8125,-2.8086,-2.8105,0.0,-2.8105,-2.8105,-2.8047,-2.7695,-2.6854,-2.6737,-2.6386,-2.5507,-2.5453,-2.5486,-2.5486,-2.5486,-2.549,-2.5485,-2.549,-2.5361,-2.5072,-2.5245,-2.487,-2.388,-2.2334,0.0,0.0,0.0,0.0,0.0,0.0,0.0,0.0,0.0,0.0,0.0,0.0,0.0,0.0,0.0,0.0,0.0,0.0,0.0,0.0,0.0,0.0,0.0,0.0,0.0,0.0,0.0,0.0,-2.6299,-2.6895,0.0,-2.7648,-2.7624,-2.7731,-2.8003,-2.8456,-2.8967,-2.9586,-3.0125,-3.0829,-3.1707,-3.1214,-3.1079,-3.141,-3.0914,-3.0659,-3.0675,-3.0775,-3.0837,-3.0821,-3.0873,-3.0892,-3.0898,-3.0895,-3.0898,-3.0859,-3.015,-2.9907,-2.996,-2.9872,-3.0173,-3.0561,-2.9958,-3.0081,-3.0482,-2.9902,-2.9709,-2.9651,-2.939,-2.8917,-2.8512,-2.8747,-2.8791,-2.8868,-2.9471,-2.9627,-2.9651,-2.9709,-2.9709,-2.9709,-2.9709,-2.9709,-2.9709,-2.9709,-2.967,-2.9679,-2.9765,-2.8883,-2.8144,-2.8164,-2.8164,-2.8164,-2.8164,-2.8144,-2.8008,-2.7676,-2.7644,-2.724,-2.6151,-2.6056,-2.5811,-2.5106,-2.5047,-2.5052,-2.5058,-2.5053,-2.5008,-2.4898,-2.4976,-2.4851,-2.4492,-2.3529,-2.2334,0.0,0.0,0.0,0.0,0.0,0.0,0.0,0.0,0.0,0.0,0.0,0.0,0.0,0.0,0.0,0.0,0.0,0.0,0.0,0.0,0.0,0.0,0.0,0.0,0.0,-2.5119,-2.632,-2.7144,-2.7757,-2.821,-2.8443,-2.8425,-2.851,-2.8791,-2.9563,-3.0279,-3.0918,-3.1795,-3.2561,-3.3171,-3.2651,-3.2375,-3.2377,-3.1872,-3.1612,-3.162,-3.1424,-3.1348,-3.1328,-3.1035,-3.0898,-3.0898,-3.0852,-3.0992,-3.1266,-3.1155,-3.1321,-3.1646,-3.1261,-3.1438,-3.1891,-3.1539,-3.1756,-3.2146,-3.1583,-3.1198,-3.0929,-3.0617,-3.0117,-2.9752,-3.029,-3.0417,-3.0506,-3.1141,-3.1121,-3.0929,-3.0968,-3.0756,-3.0525,-3.0525,-3.0525,-3.0525,-3.0525,-3.0506,-3.0583,-3.091,-2.9858,-2.8926,-2.8946,-2.8946,-2.8946,-2.8946,-2.8946,-2.8829,-2.8517,-2.8431,-2.7931,-2.6738,-2.6207,-2.5648,-2.4962,-2.4549,-2.4368,-2.4491,-2.4607,-2.4618,-2.4523,-2.4691,-2.4761,-2.4687,-2.4049,-2.2871,-2.1197,0.0,0.0,0.0,0.0,0.0,0.0,0.0,0.0,0.0,0.0,0.0,0.0,0.0,0.0,0.0,0.0,0.0,0.0,0.0,0.0,0.0,0.0,0.0,-2.549,-2.6302,-2.7182,-2.8023,-2.8157,-2.8456,-2.9171,-2.9248,-2.9605,-3.0379,-3.1318,-3.185,-3.1888,-3.2757,-3.3264,-3.3295,-3.3316,-3.3346,-3.3346,-3.3372,-3.3398,-3.3398,-3.2617,-3.2246,-3.2206,-3.1366,-3.0976,-3.0956,-3.0823,-3.1258,-3.2031,-3.1949,-3.2425,-3.3121,-3.2266,-3.1912,-3.1975,-3.2731,-3.2955,-3.2891,-3.2891,-3.2391,-3.1872,-3.2641,-3.2891,-3.2891,-3.2891,-3.2891,-3.2891,-3.2891,-3.2333,-3.1737,-3.1737,-3.1102,-3.0436,-3.0436,-3.0436,-3.0436,-3.0436,-3.0456,-3.0737,-3.1564,-3.1121,-3.0602,-3.0621,-3.0621,-3.0621,-3.0602,-3.0583,0.0,-2.9356,-2.9113,-2.8533,-2.7178,-2.5843,-2.5073,-2.5054,-2.4039,-2.3543,-2.3838,-2.4188,-2.4262,-2.3985,-2.4465,-2.4655,-2.4468,-2.3806,-2.2695,-2.1069,0.0,0.0,0.0,0.0,0.0,0.0,0.0,0.0,0.0,0.0,0.0,0.0,0.0,0.0,0.0,0.0,0.0,0.0,0.0,0.0,0.0,-2.5096,-2.5874,-2.5934,-2.7305,-2.8384,-2.8586,-2.9295,-2.9848,-3.0052,-3.0679,-3.1172,-3.1395,-3.2285,-3.3118,-3.3786,-3.4077,-3.4532,-3.5205,-3.4647,-3.4323,-3.4323,-3.3707,-3.3398,-3.3398,-3.3184,-3.3048,-3.2987,-3.2745,-3.2602,-3.2577,-3.2531,-3.2648,-3.2859,-3.274,-3.2844,-3.3032,-3.2779,-3.3063,-3.3563,-3.3109,-3.2929,-3.2891,-3.2891,-3.2756,-3.2602,-3.2833,-3.2891,-3.2891,-3.2891,-3.2891,-3.2891,-3.2891,-3.2737,-3.2564,-3.2564,-3.1968,-3.1352,-3.1352,-3.1352,-3.1352,-3.1352,-3.1795,-3.2275,-3.2526,-3.2391,-3.2064,-3.1492,-3.1395,-3.1172,-3.0544,-3.0448,-3.0359,-3.011,-3.004,-2.9412,-2.7809,-2.702,-2.5919,-2.4236,-2.376,-2.3371,-2.298,-2.3319,-2.3506,-2.3413,-2.357,-2.3664,-2.3779,-2.3198,-2.2761,0.0,0.0,0.0,0.0,0.0,0.0,0.0,0.0,0.0,0.0,0.0,0.0,0.0,0.0,0.0,0.0,0.0,0.0,0.0,0.0,0.0,0.0,-2.6226,-2.6934,-2.6934,-2.8051,-2.8969,-2.9275,-3.0273,-3.0968,-3.0979,-3.1819,-3.2359,-3.2387,-3.3263,-3.4029,-3.4562,-3.4969,-3.5441,-3.5976,-3.5508,-3.5234,-3.5234,-3.4702,-3.445,-3.4431,-3.4059,-3.3846,-3.3796,-3.341,-3.3236,-3.32,-3.3132,-3.3321,-3.3647,-3.3551,-3.3724,-3.3999,0.0,0.0,0.0,0.0,-3.3757,-3.3506,-3.3853,-3.3757,-3.3506,-3.3872,-3.3987,-3.3987,-3.3987,-3.3987,-3.3987,-3.3987,-3.3724,-3.3436,-3.3449,-3.2833,-3.2199,-3.2199,-3.2199,-3.2199,-3.2199,-3.2564,-3.3006,-3.3372,-3.343,0.0,-3.2833,-3.2435,-3.1927,-3.1076,-3.0941,-3.0814,-3.0448,-3.0302,-2.9754,-2.8537,-2.7502,-2.633,-2.4869,-2.3817,0.0,0.0,0.0,-2.3041,-2.3179,-2.3203,0.0,0.0,0.0,0.0,0.0,-2.2812,0.0,0.0,-2.2837,-2.3333,0.0,0.0,0.0,0.0,0.0,0.0,0.0,0.0,0.0,0.0,0.0,0.0,0.0,0.0,0.0,0.0,-2.7206,-2.8184,-2.8278,-2.8647,-2.9251,-3.0037,-3.1078,-3.1768,-3.1927,-3.2755,-3.3293,-3.3349,-3.4225,-3.4767,-3.4767,-3.5545,0.0,0.0,0.0,-3.5995,-3.5989,-3.5941,-3.5892,-3.5867,-3.502,-3.4629,-3.4602,-3.3824,-3.3478,-3.3459,-3.3333,-3.373,-3.4428,-3.4359,-3.4795,-3.543,-3.4641,-3.4353,-3.443,-3.5218,-3.5007,-3.4449,-3.5238,0.0,0.0,-3.5257,-3.5493,-3.5493,-3.5493,-3.5493,-3.5493,-3.5493,-3.4941,-3.4351,-3.4353,-3.3699,-3.3045,-3.3045,-3.3045,-3.3045,-3.3045,-3.3122,-3.341,-3.4199,-3.4353,-3.4353,-3.4351,-3.3615,-3.2767,-3.1954,-3.1838,-3.1511,-3.066,-3.034,-2.9925,-2.921,-2.7711,0.0,-2.6278,-2.4299,-2.3232,-2.356,-2.3197,-2.3072,-2.3334,-2.3382,-2.3382,-2.3334,-2.343,-2.3454,-2.3454,-2.3982,-2.4262,-2.4264,-2.3333,-2.3725,0.0,0.0,0.0,0.0,0.0,0.0,0.0,0.0,0.0,0.0,0.0,0.0,0.0,0.0,0.0,-2.7751,-2.8178,-2.8644,-2.9304,-2.9599,-3.009,-3.0948,-3.1475,-3.205,-3.2781,-3.3735,-3.4322,-3.4339,-3.5207,-3.5728,-3.5728,-3.5896,-3.5996,-3.5996,-3.5996,-3.5978,-3.5916,-3.5901,-3.5853,-3.5738,-3.5554,0.0,-3.5386,-3.5213,-3.5109,-3.5051,-3.5032,-3.5109,-3.5262,-3.5243,-3.5353,-3.5474,-3.5315,-3.5257,-3.5276,-3.5449,-3.5391,-3.5276,-3.5449,-3.5391,-3.5276,-3.5449,-3.5493,-3.5493,-3.5493,-3.5493,0.0,-3.5493,-3.5378,-3.5243,-3.5257,-3.4603,-3.3949,-3.3949,-3.3949,-3.3949,-3.3949,-3.4507,-3.5064,-3.5218,-3.5257,-3.5257,-3.5243,-3.4532,-3.3659,-3.2787,-3.2673,-3.2362,-3.1549,-3.1453,-3.0941,-2.9567,-2.877,-2.783,-2.6552,-2.5935,-2.5355,-2.4731,-2.4672,-2.451,-2.4257,-2.4499,-2.4527,-2.4257,-2.4777,-2.5065,-2.5065,-2.5499,-2.583,-2.6062,-2.5562,-2.5513,0.0,0.0,0.0,0.0,0.0,0.0,0.0,0.0,0.0,0.0,0.0,-2.6307,-2.6683,0.0,-2.8126,-2.8923,-2.9072,-2.9463,-3.0454,-3.07,-3.0895,-3.1253,-3.1987,-3.2814,-3.3713,-3.4673,-3.5259,-3.5295,-3.5747,-3.5996,-3.5996,-3.5996,-3.5996,-3.5996,-3.5996,-3.5977,-3.5905,-3.5834,-3.5757,-3.5661,-3.5622,-3.5584,-3.5565,-3.5565,-3.5545,-3.5493,-3.5493,-3.5493,-3.5493,-3.5493,-3.5493,-3.5493,-3.5493,-3.5493,-3.5493,-3.5493,-3.5493,-3.5493,-3.5493,-3.5493,-3.5493,-3.5493,-3.5493,-3.5493,-3.5493,-3.5493,-3.5493,-3.5493,-3.5493,-3.5493,-3.5493,-3.518,-3.4853,-3.4853,-3.4853,-3.4853,-3.4853,-3.5199,-3.5493,-3.5493,-3.5493,-3.5493,-3.5493,-3.5147,-3.4543,-3.367,-3.3538,-3.3103,-3.1911,-3.1775,-3.1318,-3.004,-2.9509,-2.888,-2.7988,-2.729,-2.6504,-2.5548,-2.5515,-2.5394,-2.5066,-2.5222,-2.5222,-2.5038,-2.5506,-2.5763,-2.5763,-2.6206,-2.6554,-2.6709,-2.7075,-2.7177,0.0,0.0,0.0,0.0,0.0,0.0,0.0,-2.5589,-2.6033,-2.6734,-2.7358,-2.797,-2.8646,-2.8935,-2.929,-2.9957,-3.0234,-3.0725,-3.1699,-3.1828,-3.1845,-3.1897,-3.2782,-3.3766,-3.468,-3.5457,-3.5914,-3.5984,-3.5966,-3.5932,-3.5932,-3.5932,-3.5932,-3.5932,-3.5932,-3.5914,-3.5848,-3.5738,-3.5661,-3.5584,-3.5545,-3.5493,-3.5493,-3.5493,-3.5493,-3.5493,-3.5493,-3.5493,-3.5493,-3.5493,-3.5493,-3.5493,-3.5493,-3.5493,-3.5493,-3.5493,-3.5493,-3.5493,-3.5493,-3.5493,-3.5493,-3.5493,-3.5493,-3.5493,-3.5493,-3.5493,-3.5493,-3.5493,-3.5493,-3.5493,-3.5493,-3.5493,-3.5493,-3.5493,-3.5493,-3.5493,-3.5493,-3.5493,-3.5493,-3.5493,-3.5493,-3.5493,-3.5493,-3.5526,-3.5282,-3.4581,-3.4466,-3.3953,-3.2497,-3.2185,-3.171,-3.0733,-3.0173,-2.9795,-2.9521,-2.8544,-2.7568,-2.6688,-2.6615,-2.6467,-2.6204,-2.6179,-2.6179,-2.6179,-2.6444,-2.6607,-2.6607,-2.712,-2.736,-2.7396,-2.8322,-2.8498,-2.5479,-2.5488,-2.5859,-2.7461,-2.7231,-2.6995,0.0,-2.8109,-2.745,-2.7485,-2.7989,-2.8445,-2.8589,-3.0021,-3.1197,-3.1366,-3.2182,-3.2858,-3.2986,-3.3015,-3.3283,-3.4049,-3.4313,-3.4769,-3.565,-3.5834,-3.5886,-3.5905,-3.5791,-3.5735,-3.5735,-3.5735,-3.5735,-3.5735,-3.5735,-3.5704,-3.5622,-3.5622,-3.5584,-3.5526,-3.5493,-3.5493,-3.5493,-3.5493,-3.5493,-3.5493,-3.5493,-3.5493,-3.5493,-3.5493,-3.5493,-3.5493,-3.5493,-3.5493,-3.5493,-3.5493,-3.5493,-3.5493,-3.5493,-3.5493,-3.5493,-3.5493,-3.5493,-3.5493,-3.5493,-3.5493,-3.5493,-3.5493,-3.5493,-3.5493,-3.5493,-3.5493,-3.5493,-3.5493,-3.5493,-3.5493,-3.5493,-3.5493,-3.5493,-3.5493,-3.5493,-3.5493,-3.5493,-3.5565,-3.5565,-3.5455,-3.5435,-3.5147,-3.4312,-3.3563,-3.2768,-3.181,-3.1049,-3.0486,-3.0213,-2.9794,-2.9352,-2.8874,-2.8783,-2.8611,-2.8288,-2.8246,-2.8246,-2.8246,-2.859,-2.8755,-2.8755,-2.9176,-2.9377,-2.9377,-2.9507,-2.9044,-2.6257,-2.6677,-2.7168,-2.7422,-2.7945,-2.8598,-2.9301,-2.9056,-2.8816,-2.9269,-2.9551,-2.9879,-3.0419,-3.1191,-3.1912,-3.2452,-3.29,-3.3392,-3.3936,-3.4002,-3.4154,-3.4574,-3.5088,-3.5514,-3.5768,-3.5846,-3.5872,-3.5795,-3.5732,-3.5695,-3.5695,-3.5695,-3.5695,-3.5695,-3.5695,-3.5666,-3.5603,-3.5603,-3.5584,-3.5493,-3.5493,-3.5493,-3.5493,-3.5493,-3.5493,-3.5493,-3.5493,-3.5417,-3.5289,-3.5432,-3.5417,-3.5289,-3.5432,-3.5493,-3.5493,-3.5493,-3.5493,-3.5493,-3.5493,-3.5493,-3.5493,-3.5493,-3.5493,-3.5493,-3.5493,-3.5493,-3.5493,-3.5493,-3.5493,-3.5493,-3.5493,-3.5493,-3.5493,-3.5493,-3.5493,-3.5493,-3.5493,-3.5493,-3.5493,-3.5493,-3.5545,-3.5565,-3.5565,-3.5622,-3.568,-3.5757,-3.5708,-3.5391,-3.4645,-3.4259,-3.3555,-3.2226,-3.125,-3.0658,-3.0531,-3.0366,-3.0139,-2.9857,-2.9808,-2.9666,-2.9361,-2.9361,-2.9361,-2.9361,-2.9664,-2.9814,-2.9814,-3.0041,-3.0171,-3.0171,-3.0133,-2.9783,-2.6698,-2.7285,-2.7774,-2.7656,-2.8574,-2.9545,-2.9763,-2.9749,-2.9862,-3.0438,-3.0535,-3.0748,-3.1396,-3.1909,-3.2436,-3.3085,-3.3595,-3.4124,-3.4802,-3.4933,-3.4982,-3.5027,-3.5606,-3.5933,-3.5773,-3.5815,-3.5795,-3.568,-3.5661,-3.5641,-3.5641,-3.5641,-3.5641,-3.5641,-3.5641,-3.5738,-3.5911,-3.568,-3.5661,-3.5834,-3.5622,-3.5493,-3.5493,-3.5493,-3.5493,-3.5493,-3.5493,-3.5383,-3.5223,-3.5432,-3.5383,-3.5223,-3.5432,-3.5493,-3.5493,-3.5493,-3.5493,-3.5493,-3.5493,-3.5493,-3.5493,-3.5493,-3.5493,-3.5493,-3.5493,-3.5493,-3.5493,-3.5493,-3.5493,-3.5493,-3.5493,-3.5493,-3.5493,-3.5493,-3.5493,-3.5493,-3.5493,-3.5493,-3.5493,-3.5493,-3.5565,-3.5603,-3.5603,-3.5699,-3.5785,-3.5901,-3.5825,-3.5586,-3.5059,-3.457,-3.3652,-3.2012,-3.1191,-3.0762,-3.0762,-3.0679,-3.0559,-3.0427,-3.0385,-3.0298,-3.0095,-3.0099,-3.0099,-3.0099,-3.0285,-3.0381,-3.0381,-3.0456,-3.0494,-3.0506,-3.0417,-3.0299,-2.6456,-2.6775,-2.7257,-2.8994,-2.9453,-2.9684,-3.0399,-3.0506,-3.0468,-3.041,-3.041,-3.0429,-3.0527,-3.1914,-3.3096,-3.3198,-3.4562,-3.5626,-3.5665,-3.5786,-3.5862,-3.5856,-3.5937,-3.5965,-3.59,-3.5771,-3.568,-3.5622,-3.5545,-3.5526,-3.5526,-3.5526,-3.5526,-3.5526,-3.5526,-3.5892,-3.6661,-3.5892,-3.5892,-3.6661,-3.5872,-3.5493,-3.5493,-3.5493,-3.5493,-3.5493,-3.5493,-3.5493,-3.5493,-3.5493,-3.5493,-3.5493,-3.5493,-3.5493,-3.5493,-3.5493,-3.5493,-3.5493,-3.5493,-3.5493,-3.5493,-3.5493,-3.5493,-3.5493,-3.5493,-3.5493,-3.5493,-3.5493,-3.5493,-3.5493,-3.5493,-3.5493,-3.5493,-3.5493,-3.5493,-3.5493,-3.5493,-3.5493,-3.5493,-3.5493,-3.5565,-3.5603,-3.5603,-3.5757,-3.5899,-3.5909,-3.5957,-3.5976,-3.5957,-3.4473,-3.2793,-3.1113,-3.0918,-3.0898,-3.0898,-3.0762,-3.0683,-3.0683,-3.063,-3.0594,-3.0587,-3.0587,-3.0587,-3.0587,-3.0587,-3.0587,-3.0587,-3.0533,-3.0501,-3.0506,-3.0417,-3.0398,-2.7255,-2.7939,-2.8541,-2.916,-2.9775,-3.0291,-3.0539,-3.0581,-3.0556,-3.0529,-3.0529,-3.0731,-3.1321,-3.238,-3.3364,-3.3959,-3.4982,-3.5689,-3.5689,-3.5815,-3.5697,-3.5117,-3.5605,-3.5757,-3.51,-3.5514,-3.5795,-3.568,-3.5661,-3.5622,-3.5584,-3.5584,-3.5565,-3.5493,-3.6026,-3.643,-3.6699,-3.7007,-3.7007,-3.6699,-3.5892,-3.5493,-3.5493,-3.5493,-3.5795,-3.6276,-3.5738,-3.6032,-3.6824,-3.5893,-3.571,-3.6001,-3.5643,-3.5493,-3.5493,-3.5493,-3.5493,-3.5493,-3.5493,-3.5493,-3.5493,-3.5493,-3.5493,-3.5493,-3.5493,-3.5493,-3.5493,-3.5493,-3.5493,-3.5493,-3.5493,-3.5493,-3.5493,-3.5493,-3.5493,-3.5493,-3.5493,-3.5493,-3.5526,-3.5565,-3.5622,-3.5699,-3.5776,-3.589,-3.5978,-3.5976,-3.5996,-3.5996,-3.5996,-3.498,-3.3828,-3.2676,-3.207,-3.1523,-3.0957,-3.0859,-3.082,-3.082,-3.0814,-3.0806,-3.0806,-3.0806,-3.0806,-3.0806,-3.0806,-3.0806,-3.0806,-3.0633,-3.0563,-3.0564,-3.0448,-3.0398,-2.8005,-2.8767,-2.927,-2.9583,-3.0148,-3.0579,-3.056,-3.0559,-3.0564,-3.0525,-3.0525,-3.0698,-3.1261,-3.2076,-3.2949,-3.3788,-3.4609,-3.5276,-3.5584,-3.5718,-3.5577,-3.5026,-3.5793,-3.613,-3.5522,-3.6254,-3.6455,-3.5739,-3.6273,-3.6339,-3.5642,-3.5907,-3.6007,-3.593,-3.643,-3.7007,-3.7623,-3.7873,-3.7719,-3.7161,-3.6642,-3.6392,-3.6392,-3.6392,-3.668,-3.7142,-3.6622,-3.6915,-3.7682,-3.6757,-3.6607,-3.6824,-3.6181,-3.593,-3.5892,-3.5622,-3.5493,-3.5493,-3.5493,-3.5493,-3.5493,-3.5493,-3.5526,-3.5545,-3.5545,-3.5565,-3.5584,-3.5545,-3.5545,-3.5545,-3.5526,-3.5493,-3.5493,-3.5493,-3.5493,-3.5526,-3.5545,-3.5545,-3.5565,-3.5622,-3.5718,-3.5798,-3.5892,-3.5951,-3.5996,-3.5996,-3.5996,-3.5898,-3.5586,-3.5059,-3.4375,-3.3496,-3.2949,-3.2402,-3.1836,-3.1523,-3.1367,-3.1367,-3.1074,-3.0898,-3.0898,-3.0898,-3.0898,-3.0898,-3.0898,-3.0898,-3.0898,-3.0721,-3.0614,-3.0602,-3.0487,-3.0602,-2.8659,-2.919,-2.9459,-3.0294,-3.0544,-3.0564,-3.0506,-3.0487,-3.0487,-3.0398,-3.0398,-3.0379,-3.034,-3.1121,-3.2006,-3.2718,-3.3641,-3.4564,-3.5391,-3.5565,-3.5605,-3.5602,-3.6423,-3.7,-3.6992,-3.7836,-3.7658,-3.5962,-3.7364,-3.7557,-3.5815,-3.6504,-3.6901,-3.6776,-3.6815,-3.7623,-3.9277,-3.8469,-3.8065,-3.8065,-3.8027,-3.8007,-3.8007,-3.8007,-3.8027,-3.8065,-3.8027,-3.8046,-3.8123,-3.8046,-3.8027,-3.7988,-3.7123,-3.6776,-3.668,-3.5911,-3.5641,-3.5641,-3.5641,-3.5584,-3.5493,-3.5493,-3.5565,-3.5603,-3.5597,-3.5649,-3.5688,-3.563,-3.5597,-3.5603,-3.5526,-3.5493,-3.5493,-3.5493,-3.5493,-3.5526,-3.5603,-3.5611,-3.5637,-3.5695,-3.5811,-3.5901,-3.5911,-3.5957,-3.5996,-3.5996,-3.5996,-3.5703,-3.4863,-3.4766,-3.4434,-3.3555,-3.3476,-3.3457,-3.3398,-3.2695,-3.2266,-3.2266,-3.1445,-3.0976,-3.0976,-3.0918,-3.0898,-3.0898,-3.0898,-3.0898,-3.0897,-3.08,-3.0739,-3.066,-3.0641,-3.1025,-2.8967,-2.9583,-3.016,-3.0371,-3.0448,-3.0448,-3.0417,-3.0417,-3.0417,-3.0398,-3.0398,-3.0198,-2.9544,-3.116,-3.2468,-3.2064,-3.3795,-3.5257,-3.5468,-3.5565,-3.5597,-3.5605,-3.6428,-3.6993,-3.7005,-3.8381,-3.8813,-3.772,-3.8064,-3.8044,-3.7488,-3.767,-3.7757,-3.768,-3.8296,-3.8854,-3.9296,-3.9084,-3.8969,-3.895,-3.8315,-3.8007,-3.8007,-3.8007,-3.8354,-3.8931,-3.8277,-3.87,-3.9758,-3.8507,-3.8373,-3.8873,-3.8007,-3.768,-3.7642,-3.745,-3.7353,-3.7353,-3.7353,-3.6546,-3.5526,-3.5565,-3.5603,-3.5605,-3.567,-3.5685,-3.5704,-3.5685,-3.5635,-3.5603,-3.5584,-3.5545,-3.5493,-3.5493,-3.5545,-3.5584,-3.5603,-3.5635,-3.5705,-3.5822,-3.5923,-3.5974,-3.5976,-3.5996,-3.5996,-3.5996,-3.5996,-3.5918,-3.5703,-3.5664,-3.5332,-3.4453,-3.4375,-3.4101,-3.3457,-3.3203,-3.3086,-3.3086,-3.2324,-3.1875,-3.1875,-3.123,-3.0898,-3.0898,-3.0898,-3.0849,-3.075,-3.1313,-3.1569,-3.1513,-3.2045,-3.2391,-2.9563,-3.0025,-3.0398,-3.0398,-3.0398,-3.0302,-2.9929,-2.9833,-2.9737,-2.939,-2.9294,-2.9159,-2.8659,-3.0025,-3.1333,-3.166,-3.3199,-3.4641,-3.5391,-3.5545,-3.5504,-3.5392,-3.6603,-3.739,-3.728,-3.8911,-3.9781,-3.9304,-3.9348,-3.9006,-3.8161,-3.8469,-3.8642,-3.8565,-3.9027,-3.9469,-3.9815,-3.9815,-3.9815,-3.9815,-3.9335,-3.9104,-3.9104,-3.9104,-3.9354,-3.9796,-3.9315,-3.9623,-4.0431,-3.9488,-3.9392,-3.9738,-3.8892,-3.8565,-3.8527,-3.8142,-3.8007,-3.8007,-3.808,-3.7483,-3.6622,-3.6295,-3.6219,-3.6234,-3.588,-3.5813,-3.5838,-3.5798,-3.5727,-3.5638,-3.5605,-3.5584,-3.5545,-3.5545,-3.5603,-3.5663,-3.5724,-3.5763,-3.582,-3.5918,-3.5976,-3.5996,-3.5996,-3.5996,-3.5996,-3.5996,-3.5996,-3.5996,-3.5996,-3.5996,-3.5801,-3.5312,-3.5273,-3.5078,-3.457,-3.4199,-3.3965,-3.3965,-3.3184,-3.2734,-3.2734,-3.1858,-3.1373,-3.1373,-3.0973,-3.0916,-3.1236,-3.1681,-3.2046,-3.2346,-3.2763,-3.3128,-2.9965,-3.0247,-3.0297,-3.0086,-3.0117,-3.0006,-2.914,-2.8929,-2.8736,-2.8044,-2.789,-2.7852,-2.7755,-2.8467,-2.9621,-3.1256,-3.2295,-3.3506,-3.5257,-3.5493,-3.5398,-3.5122,-3.668,-3.7709,-3.7545,-3.921,-4.0323,-4.0438,-4.0642,-4.0065,-3.8493,-3.9138,-3.9523,-3.945,-3.945,-3.9777,-4.0489,-4.0489,-4.0489,-4.0489,-4.0489,-4.0489,-4.0489,-4.0489,-4.0489,-4.0489,-4.0489,-4.0489,-4.0489,-4.0489,-4.0431,-4.0296,-3.97,-3.9431,-3.9258,-3.8604,-3.8373,-3.8392,-3.8503,-3.8484,-3.8253,-3.7373,-3.7137,-3.7063,-3.6298,-3.6054,-3.5996,-3.5937,-3.582,-3.571,-3.5662,-3.5641,-3.5597,-3.5623,-3.5674,-3.5757,-3.587,-3.5918,-3.5937,-3.5996,-3.5996,-3.5996,-3.5996,-3.5996,-3.5996,-3.5996,-3.5996,-3.5995,-3.5987,-3.5995,-3.5996,-3.5996,-3.5996,-3.5996,-3.5996,-3.5312,-3.4862,-3.4853,-3.4033,-3.3566,-3.3552,-3.2652,-3.2154,-3.2158,-3.1357,-3.1319,-3.2054,-3.2158,-3.2539,-3.3154,-3.3288,-3.3724,-2.8957,-2.944,-2.9751,-2.8421,-2.8713,-2.9102,-2.8294,-2.8102,-2.8063,-2.7928,-2.789,-2.7678,-2.6967,-2.8063,-2.9429,-3.0467,-3.191,-3.3506,-3.5257,-3.5493,-3.5398,-3.5122,-3.5978,-3.6765,-3.7139,-3.8385,-3.945,-4.0119,-4.0411,-4.0412,-4.0104,-4.0235,-4.0312,-4.0277,-4.0277,-4.0354,-4.0489,-4.0489,-4.0489,-4.0489,-4.0489,-4.0489,-4.0489,-4.0489,-4.0489,-4.0489,-4.0489,-4.0489,-4.0489,-4.0489,-4.0142,-3.9646,-4.0219,-4.0085,-3.9608,-4.0123,-4.0312,-4.0331,-4.0331,-3.995,-3.9296,-3.8416,-3.7718,-3.7172,-3.7084,-3.6558,-3.5996,-3.5996,-3.5937,-3.5867,-3.5855,-3.5776,-3.5685,-3.5669,-3.5784,-3.5868,-3.5898,-3.5937,-3.5996,-3.5996,-3.5996,-3.5996,-3.5996,-3.5996,-3.5996,-3.5996,-3.5996,-3.5974,-3.592,-3.5973,-3.5996,-3.5996,-3.5996,-3.5996,-3.5996,-3.5859,-3.575,-3.5704,-3.4867,-3.4362,-3.4314,-3.3465,-3.2996,-3.2993,-3.2837,-3.2771,-3.2805,-3.3532,-3.3922,-3.4007,-3.4795,-3.5218,-2.7972,-2.8297,-2.8578,-2.779,-2.8037,-2.8255,-2.7409,0.0,0.0,-2.664,-2.6544,-2.6428,-2.6005,-2.6948,-2.8082,-2.8967,-3.0506,-3.2141,-3.3714,-3.468,-3.5257,-3.5299,-3.6515,-3.7232,-3.6906,-3.8326,-3.9254,-3.9214,-3.9872,-4.0356,-4.0489,-4.0489,-4.0489,-4.0489,-4.0489,-4.0489,-4.0489,-4.0489,-4.0489,-4.0489,-4.0489,-4.0489,-4.0489,-4.0489,-4.0489,-4.0489,-4.0489,-4.0489,-4.0508,-4.0581,-4.0392,-4.0119,-4.0565,-4.0541,-4.0258,-4.0657,-4.0541,-4.0176,-4.0217,-3.9704,-3.8977,-3.8623,-3.7943,-3.7169,-3.6752,-3.6328,-3.5996,-3.5996,-3.5957,-3.5895,-3.5908,-3.5846,-3.5791,-3.5798,-3.5879,-3.5957,-3.5957,-3.5976,-3.5996,-3.5996,-3.5996,-3.5996,-3.5996,-3.5996,-3.5996,-3.5996,-3.5996,-3.5985,-3.5907,-3.5921,-3.5924,-3.5857,-3.5841,-3.5841,-3.5841,-3.5841,-3.583,-3.5796,-3.5405,-3.5168,-3.5125,-3.4254,-3.3766,-3.3769,-3.3276,-3.3237,-3.3628,-3.4051,-3.4474,-3.493,-3.5391,-3.5618,-2.6919,-2.7172,-2.7376,-2.7075,-2.728,-2.7338,-2.6514,-2.6332,-2.614,-2.5437,-2.5303,-2.5303,-2.5303,-2.587,-2.6678,-2.7736,-2.9106,-3.0624,-3.2263,-3.3913,-3.5077,-3.544,-3.6803,-3.7408,-3.6682,-3.789,-3.8531,-3.8079,-3.9009,-3.9831,-4.0469,-4.0489,-4.0489,-4.0489,-4.0489,-4.0489,-4.0489,-4.0489,-4.0489,-4.0489,-4.0489,-4.0489,-4.0489,-4.0489,-4.0489,-4.0489,-4.0489,-4.0508,-4.0562,-4.0658,-4.062,-4.05,-4.0738,-4.0746,-4.0623,-4.0818,-4.037,-3.9662,-3.971,-3.905,-3.8189,-3.8299,-3.7864,-3.7168,-3.6484,-3.6152,-3.5996,-3.5996,-3.5957,-3.5918,-3.5918,-3.5918,-3.5918,-3.5918,-3.5957,-3.5996,-3.5996,-3.5996,-3.5996,-3.5996,-3.5996,-3.5996,-3.5996,-3.5996,-3.5996,-3.5996,-3.5987,-3.5958,-3.5863,-3.5849,-3.5784,-3.5676,-3.5682,-3.5702,-3.5702,-3.5702,-3.5702,-3.5682,-3.5678,-3.568,-3.5661,-3.4949,-3.4564,-3.4564,-3.3833,-3.3795,-3.4468,-3.4487,-3.4872,-3.5603,-3.5641,-3.5685,-2.5698,-2.6247,-2.6667,-2.5393,-2.5766,-2.6262,-2.559,0.0,-2.5399,-2.5322,-2.5303,-2.5303,-2.5303,-2.536,-2.5967,-2.7621,-2.8504,-2.978,-3.2152,-3.3808,-3.4913,-3.5459,-3.5658,-3.5906,-3.6297,-3.6048,-3.616,-3.6808,-3.7465,-3.8605,-4.0412,-4.0489,-4.0489,-4.0489,-4.0489,-4.0489,-4.0489,-4.0489,-4.0489,-4.0489,-4.0489,-4.0489,-4.0489,-4.0489,-4.0489,-4.0489,-4.0489,-4.0581,-4.0677,-4.0696,-4.0335,-3.9858,-4.0669,-4.0567,-4.0077,-4.0877,-4.0623,-3.9862,-3.9878,-3.879,-3.7401,-3.7425,-3.7362,-3.7285,-3.7207,-3.6621,-3.5996,-3.5996,-3.5996,-3.5996,-3.5996,-3.5996,-3.5996,-3.5996,-3.5996,-3.5996,-3.5996,-3.5996,-3.5996,-3.5996,-3.5996,-3.5996,-3.5996,-3.5996,-3.5996,-3.5996,-3.5942,-3.5867,-3.5737,-3.5673,-3.5597,-3.5528,-3.5624,-3.5714,-3.5714,-3.5714,-3.5676,-3.5605,-3.5617,-3.5584,-3.5526,-3.5449,-3.5391,-3.5391,-3.5315,-3.5315,-3.5391,-3.5449,-3.5526,-3.5603,-3.5795,-3.588,-2.4739,-2.506,-2.5312,-2.476,-2.502,-2.5354,-2.5153,-2.5111,-2.5152,-2.5274,-2.5303,-2.5303,-2.5303,-2.5303,-2.5534,-2.6217,-2.6883,-2.7937,-2.9777,-3.1712,-3.3336,-3.4363,-3.5365,-3.5864,-3.555,-3.58,-3.6173,-3.6658,-3.7555,-3.8498,-3.9482,-3.9692,-3.9988,-4.0469,-4.0489,-4.0489,-4.0489,-4.0008,-3.9777,-3.9758,-3.9238,-3.9258,-3.9777,-3.9811,-4.0081,-4.0508,-4.0639,-4.0696,-4.0677,-4.0258,-4.0258,-4.0419,-3.9807,-3.9692,-3.9883,-3.9707,-3.9082,-3.834,-3.834,-3.7538,-3.6512,-3.6518,-3.6523,-3.6523,-3.6523,-3.6289,-3.5996,-3.5996,-3.5996,-3.5996,-3.5996,-3.5996,-3.5996,-3.5996,-3.5996,-3.5996,-3.5996,-3.5996,-3.5996,-3.5996,-3.5996,-3.5996,-3.5996,-3.5996,-3.5996,-3.5996,-3.5931,-3.5849,-3.5731,-3.5644,-3.5584,-3.5526,-3.5565,-3.5584,-3.5584,-3.5584,-3.5584,-3.5545,-3.5545,-3.5545,-3.5493,-3.5493,-3.5493,-3.5493,-3.5493,-3.5493,-3.5493,-3.5584,-3.5611,-3.567,-3.5842,-3.5908,-2.419,-2.4303,-2.4428,-2.4478,-2.4607,-2.4741,-2.4917,-2.4937,-2.4981,-2.5126,-2.5149,-2.5149,-2.5149,-2.5149,-2.5149,-2.5149,-2.5901,-2.6987,-2.8445,-3.0602,-3.2593,-3.4138,-3.5348,-3.5855,-3.5332,-3.561,-3.5966,-3.6323,-3.7024,-3.7735,-3.8441,-3.8514,-3.9142,-4.045,-4.0258,-4.0142,-4.0142,-3.9335,-3.8911,-3.8911,-3.8315,-3.8488,-3.933,-3.9427,-3.9735,-4.0243,-4.0395,-4.0277,-3.9973,-3.9512,-3.97,-4.0179,-3.9041,-3.8984,-3.9434,-3.8828,-3.8047,-3.7305,-3.7305,-3.6738,-3.5996,-3.5996,-3.5996,-3.5996,-3.5996,-3.5996,-3.5996,-3.5996,-3.5996,-3.5996,-3.5996,-3.5996,-3.5996,-3.5996,-3.5996,-3.5996,-3.5996,-3.5996,-3.5996,-3.5996,-3.5996,-3.5996,-3.5996,-3.5996,-3.5996,-3.5996,-3.5905,-3.5816,-3.5713,-3.5622,-3.5565,-3.5526,-3.5493,-3.5493,-3.5493,-3.5493,-3.5493,-3.5493,-3.5493,-3.5493,-3.5493,-3.5493,-3.5391,-3.5122,-3.5122,-3.4988,-3.4737,-3.5089,-3.5303,-3.5353,-3.5754,-3.5943,-2.4153,-2.419,-2.4266,-2.4444,-2.4512,-2.4561,-2.476,-2.4804,-2.4804,-2.4804,-2.4804,-2.4804,-2.4804,-2.4804,-2.4804,-2.4804,-2.5974,-2.7456,-2.9072,-3.1199,-3.3313,-3.525,-3.5504,-3.5624,-3.5857,-3.5183,-3.4945,-3.5472,-3.5284,-3.5831,-3.7432,-3.7003,-3.7892,-4.0412,-3.9719,-3.9296,-3.9296,-3.845,-3.8007,-3.8007,-3.807,-3.8565,-3.9403,-3.9546,-3.9593,-3.961,-3.9612,-3.9169,-3.8408,-3.8408,-3.851,-3.8613,-3.8613,-3.8613,-3.8613,-3.8594,-3.8047,-3.7305,-3.7305,-3.6738,-3.5996,-3.5996,-3.5996,-3.5996,-3.5996,-3.5996,-3.5996,-3.5996,-3.5996,-3.5996,-3.5996,-3.5996,-3.5996,-3.5996,-3.5996,-3.5996,-3.5996,-3.5996,-3.5996,-3.5996,-3.5996,-3.5996,-3.5996,-3.5996,-3.5996,-3.5996,-3.5834,-3.5704,-3.5701,-3.5584,-3.5493,-3.5493,-3.5493,-3.5493,-3.5493,-3.5493,-3.5493,-3.5493,-3.5493,-3.5493,-3.5493,-3.5493,-3.5084,-3.4218,-3.4199,-3.3795,-3.2929,-3.398,-3.4508,-3.4536,-3.5532,-3.5996,-2.4392,-2.4303,-2.4209,-2.4266,-2.4303,-2.4339,-2.4561,-2.4591,-2.4651,-2.4904,-2.485,-2.4828,-2.493,-2.4869,-2.4978,-2.5529,-2.5883,-2.6692,-2.8445,-3.016,-3.1719,-3.3081,-3.4247,-3.4986,-3.507,-3.4845,-3.4766,-3.4945,-3.5553,-3.6134,-3.6649,-3.7268,-3.7969,-3.8777,-3.8546,-3.8411,-3.8411,-3.7546,-3.7123,-3.7123,-3.6622,-3.7161,-3.8594,-3.8724,-3.9069,-3.9607,-3.9758,-3.9276,-3.8358,-3.786,-3.8024,-3.8476,-3.7285,-3.7187,-3.7637,-3.7031,-3.6614,-3.6354,-3.6392,-3.6191,-3.5937,-3.5996,-3.5996,-3.5996,-3.5996,-3.5996,-3.5996,-3.5996,-3.5996,-3.5996,-3.5996,-3.5996,-3.5996,-3.5996,-3.5996,-3.5996,-3.5996,-3.5996,-3.5996,-3.5996,-3.5996,-3.5996,-3.5996,-3.5996,-3.5996,-3.5996,-3.5834,-3.5704,-3.5701,-3.5584,-3.5493,-3.5493,-3.5493,-3.5493,-3.5493,-3.5493,-3.5493,-3.5493,-3.5493,-3.5493,-3.5493,-3.5493,-3.5372,-3.5084,-3.4507,-3.4372,-3.4737,-3.4578,-3.4836,-3.5535,-3.5858,-3.5996,-2.4457,-2.4482,-2.4321,-2.4321,-2.4266,-2.4228,-2.4357,-2.4393,-2.4478,-2.4747,-2.4737,-2.4746,-2.4904,-2.4855,-2.4959,-2.5473,-2.5946,-2.6778,-2.8272,-3.0076,-3.1763,-3.3204,-3.4395,-3.5037,-3.4904,-3.498,-3.4982,-3.487,-3.5562,-3.6001,-3.6001,-3.6665,-3.7065,-3.7065,-3.7353,-3.7507,-3.7507,-3.668,-3.6257,-3.6238,-3.5834,-3.6376,-3.7746,-3.7919,-3.8252,-3.8746,-3.8861,-3.8381,0.0,-3.6992,-3.7129,-3.7519,-3.6426,-3.6316,-3.6699,-3.6153,-3.5944,-3.5915,-3.595,-3.5952,-3.5937,-3.5996,-3.5996,-3.5996,-3.5996,-3.5996,-3.5996,-3.5996,-3.5996,-3.5996,-3.5996,-3.5996,-3.5996,-3.5996,-3.5996,-3.5996,-3.5996,-3.5996,-3.5996,-3.5996,-3.5996,-3.5996,-3.5996,-3.5996,-3.5996,-3.5996,-3.5834,-3.5704,-3.5701,-3.5584,-3.5493,-3.5493,-3.5493,-3.5493,-3.5493,-3.5493,-3.5493,-3.5493,-3.5493,-3.5493,-3.5493,-3.5493,-3.5353,-3.5026,-3.418,-3.4045,-3.4661,-3.4578,-3.5041,-3.5996,-3.5996,-3.5996,0.0,-2.457,-2.4435,-2.4437,-2.4338,-2.4247,-2.4247,-2.4247,0.0,-2.4495,-2.4545,-2.4594,-2.4865,-2.4842,-2.4846,-2.4959,-2.6242,-2.7549,-2.8502,-3.0772,-3.3109,-3.5097,-3.5541,-3.5586,-3.5264,-3.5463,-3.5494,-3.5157,-3.5369,-3.5526,-3.5493,-3.5493,-3.5493,-3.5526,-3.6238,-3.6622,-3.6622,-3.5872,-3.5493,-3.5526,-3.5641,-3.6165,-3.7026,-3.7212,-3.7305,-3.7305,-3.7305,-3.6816,-3.5996,-3.5996,-3.5996,-3.5996,-3.5996,-3.5953,-3.5913,-3.5919,-3.5888,-3.5903,-3.5908,-3.5943,-3.5994,-3.5996,-3.5996,-3.5996,-3.5996,-3.5996,-3.5996,-3.5996,-3.5996,-3.5996,-3.5996,-3.5996,-3.5996,-3.5996,-3.5996,-3.5996,-3.5996,-3.5996,-3.5996,-3.5996,-3.5996,-3.5996,-3.5996,-3.5996,-3.5996,-3.5994,-3.5834,-3.571,-3.5714,-3.5603,-3.5526,-3.5526,-3.5526,-3.5526,-3.5493,-3.5493,-3.5493,-3.5526,-3.5526,-3.5526,-3.5526,-3.5526,-3.5141,-3.4314,-3.359,-3.3205,-3.3205,-3.4206,-3.5157,-3.5996,-3.5996,-3.5996,-2.316,0.0,-2.3818,-2.3814,-2.4238,-2.4654,0.0,-2.4654,-2.4697,-2.4845,0.0,-2.4978,-2.5798,-2.5309,-2.522,-2.6497,-2.7072,-2.7717,-2.8758,-3.1271,-3.3645,-3.5398,-3.5659,-3.5674,-3.5596,-3.5639,-3.5628,-3.5494,-3.5537,-3.5565,-3.5493,-3.5493,-3.5526,-3.5584,-3.5757,-3.5834,-3.5795,-3.5589,-3.5545,-3.5584,-3.5661,-3.6215,-3.717,-3.7265,-3.7305,-3.7305,-3.7305,-3.6816,-3.5996,-3.5996,-3.5996,-3.5996,-3.5996,-3.5991,-3.5986,-3.5983,-3.5939,-3.5908,-3.5958,-3.5951,-3.594,-3.5982,-3.5996,-3.5996,-3.5996,-3.5996,-3.5996,-3.5996,-3.5996,-3.5996,-3.5996,-3.5996,-3.5996,-3.5996,-3.5996,-3.5996,-3.5996,-3.5996,-3.5996,-3.5996,-3.5996,-3.5996,-3.5996,-3.5996,-3.5979,-3.5931,-3.5869,-3.5817,-3.5701,-3.568,-3.5641,-3.5584,-3.5584,-3.5565,-3.5493,-3.5493,-3.5526,-3.5584,-3.5584,-3.5603,-3.5661,-3.5661,-3.5565,-3.5353,-3.5257,-3.4899,-3.4248,-3.5215,-3.5771,-3.5996,-3.5996,-3.5996,-2.1718,-2.2756,-2.3689,-2.369,-2.4241,-2.4794,-2.4794,0.0,0.0,0.0,0.0,-2.5145,-2.5807,-2.5793,-2.5964,-2.6872,-2.7705,-2.8857,-3.0625,-3.2258,-3.3874,-3.5588,-3.5822,-3.5841,-3.5783,-3.5794,-3.5752,-3.5639,-3.5656,-3.5641,-3.5603,-3.5603,-3.5622,-3.5641,-3.5659,-3.562,-3.5584,-3.5603,-3.5622,-3.5661,-3.5757,-3.6078,-3.662,-3.6668,-3.6699,-3.6699,-3.6699,-3.6445,-3.5996,-3.5996,-3.5996,-3.5996,-3.5996,-3.5976,-3.5953,-3.5901,-3.5834,-3.5815,-3.5853,-3.5897,-3.5944,-3.5989,-3.5996,-3.5996,-3.5996,-3.5996,-3.5996,-3.5996,-3.5996,-3.5996,-3.5996,-3.5996,-3.5996,-3.5996,-3.5996,-3.5996,-3.5996,-3.5996,-3.5996,-3.5996,-3.5996,-3.5996,-3.5996,-3.5996,-3.5987,-3.5944,-3.5917,-3.5872,-3.5799,-3.5747,-3.5687,-3.5648,-3.5656,-3.5641,-3.5603,-3.5603,-3.5603,-3.5603,-3.528,-3.528,-3.5667,-3.5358,-3.4971,-3.4614,-3.4672,-3.4314,-3.3505,-3.4771,-3.5391,-3.541,-3.5801,-3.5996,-2.0627,-2.2135,-2.3659,-2.3667,-2.4276,-2.4885,-2.4885,0.0,0.0,0.0,0.0,0.0,-2.563,-2.6264,-2.676,-2.6894,-2.8213,-3.0099,-3.258,-3.3014,-3.3699,-3.5302,-3.5545,-3.5566,-3.5508,-3.5508,-3.5462,-3.5343,-3.5321,-3.5403,-3.5509,-3.5528,-3.5579,-3.5738,-3.5728,-3.5737,-3.574,-3.5721,-3.5714,-3.5738,-3.5853,-3.592,-3.5913,-3.5978,-3.5996,-3.5996,-3.5996,-3.5996,-3.5996,-3.5996,-3.5996,-3.5996,-3.6009,-3.5964,-3.589,-3.5773,-3.5718,-3.5694,-3.5719,-3.5853,-3.5996,-3.5996,-3.5996,-3.5996,-3.5996,-3.5996,-3.5996,-3.5996,-3.5996,-3.5996,-3.5996,-3.5996,-3.5996,-3.5996,-3.5996,-3.5996,-3.5996,-3.5996,-3.5996,-3.5996,-3.5996,-3.5996,-3.5996,-3.5996,-3.5996,-3.5996,-3.5944,-3.5921,-3.5893,-3.5806,-3.5741,-3.5722,-3.5728,-3.5721,-3.5701,-3.5707,-3.5699,-3.5622,-3.5049,-3.4963,-3.5527,-3.4884,-3.4156,-3.3334,-3.3323,-3.3014,-3.2383,-3.3809,-3.457,-3.4726,-3.5469,-3.5801,-2.1255,-2.2179,-2.2977,-2.3016,-2.4148,-2.5239,-2.5278,0.0,0.0,0.0,0.0,0.0,0.0,-2.6705,-2.703,-2.7773,-2.8668,-2.996,-3.1893,-3.2143,-3.251,-3.3577,-3.3719,-3.3711,-3.3691,-3.375,-3.375,-3.3669,-3.3662,-3.3981,-3.4649,-3.468,-3.5049,-3.5848,-3.5868,-3.5886,-3.5951,-3.5795,-3.5757,-3.5872,-3.5892,-3.5941,-3.5984,-3.5995,-3.5996,-3.5996,-3.5996,-3.5996,-3.5996,-3.5996,-3.5996,-3.5994,-3.5996,-3.596,-3.5898,-3.5874,-3.5795,-3.5721,-3.5831,-3.5933,-3.5996,-3.5996,-3.5996,-3.5996,-3.5996,-3.5996,-3.5996,-3.5996,-3.5996,-3.5996,-3.5996,-3.5996,-3.5996,-3.5996,-3.5996,-3.5996,-3.5996,-3.5996,-3.5996,-3.5996,-3.5996,-3.5996,-3.5996,-3.5996,-3.5976,-3.5918,-3.5953,-3.5958,-3.5908,-3.5928,-3.5934,-3.5876,-3.586,-3.5815,-3.5718,-3.5805,-3.5815,-3.5699,-3.5676,-3.5436,-3.4877,-3.4724,-3.4253,-3.3404,-3.3385,-3.3333,-3.3223,-3.3476,-3.3984,-3.4707,-3.4844,-3.4902,-2.0789,-2.1831,-2.2812,-2.2842,-2.4111,-2.537,-2.539,0.0,0.0,0.0,0.0,0.0,0.0,-2.6953,-2.7986,-2.9279,-2.9786,-3.0467,-3.1754,-3.1915,-3.223,-3.314,-3.3255,-3.3249,-3.33,-3.332,-3.333,-3.3303,-3.3291,-3.3453,-3.3789,-3.3809,-3.4217,-3.5115,-3.5175,-3.5445,-3.5946,-3.589,-3.5888,-3.5957,-3.5957,-3.5966,-3.5996,-3.5996,-3.5996,-3.5996,-3.5996,-3.5996,-3.5996,-3.5996,-3.5996,-3.5994,-3.6008,-3.5963,-3.5892,-3.5776,-3.5718,-3.5701,-3.5765,-3.5888,-3.5996,-3.5996,-3.5996,-3.5996,-3.5996,-3.5996,-3.5996,-3.5996,-3.5996,-3.5996,-3.5996,-3.5996,-3.5996,-3.5996,-3.5996,-3.5996,-3.5996,-3.5996,-3.5996,-3.5996,-3.5996,-3.5996,-3.5996,-3.5996,-3.5996,-3.5957,-3.5976,-3.5989,-3.5955,-3.5977,-3.5996,-3.5957,-3.5947,-3.5938,-3.5873,-3.5907,-3.5736,-3.5185,-3.5626,-3.5548,-3.4726,-3.4258,-3.3809,-3.3418,-3.2519,-3.2051,-3.2051,-3.2519,-3.2969,-3.3379,-3.4277,-3.4453,-2.0542,-2.1523,-2.2543,-2.2754,-2.4101,-2.539,-2.5409,-2.5434,0.0,0.0,0.0,0.0,-2.5636,-2.7044,-2.8668,-3.012,-3.0509,-3.0827,-3.1503,-3.1576,-3.1807,-3.248,-3.2582,-3.2609,-3.2658,-3.267,-3.2683,-3.2698,-3.2682,-3.2733,-3.2893,-3.29,-3.3398,-3.4497,-3.4383,-3.4711,-3.5605,-3.5664,-3.5801,-3.5996,-3.5996,-3.5996,-3.5996,-3.5996,-3.5996,-3.5996,-3.5996,-3.5996,-3.5996,-3.5996,-3.5996,-3.5994,-3.5997,-3.5933,-3.5834,-3.5641,-3.5641,-3.5707,-3.5701,-3.5833,-3.5996,-3.5996,-3.5996,-3.5996,-3.5996,-3.5996,-3.5996,-3.5996,-3.5996,-3.5995,-3.5974,-3.5989,-3.5996,-3.5976,-3.5996,-3.5996,-3.5996,-3.5996,-3.5996,-3.5996,-3.5996,-3.5996,-3.5996,-3.5996,-3.5996,-3.5996,-3.5996,-3.5996,-3.5996,-3.5996,-3.5996,-3.5996,-3.5996,-3.5991,-3.5999,-3.5987,-3.5713,-3.5041,-3.5582,-3.5469,-3.4434,-3.375,-3.3223,-3.2812,-3.1543,-3.0898,-3.0898,-3.1562,-3.1992,-3.2226,-3.3516,-3.3769,-2.1216,-2.1504,-2.1793,-2.2601,-2.4062,0.0,-2.539,-2.5399,0.0,-2.5486,0.0,-2.5498,-2.5517,-2.6932,-2.839,-2.9263,-3.0076,-3.0622,-3.0687,-3.0637,-3.0616,-3.0702,-3.0756,-3.0799,-3.0786,-3.0844,-3.089,-3.0883,-3.0845,-3.1145,-3.1942,-3.1981,-3.2794,-3.4546,-3.3817,-3.3849,-3.4785,-3.4785,-3.5195,-3.5996,-3.5996,-3.5996,-3.5996,-3.5996,-3.5996,-3.5996,-3.5996,-3.5996,-3.5996,-3.5996,-3.5996,-3.5995,-3.5992,-3.5883,-3.5699,-3.5565,-3.5603,-3.5695,-3.5697,-3.5839,-3.5996,-3.5996,-3.5996,-3.5996,-3.5996,-3.5996,-3.5996,-3.5996,-3.5996,-3.5986,-3.5929,-3.5957,-3.5976,-3.5918,-3.5957,-3.5996,-3.5996,-3.5996,-3.5996,-3.5996,-3.5996,-3.5996,-3.5996,-3.5996,-3.5996,-3.5996,-3.5996,-3.5996,-3.5996,-3.5996,-3.5996,-3.5996,-3.5996,-3.5996,-3.5994,-3.5934,-3.5903,-3.5912,-3.5948,-3.5234,-3.3555,-3.3437,-3.2676,-3.1113,-3.0957,-3.0898,-3.0898,-3.0957,-3.1406,-3.2207,-3.2324,-3.2344,-1.9858,-2.11,-2.2389,-2.2716,-2.4062,0.0,0.0,-2.4785,-2.5171,-2.5235,-2.5783,-2.6412,-2.7017,-2.8122,-2.9061,-2.9361,-3.0199,-3.0754,-3.067,-3.0651,-3.0604,-3.0575,-3.0583,-3.0621,-3.066,-3.0641,-3.0641,-3.0641,-3.0583,-3.066,-3.096,-3.0979,-3.153,-3.2755,-3.2551,-3.2854,-3.3754,-3.3841,-3.4062,-3.4394,-3.5488,-3.5996,-3.5996,-3.5996,-3.5996,-3.5996,-3.5996,-3.5996,-3.5996,-3.5996,-3.5996,-3.5996,-3.5947,-3.5845,-3.5699,-3.5603,-3.5622,-3.5695,-3.5692,-3.582,-3.5996,-3.5996,-3.5996,-3.5996,-3.5996,-3.5996,-3.5996,-3.5996,-3.5996,-3.5994,-3.5962,-3.5976,-3.5988,-3.5971,-3.5976,-3.5996,-3.5996,-3.5996,-3.5996,-3.5996,-3.5996,-3.5996,-3.5996,-3.5996,-3.5996,-3.5996,-3.5996,-3.5996,-3.5996,-3.5996,-3.5996,-3.5996,-3.5996,-3.5996,-3.5996,-3.5976,-3.597,-3.6002,-3.5449,-3.4853,-3.4238,-3.3203,-3.2363,-3.1719,-3.1172,-3.0898,-3.0898,-3.0898,-3.1074,-3.1406,-3.1953,-3.1914,-1.9715,-2.1062,-2.2466,-2.2735,0.0,0.0,-2.3896,-2.4461,-2.5102,-2.5148,-2.5745,-2.6544,-2.7479,-2.8424,-2.916,-2.9453,-3.0293,-3.0847,-3.0715,-3.0703,-3.0675,-3.0607,-3.0621,-3.0641,-3.066,-3.0634,-3.0586,-3.0564,-3.0506,-3.0448,-3.0398,-3.0398,-3.0814,-3.1711,-3.1574,-3.1923,-3.2801,-3.2941,-3.3027,-3.3047,-3.4492,-3.5176,-3.5176,-3.5176,-3.5332,-3.5586,-3.5586,-3.5753,-3.6001,-3.5981,-3.5977,-3.5957,-3.5918,-3.5834,-3.5757,-3.5663,-3.5699,-3.5765,-3.575,-3.5879,-3.5996,-3.5996,-3.5801,-3.5586,-3.5586,-3.5391,-3.5175,-3.5149,-3.5166,-3.5176,-3.5156,-3.5558,-3.5937,-3.5627,-3.5788,-3.5918,-3.5644,-3.5801,-3.5996,-3.5996,-3.5996,-3.5996,-3.5996,-3.5996,-3.5996,-3.5996,-3.5996,-3.5996,-3.5996,-3.5996,-3.5996,-3.5996,-3.5996,-3.5996,-3.5996,-3.5996,-3.5879,-3.5605,-3.4736,-3.4244,-3.4296,-3.2949,-3.207,-3.1797,-3.1191,-3.0898,-3.0898,-3.0898,-3.0898,-3.0918,-3.1504,-3.1465,-2.121,-2.1485,-2.1716,0.0,0.0,0.0,-2.3614,-2.4577,-2.5303,-2.5303,-2.5303,-2.56,-2.6518,-2.7477,-2.8412,-2.9331,-3.0273,-3.0859,-3.0723,-3.0704,-3.0674,-3.0601,-3.0656,-3.0691,-3.0614,-3.0591,-3.0564,-3.051,-3.0448,-3.0398,-3.0398,-3.0398,-3.0845,-3.1754,-3.1018,-3.1053,-3.1973,-3.2129,-3.2187,-3.2207,-3.3008,-3.3379,-3.3398,-3.3398,-3.3867,-3.4687,-3.4687,-3.5173,-3.5963,-3.5925,-3.5896,-3.5898,-3.5898,-3.5898,-3.5876,-3.5746,-3.5771,-3.5893,-3.5887,-3.5937,-3.5976,-3.5976,-3.539,-3.4687,-3.4687,-3.4082,-3.339,-3.3326,-3.3362,-3.3379,-3.332,-3.4629,-3.5745,-3.4797,-3.5301,-3.5742,-3.4863,-3.5371,-3.5996,-3.5996,-3.5996,-3.5996,-3.5996,-3.5996,-3.5996,-3.5996,-3.5996,-3.5996,-3.5996,-3.5996,-3.5996,-3.5996,-3.5996,-3.5996,-3.5996,-3.5996,-3.5625,-3.4766,-3.3887,-3.3398,-3.3398,-3.2617,-3.1777,-3.0918,-3.0898,-3.0898,-3.0898,-3.0898,-3.0898,-3.0898,-3.0898,-3.0898,-1.8621,-2.0375,0.0,-2.2414,0.0,0.0,0.0,-2.4809,0.0,-2.5872,-2.6006,-2.6101,-2.6376,-2.7697,-2.8695,-2.8548,-2.9778,-3.0742,-3.0703,-3.0786,-3.0808,-3.0685,-3.0769,-3.0837,-3.0817,-3.0727,-3.0653,-3.0652,-3.0583,-3.0544,-3.0544,-3.0544,-3.0641,-3.0883,-3.0737,-3.0781,-3.1016,-3.1205,-3.1289,-3.1289,-3.1523,-3.2266,-3.3398,-3.3354,-3.3475,-3.3705,-3.3662,-3.3788,-3.4076,-3.4673,-3.5247,-3.5703,-3.5137,-3.4922,-3.4902,-3.4875,-3.4519,-3.4156,-3.4763,-3.4609,-3.4099,-3.4108,-3.3891,-3.3643,-3.3634,-3.35,-3.3316,-3.3258,-3.3316,-3.3381,-3.3314,-3.373,-3.41,-3.3812,-3.3973,-3.4101,-3.3848,-3.4473,-3.5098,-3.5098,-3.5586,-3.5996,-3.5996,-3.5996,-3.5996,-3.5996,-3.5996,-3.5996,-3.5996,-3.5996,-3.5996,-3.5996,-3.5996,-3.5996,-3.5996,-3.5996,-3.5898,-3.5625,-3.4219,-3.3144,-3.2578,-3.1738,-3.1152,-3.0918,-3.0898,-3.0898,-3.0898,-3.0898,-3.0898,-3.0898,-3.0898,-3.0898,-1.8815,-2.0596,0.0,-2.2971,-2.384,-2.4624,-2.4771,-2.4869,-2.5063,-2.5595,-2.5709,-2.5817,-2.6238,-2.7201,-2.799,-2.8063,-2.8987,-2.9707,-2.9707,-3.0098,-3.0224,-2.9791,-3.042,-3.0742,-3.0371,-3.0559,-3.0692,-3.0665,-3.0617,-3.0598,-3.0598,-3.0598,-3.0578,-3.053,-3.0621,-3.0653,-3.0649,-3.0735,-3.0781,-3.082,-3.0781,-3.1319,-3.2289,-3.228,-3.2439,-3.2752,-3.3064,-3.3175,-3.3197,-3.3749,-3.4253,-3.4617,-3.4164,-3.3979,-3.3984,-3.398,-3.3672,-3.334,-3.3867,-3.3691,-3.3257,-3.3267,-3.3003,-3.2679,-3.2675,-3.248,-3.2216,-3.2159,-3.2203,-3.2269,-3.2233,-3.228,-3.2422,-3.2832,-3.3164,-3.3301,-3.2988,-3.3594,-3.418,-3.418,-3.4609,-3.5078,-3.543,-3.5488,-3.5605,-3.5957,-3.5996,-3.5996,-3.5996,-3.5996,-3.5996,-3.5996,-3.5996,-3.5996,-3.5996,-3.5996,-3.5859,-3.5508,-3.418,-3.3047,-3.2226,-3.1367,-3.0898,-3.0898,-3.0898,-3.0898,-3.0898,-3.0898,-3.0898,-3.0898,-3.0898,-3.0898,-2.0561,-2.148,-2.221,-2.3737,-2.383,-2.3727,-2.4509,-2.4663,-2.4678,-2.476,-2.479,-2.5088,-2.599,-2.6293,-2.6717,-2.7734,-2.8057,-2.8201,-2.8203,-2.8945,-2.9199,-2.8398,-2.9707,-3.0332,-2.9473,-3.0059,-3.0461,-3.0399,-3.0467,-3.0506,-3.0506,-3.0584,-3.0623,-3.0603,-3.0615,-3.064,-3.0679,-3.0628,-3.0621,-3.0699,-3.0621,-3.0604,-3.0583,-3.0641,-3.1076,-3.1811,-3.2594,-3.2916,-3.2949,-3.2993,-3.3037,-3.3062,-3.3056,-3.3071,-3.3059,-3.306,-3.3023,-3.2965,-3.3043,-3.3023,-3.2953,-3.2958,-3.2401,-3.1754,-3.1754,-3.121,-3.0583,-3.0506,-3.0544,-3.0601,-3.0598,-3.0648,-3.0937,-3.1855,-3.2637,-3.2969,-3.2246,-3.2715,-3.3281,-3.3281,-3.3359,-3.3652,-3.4453,-3.457,-3.4883,-3.5742,-3.5879,-3.5918,-3.5996,-3.5996,-3.5996,-3.5996,-3.5996,-3.5976,-3.5898,-3.5957,-3.5586,-3.4648,-3.3848,-3.3047,-3.2226,-3.1367,-3.0898,-3.0898,-3.0898,-3.0898,-3.0898,-3.0898,-3.0898,-3.0898,-3.0898,-3.0898,-1.8878,-2.0209,0.0,-2.2624,-2.3282,-2.3668,-2.376,-2.3653,-2.3749,-2.4424,-2.4685,-2.4875,-2.5088,-2.5767,-2.6481,-2.6977,-2.7652,-2.8165,-2.8259,-2.8457,-2.8516,-2.832,-2.8633,-2.8789,-2.8574,-2.8711,-2.8808,-2.8803,-2.9428,-2.9818,-2.9818,-3.0463,-3.0795,-3.0678,-3.0689,-3.0656,-3.0621,-3.0607,-3.0607,-3.0626,-3.0607,-3.0568,-3.0525,-3.0544,-3.0602,-3.0717,-3.0707,-3.1059,-3.1685,-3.1706,-3.209,-3.2654,-3.2199,-3.205,-3.2104,-3.2106,-3.169,-3.1255,-3.1951,-3.169,-3.1081,-3.1083,-3.0922,-3.0717,-3.0717,-3.0621,-3.0506,-3.0448,-3.0506,-3.0595,-3.0546,-3.0608,-3.0742,-3.0976,-3.123,-3.1387,-3.1211,-3.1855,-3.2461,-3.2461,-3.2969,-3.3457,-3.3652,-3.3672,-3.3984,-3.4844,-3.498,-3.5234,-3.5918,-3.5996,-3.5996,-3.5996,-3.5996,-3.5723,-3.5039,-3.5605,-3.5332,-3.3789,-3.3496,-3.3047,-3.2226,-3.1367,-3.0898,-3.0898,-3.0898,-3.0898,-3.0898,-3.0898,-3.0898,-3.0898,-3.0898,-3.0898,-1.8515,0.0,0.0,-2.25,0.0,-2.3441,-2.337,-2.3401,-2.357,-2.4022,-2.4282,-2.45,-2.4741,-2.5308,-2.5817,-2.6091,-2.6554,-2.6938,-2.7001,-2.7388,-2.7519,-2.7109,-2.7793,-2.8144,-2.7715,-2.8066,-2.8301,-2.8301,-2.8711,-2.8984,-2.8984,-2.9805,-3.0059,-2.957,-3.0273,-3.0478,-3.0071,-3.0359,-3.0525,-3.0544,-3.0525,-3.042,-3.0257,-3.0394,-3.0362,-3.0196,-3.0061,-3.0202,-3.0522,-3.0532,-3.0866,-3.1321,-3.1006,-3.0999,-3.1133,-3.1133,-3.0864,-3.0564,-3.1018,-3.0864,-3.0448,-3.0448,-3.0417,-3.0398,-3.0398,-3.0417,-3.0448,-3.0398,-3.0448,-3.0506,-3.0544,-3.0595,-3.0687,-3.0779,-3.0859,-3.0898,-3.0898,-3.1269,-3.1582,-3.1582,-3.1914,-3.2344,-3.2754,-3.3144,-3.3555,-3.4004,-3.4082,-3.4238,-3.4707,-3.4766,-3.4922,-3.5332,-3.5371,-3.5351,-3.5332,-3.5351,-3.498,-3.4082,-3.3262,-3.2637,-3.2226,-3.1367,-3.0898,-3.0898,-3.0898,-3.0898,-3.0898,-3.0898,-3.0898,-3.0898,-3.0898,-3.0898,-1.8412,0.0,-2.0894,-2.2604,-2.3087,-2.3093,-2.3063,-2.33,-2.3544,-2.3588,-2.3888,-2.428,-2.4734,-2.4991,-2.5206,-2.5398,-2.5524,-2.5592,-2.5622,-2.6282,-2.6504,-2.5781,-2.6973,-2.7578,-2.6855,-2.7422,-2.7851,-2.7851,-2.7988,-2.8086,-2.8086,-2.8906,-2.9042,-2.8311,-2.9517,-2.9869,-2.926,-2.9867,-3.0129,-3.0002,-3.0056,-3.003,-2.996,-3.018,-3.0161,-2.9954,-2.9908,-2.9813,-2.9642,-2.9682,-2.9815,-2.9964,-3.0042,-3.0206,-3.0398,-3.0398,-3.0398,-3.0398,-3.0398,-3.0398,-3.0398,-3.0398,-3.0398,-3.0398,-3.0398,-3.0398,-3.0398,-3.0398,-3.0398,-3.0417,-3.0544,-3.0579,-3.0646,-3.082,-3.0875,-3.0898,-3.0898,-3.0898,-3.0898,-3.0898,-3.0898,-3.1133,-3.1855,-3.2539,-3.3027,-3.3164,-3.3184,-3.3242,-3.3379,-3.3398,-3.3672,-3.4394,-3.4473,-3.4707,-3.5293,-3.4805,-3.4355,-3.4062,-3.2871,-3.2129,-3.1973,-3.1289,-3.0898,-3.0898,-3.0898,-3.0898,-3.0898,-3.0898,-3.0898,-3.0898,-3.0898,-3.0898,-1.7347,0.0,-2.0794,0.0,-2.259,-2.2712,-2.248,-2.2643,-2.2923,-2.3212,-2.4044,-2.4719,-2.4789,-2.5108,-2.5417,-2.5543,-2.5582,-2.5627,-2.5685,-2.5799,-2.582,-2.5703,-2.5918,-2.5996,-2.5879,-2.5977,-2.6055,-2.6055,-2.6758,-2.7168,-2.7168,-2.8008,-2.8393,-2.8216,-2.8348,-2.8362,-2.8195,-2.891,-2.8833,-2.7992,-2.8521,-2.9107,-2.9739,-2.9776,-2.9755,-2.9731,-2.957,-2.9456,-2.9438,-2.962,-2.9721,-2.9779,-3.0195,-3.0359,-3.0398,-3.0398,-3.0398,-3.0398,-3.0398,-3.0398,-3.0398,-3.0398,-3.0398,-3.0398,-3.0398,-3.0398,-3.0398,-3.0398,-3.0398,-3.0417,-3.0487,-3.0568,-3.0618,-3.0714,-3.0813,-3.0898,-3.0898,-3.0898,-3.0898,-3.0898,-3.0898,-3.0937,-3.1055,-3.1152,-3.1484,-3.2246,-3.2363,-3.2617,-3.3301,-3.3398,-3.3437,-3.3555,-3.3574,-3.334,-3.2754,-3.3242,-3.2949,-3.1504,-3.1914,-3.1855,-3.1094,-3.0957,-3.0898,-3.0898,-3.0898,-3.0898,-3.0898,-3.0898,-3.0898,-3.0898,-3.0898,-3.0898,-1.8285,-1.9931,-2.1452,0.0,-2.25,-2.2473,-2.2527,-2.2764,-2.3069,-2.3414,-2.4081,-2.4657,-2.4776,-2.5118,-2.5434,-2.5536,-2.5579,-2.5619,-2.5683,-2.5703,-2.5696,-2.5659,-2.5683,-2.5684,-2.5644,-2.5684,-2.5703,-2.5703,-2.6055,-2.6269,-2.6269,-2.7062,-2.7284,-2.6757,-2.7584,-2.7736,-2.7099,-2.7871,-2.7981,-2.7431,-2.7545,-2.8009,-2.8788,-2.8693,-2.8944,-2.9532,-2.9434,-2.9407,-2.9413,-2.9499,-2.9674,-2.9902,-3.0113,-3.0263,-3.0398,-3.0398,-3.0398,-3.0398,-3.0398,-3.0398,-3.0398,-3.0398,-3.0398,-3.0398,-3.0398,-3.0398,-3.0398,-3.0398,-3.0398,-3.0417,-3.0487,-3.0548,-3.062,-3.067,-3.0806,-3.0898,-3.0898,-3.0898,-3.0898,-3.0898,-3.0837,-3.0808,-3.0897,-3.084,-3.0937,-3.1406,-3.1465,-3.1601,-3.1953,-3.1992,-3.2187,-3.2676,-3.2734,-3.2773,-3.2851,-3.2773,-3.2402,-3.168,-3.1523,-3.1309,-3.0918,-3.0898,-3.0898,-3.0898,-3.0898,-3.0898,-3.0898,-3.0898,-3.0898,-3.0898,-3.0898,-3.086,0.0,0.0,-2.1334,-2.2244,-2.2531,-2.2625,-2.2695,-2.3021,-2.3392,-2.3649,-2.4136,-2.4561,-2.47,-2.5037,-2.5362,-2.5408,-2.5499,-2.5599,-2.5638,-2.5658,-2.5626,-2.558,-2.562,-2.565,-2.5605,-2.5664,-2.5703,-2.5703,-2.5703,-2.5681,-2.5679,-2.6241,-2.6256,-2.5563,-2.6657,-2.6867,-2.606,-2.6558,-2.6948,-2.7192,-2.6739,-2.6933,-2.7702,-2.757,-2.7932,-2.8713,-2.8897,-2.903,-2.9072,-2.8902,-2.9197,-2.9699,-2.9751,-3.0021,-3.0398,-3.0398,-3.0398,-3.0398,-3.0398,-3.0256,-3.0121,-3.0321,-3.0256,-3.0121,-3.0321,-3.0398,-3.0398,-3.0398,-3.0398,-3.0417,-3.0487,-3.054,-3.0622,-3.069,-3.0798,-3.0898,-3.0898,-3.0898,-3.0898,-3.0898,-3.0823,-3.0785,-3.0872,-3.0814,-3.0781,-3.0879,-3.0898,-3.0898,-3.0898,-3.0898,-3.1152,-3.1797,-3.1875,-3.2109,-3.2715,-3.2207,-3.1875,-3.1875,-3.1269,-3.0898,-3.0898,-3.0898,-3.0898,-3.0898,-3.0898,-3.0898,-3.0898,-3.0898,-3.0875,-3.0849,-3.0849,-3.0792,0.0,-1.9376,0.0,-2.1419,-2.2652,-2.3316,-2.2813,-2.3212,-2.3671,-2.3692,-2.4136,-2.4512,-2.4512,-2.4835,-2.5139,-2.5207,-2.5376,-2.5503,-2.5503,-2.5503,-2.5517,-2.5503,-2.5565,-2.5608,-2.5604,-2.5664,-2.5703,-2.5703,-2.5703,-2.5673,-2.5609,-2.564,-2.5582,-2.5428,-2.5304,-2.5186,-2.507,-2.4806,-2.5429,-2.6903,-2.5935,-2.5913,-2.6686,-2.6667,-2.6701,-2.6783,-2.7547,-2.8004,-2.8132,-2.7551,-2.7923,-2.888,-2.9082,-2.9663,-3.0398,-3.0398,-3.0398,-3.0398,-3.0398,-2.9871,-2.9294,-3.014,-2.9833,-2.9313,-3.016,-3.0398,-3.0398,-3.0398,-3.0398,-3.0417,-3.0487,-3.0556,-3.0617,-3.0684,-3.08,-3.0898,-3.0898,-3.0898,-3.0898,-3.0898,-3.0898,-3.0891,-3.0897,-3.0891,-3.0898,-3.0898,-3.0898,-3.0898,-3.0898,-3.0898,-3.0918,-3.0957,-3.0976,-3.0976,-3.1035,-3.0996,-3.0976,-3.0976,-3.0937,-3.0898,-3.0898,-3.0898,-3.0898,-3.0898,-3.0898,-3.0898,-3.0898,-3.0898,-3.0829,-3.0706,-3.0706,-3.0675,-1.7858,0.0,0.0,-2.1393,-2.2227,-2.2818,-2.3401,-2.362,-2.3774,-2.3976,-2.4172,-2.4303,-2.4303,-2.4648,-2.4911,-2.4934,-2.5101,-2.5263,-2.5302,-2.5418,-2.5495,-2.5495,-2.5562,-2.5599,-2.5609,-2.5659,-2.5672,-2.5634,-2.5641,-2.5615,-2.5544,-2.5492,-2.5447,-2.5409,-2.5168,-2.4921,-2.4674,-2.443,-2.4595,-2.5147,-2.4795,-2.5051,-2.5819,-2.5819,-2.6188,-2.6793,-2.6536,-2.6858,-2.751,-2.7437,-2.7717,-2.8277,-2.8868,-2.9286,-2.9625,-3.0186,-3.0048,-2.9571,-2.9571,-2.903,-2.8459,-2.9294,-2.9352,-2.9256,-3.014,-3.0398,-3.0398,-3.0398,-3.0398,-3.0398,-3.0417,-3.0525,-3.0646,-3.0788,-3.0879,-3.0898,-3.0898,-3.0898,-3.0898,-3.0898,-3.082,-3.0798,-3.0891,-3.0833,-3.08,-3.0897,-3.0898,-3.0898,-3.0898,-3.0898,-3.0898,-3.0898,-3.0898,-3.0898,-3.0898,-3.0898,-3.0898,-3.0898,-3.0898,-3.0862,-3.0773,-3.0855,-3.0859,-3.0762,-3.0859,-3.0898,-3.0898,-3.0898,-3.0821,-3.0698,-3.0698,-3.064,-1.7024,-1.8056,-1.9346,-2.1081,-2.1722,-2.2334,-2.3805,-2.3875,-2.3783,-2.4211,-2.4357,-2.4375,-2.4321,-2.4559,-2.4785,-2.4705,-2.491,-2.5088,-2.5126,-2.5302,-2.5447,-2.5466,-2.5522,-2.5578,-2.5592,-2.566,-2.5673,-2.5601,-2.5601,-2.556,-2.5467,-2.5415,-2.5349,-2.5195,-2.4962,-2.4689,-2.4388,-2.4266,-2.419,-2.419,-2.419,-2.452,-2.5106,-2.5106,-2.5493,-2.6176,-2.5695,-2.6004,-2.6845,-2.6723,-2.6964,-2.7518,-2.8044,-2.8434,-2.8775,-2.9356,-2.919,-2.8695,-2.8705,-2.8164,-2.7593,-2.8439,-2.8497,-2.8409,-2.9294,-2.9756,-2.9967,-2.9967,-3.0179,-3.0398,-3.0417,-3.0525,-3.0685,-3.0866,-3.0898,-3.0898,-3.0898,-3.0898,-3.0898,-3.0898,-3.082,-3.0801,-3.0879,-3.0832,-3.0794,-3.0897,-3.0898,-3.0898,-3.0898,-3.0898,-3.0898,-3.0898,-3.0898,-3.0898,-3.0898,-3.0898,-3.0898,-3.0898,-3.0898,-3.086,-3.0777,-3.0842,-3.0855,-3.0762,-3.0859,-3.0762,-3.0469,-3.0433,-3.0369,-3.026,-2.9946,-2.9717,0.0,0.0,0.0,-2.034,-2.112,-2.1912,-2.3891,-2.3946,-2.3745,-2.4344,-2.4636,-2.4712,-2.4543,-2.467,-2.4731,-2.4545,-2.4776,-2.501,-2.501,-2.5163,-2.5322,-2.539,-2.5466,-2.5531,-2.561,-2.5664,-2.5673,-2.5591,-2.5611,-2.5543,-2.5409,-2.5409,-2.5225,-2.4818,-2.4607,-2.4428,-2.4209,-2.419,-2.419,-2.419,-2.4208,-2.4319,-2.4504,-2.4504,-2.4615,-2.4819,-2.4949,-2.5454,-2.6126,-2.5321,-2.562,-2.6554,-2.6593,-2.7129,-2.7869,-2.7888,-2.7884,-2.7862,-2.7865,-2.7296,-2.6717,-2.7574,-2.7285,-2.6755,-2.764,-2.8448,-2.9063,-2.9063,-2.9679,-3.034,-3.0398,-3.0564,-3.0733,-3.0847,-3.0879,-3.0898,-3.0898,-3.0898,-3.0898,-3.0898,-3.0898,-3.0898,-3.0898,-3.0898,-3.0898,-3.0898,-3.0898,-3.0898,-3.0898,-3.0898,-3.0898,-3.0898,-3.0898,-3.0898,-3.0898,-3.0898,-3.0898,-3.0898,-3.0898,-3.0898,-3.0898,-3.0889,-3.0878,-3.0859,-3.0898,-3.0469,-2.9609,-2.9525,-2.945,-2.9343,-2.8431,-2.7958,-1.5729,0.0,0.0,0.0,0.0,0.0,-2.2829,-2.287,-2.2912,-2.3761,-2.393,-2.4095,-2.4629,-2.4764,-2.4782,-2.4734,-2.4891,-2.501,-2.501,-2.5212,-2.5409,-2.5466,-2.5532,-2.5601,-2.5665,-2.5698,-2.5652,-2.5543,-2.5528,-2.5466,-2.5322,-2.5322,-2.5209,-2.4961,-2.479,-2.462,-2.4422,-2.4266,-2.419,-2.419,-2.4356,-2.4448,-2.4504,-2.4652,-2.4806,-2.4943,-2.4981,-2.5203,-2.5525,-2.5316,-2.539,-2.5726,-2.6352,-2.6756,-2.7044,-2.7661,-2.7498,-2.6959,-2.6969,-2.6391,-2.5813,-2.6678,-2.6794,-2.6755,-2.764,-2.8063,-2.8217,-2.8217,-2.8437,-2.8695,-2.8806,-2.9771,-3.0569,-3.0085,-3.0449,-3.0898,-3.0898,-3.0898,-3.0898,-3.0898,-3.0898,-3.0898,-3.0898,-3.0898,-3.0898,-3.0898,-3.0898,-3.0898,-3.0898,-3.0898,-3.0898,-3.0898,-3.0898,-3.0898,-3.0898,-3.0898,-3.0898,-3.0898,-3.0898,-3.0859,-3.0762,-3.0845,-3.058,-2.9907,-3.0557,-3.047,-2.9608,-2.9524,-2.9139,-2.8449,-2.8087,-2.792,-1.6074,-1.7157,-1.8712,-1.9458,0.0,0.0,-2.2359,-2.2344,-2.2338,-2.3501,-2.3794,-2.4066,-2.4791,-2.503,-2.5089,-2.5086,-2.5163,-2.5164,-2.5063,-2.5278,-2.5466,-2.5524,-2.5582,-2.5626,-2.5682,-2.5703,-2.5668,-2.5544,-2.555,-2.5486,-2.5341,-2.5233,-2.5118,-2.5,-2.4874,-2.4742,-2.4631,-2.4524,-2.4448,-2.4448,-2.4559,-2.4652,-2.4704,-2.4832,-2.4966,-2.513,-2.513,-2.5187,-2.5303,-2.5303,-2.5303,-2.5341,-2.5861,-2.6063,-2.6121,-2.6631,-2.6497,-2.6063,-2.6063,-2.5726,-2.538,-2.589,-2.6063,-2.6159,-2.6659,-2.7063,-2.7351,-2.739,-2.7734,-2.8103,-2.8188,-2.8946,-2.9691,-2.9624,-2.998,-3.0469,-3.082,-3.0898,-3.0898,-3.0898,-3.0898,-3.0898,-3.0898,-3.0898,-3.0898,-3.0898,-3.0898,-3.0898,-3.0898,-3.0898,-3.0898,-3.0898,-3.0898,-3.0898,-3.0898,-3.0898,-3.0898,-3.0898,-3.0898,-3.0859,-3.0781,-3.0508,-3.0101,-2.9544,-2.9726,-2.9361,-2.8474,-2.8805,-2.83,-2.7007,-2.6939,-2.689,-1.6971,-1.7446,-1.8505,-1.9914,-1.9792,0.0,-2.2111,-2.2074,-2.1948,-2.3293,-2.3746,-2.4138,-2.4876,-2.5193,-2.5383,-2.5425,-2.548,-2.5427,-2.518,-2.5365,-2.5524,-2.5582,-2.561,-2.5635,-2.5682,-2.5703,-2.5679,-2.5614,-2.5581,-2.5534,-2.5428,-2.5198,-2.5053,-2.5034,-2.4904,-2.4832,-2.4819,-2.4801,-2.4801,-2.4801,-2.4819,-2.4885,-2.4985,-2.5024,-2.513,-2.5264,-2.5284,-2.5303,-2.5303,-2.5303,-2.5303,-2.5303,-2.5303,-2.5303,-2.5303,-2.5303,-2.5303,-2.5303,-2.5303,-2.5303,-2.5303,-2.5303,-2.5303,-2.5303,-2.5303,-2.5851,-2.6486,-2.6553,-2.73,-2.8038,-2.7958,-2.812,-2.8476,-2.9141,-2.9394,-2.9668,-3.0449,-3.0684,-3.0762,-3.0762,-3.082,-3.0898,-3.0898,-3.0898,-3.0898,-3.0898,-3.0898,-3.0898,-3.0898,-3.0898,-3.0898,-3.0898,-3.0897,-3.0873,-3.0873,-3.0878,-3.0879,-3.0879,-3.0898,-3.0859,-3.0762,-3.0019,-2.9512,-2.9316,-2.8555,-2.7734,-2.6914,-2.7581,-2.7073,-2.5505,-2.5505,-2.5505,-1.7874,-1.872,-1.9745,-1.9426,-2.0089,0.0,-2.08,-2.1089,-2.1506,-2.2011,-2.212,-2.2571,-2.4092,-2.4412,-2.4583,-2.5037,-2.5322,-2.5488,-2.5438,-2.5517,-2.5582,-2.5601,-2.5654,-2.5694,-2.5703,-2.5703,-2.5663,-2.5611,-2.555,-2.5505,-2.5476,-2.5427,-2.5388,-2.5311,-2.5146,-2.5026,-2.4958,-2.4851,-2.4795,-2.4805,-2.4901,-2.4919,-2.4851,-2.513,-2.5168,-2.5072,-2.5226,-2.5303,-2.5303,-2.5303,-2.5303,-2.5303,-2.5303,-2.5303,-2.5303,-2.5303,-2.5303,-2.5303,-2.5303,-2.5303,-2.5303,-2.5303,-2.5303,-2.5303,-2.5303,-2.5457,-2.5659,-2.5774,-2.6458,-2.6996,-2.6353,-2.7241,-2.8164,-2.7637,-2.8047,-2.8594,-2.8769,-2.9355,-2.9844,-2.9844,-3.043,-3.0898,-3.0898,-3.0898,-3.0898,-3.0898,-3.0898,-3.0898,-3.0898,-3.0898,-3.0898,-3.0898,-3.0806,-3.0752,-3.0752,-3.0735,-3.0742,-3.0742,-3.084,-3.0586,-2.9883,-2.9687,-2.8945,-2.7539,-2.7344,-2.7168,-2.6973,-2.64,-2.5896,-2.551,-2.551,-2.551,-1.8797,-1.9434,-2.037,-2.0399,-2.0504,0.0,0.0,-2.0665,-2.0837,-2.1797,-2.1672,-2.1905,-2.3584,-2.3599,-2.3566,-2.4246,-2.4571,-2.4896,-2.5291,-2.5494,-2.5605,-2.5605,-2.5668,-2.5703,-2.5703,-2.5707,-2.5691,-2.5644,-2.5558,-2.5506,-2.5547,-2.5512,-2.5483,-2.5444,-2.5359,-2.5264,-2.5207,-2.5126,-2.5069,-2.5053,-2.513,-2.5072,-2.4899,-2.5082,-2.507,-2.4908,-2.5091,-2.5149,-2.5168,-2.5264,-2.5303,-2.5303,-2.5303,-2.5303,-2.5303,-2.5303,-2.5303,-2.5303,-2.5303,-2.5303,-2.5303,-2.5303,-2.5303,-2.5303,-2.5303,-2.5376,-2.5461,-2.5562,-2.5948,-2.6201,-2.5798,-2.6348,-2.6992,-2.6992,-2.7324,-2.7773,-2.8203,-2.8633,-2.8945,-2.8945,-2.9668,-3.0391,-3.082,-3.0898,-3.0898,-3.0898,-3.0898,-3.0898,-3.0898,-3.0898,-3.0898,-3.0898,-3.0837,-3.0804,-3.081,-3.0812,-3.0798,-3.08,-3.0859,-3.0508,-2.9648,-2.918,-2.8125,-2.6387,-2.6348,-2.6348,-2.6348,-2.5879,-2.5622,-2.5601,-2.5601,-2.5601,-1.9648,-2.0039,-2.0773,-2.1314,-2.0946,-2.0546,0.0,0.0,0.0,-2.1498,-2.1317,-2.1365,-2.278,-2.2595,-2.2476,-2.3253,-2.3677,-2.4136,-2.4777,-2.5107,-2.5343,-2.5566,-2.5664,-2.5703,-2.5703,-2.5692,-2.5681,-2.5661,-2.5564,-2.5547,-2.5605,-2.5562,-2.5524,-2.5524,-2.5517,-2.5475,-2.5409,-2.5341,-2.5303,-2.5245,-2.5226,-2.5111,-2.4908,-2.493,-2.4877,-2.4748,-2.4901,-2.4968,-2.5005,-2.5187,-2.5264,-2.5303,-2.5303,-2.5303,-2.5303,-2.5303,-2.5303,-2.5303,-2.5303,-2.5303,-2.5303,-2.5303,-2.5303,-2.5322,-2.5322,-2.5426,-2.5531,-2.5611,-2.5652,-2.5703,-2.5703,-2.5703,-2.5879,-2.6582,-2.6758,-2.6934,-2.7656,-2.793,-2.8047,-2.8047,-2.8887,-2.9766,-3.0312,-3.0547,-3.0586,-3.043,-3.0391,-3.0391,-3.0391,-3.0391,-3.0469,-3.0625,-3.0644,-3.0621,-3.0625,-3.0632,-3.0558,-3.0387,-3.0388,-3.0019,-2.9141,-2.8262,-2.7148,-2.5723,-2.5703,-2.5703,-2.5703,-2.5703,-2.5703,-2.5703,-2.5703,-2.5703,-2.0382,-2.0937,-2.1399,-2.0721,-2.1308,-2.1698,-2.0445,0.0,-2.0492,-1.9849,0.0,-2.0176,-2.0907,0.0,0.0,-2.2088,-2.2952,-2.3591,-2.3682,-2.3924,-2.4465,-2.5486,-2.5664,-2.5703,-2.5703,-2.5653,-2.5592,-2.553,-2.5561,-2.5586,-2.5605,-2.5644,-2.5643,-2.5585,-2.5531,-2.5473,-2.5409,-2.5168,-2.5043,-2.5024,-2.4908,-2.4755,-2.4552,-2.4727,-2.4709,-2.4542,-2.4727,-2.4896,-2.5005,-2.5024,-2.5149,-2.5303,-2.5303,-2.5303,-2.5303,-2.5303,-2.5303,-2.5303,-2.5303,-2.5303,-2.5303,-2.5303,-2.5341,-2.5409,-2.5466,-2.5524,-2.5592,-2.5673,-2.5682,-2.5703,-2.5703,-2.5703,-2.5723,-2.582,-2.5859,-2.5879,-2.5977,-2.6602,-2.7148,-2.7148,-2.8476,-2.9394,-2.8711,-2.9238,-2.9492,-2.8711,-2.8594,-2.8594,-2.8594,-2.8594,-2.8887,-2.9668,-2.9687,-2.9667,-2.9662,-2.9648,-2.9321,-2.8557,-2.856,-2.8203,-2.7324,-2.6465,-2.5898,-2.5703,-2.5703,-2.5703,-2.5703,-2.5703,-2.5703,-2.5703,-2.5703,-2.5703,-2.0429,-2.1028,-2.1552,-2.1186,-2.1357,-2.1388,-2.0588,-2.0062,-1.9737,-1.965,0.0,0.0,0.0,0.0,0.0,0.0,-2.1411,-2.2002,-2.2703,-2.2939,-2.3639,-2.5285,-2.4682,-2.4355,-2.4883,-2.5265,-2.5505,-2.5543,-2.551,-2.552,-2.5605,-2.5625,-2.5625,-2.5605,-2.5561,-2.5456,-2.522,-2.5103,-2.5008,-2.487,-2.4832,-2.4685,-2.4501,-2.4597,-2.4522,-2.4337,-2.454,-2.4651,-2.4731,-2.4916,-2.505,-2.5134,-2.5243,-2.5303,-2.5303,-2.5303,-2.5303,-2.5303,-2.5303,-2.5303,-2.5303,-2.5303,-2.5322,-2.5351,-2.5476,-2.5524,-2.5557,-2.5621,-2.5646,-2.5629,-2.558,-2.5618,-2.5644,-2.5644,-2.5664,-2.5703,-2.5703,-2.5996,-2.625,-2.625,-2.7246,-2.7812,-2.6934,-2.8359,-2.9473,-2.9101,-2.8613,-2.8301,-2.8301,-2.8301,-2.8437,-2.8809,-2.8828,-2.8809,-2.8809,-2.8795,-2.8642,-2.8286,-2.7819,-2.7383,-2.7012,-2.6152,-2.5703,-2.5703,-2.5703,-2.5703,-2.5703,-2.5703,-2.5703,-2.5703,-2.5703,-2.5703,-2.0722,-2.113,-2.1487,-2.1248,-2.106,-2.0813,-2.0383,-1.9725,-1.9273,-1.9601,-1.956,0.0,0.0,0.0,-1.9632,-2.0101,0.0,-2.0988,-2.1782,-2.1935,-2.2614,-2.4348,-2.3548,-2.312,-2.3857,-2.4427,-2.4877,-2.5178,-2.513,-2.5221,-2.5531,-2.5582,-2.5566,-2.5488,-2.548,-2.5328,-2.5026,-2.4739,-2.4631,-2.4713,-2.445,-2.4356,-2.4411,-2.4411,-2.4337,-2.4208,-2.4356,-2.4469,-2.4596,-2.4841,-2.5004,-2.5099,-2.5233,-2.5303,-2.5303,-2.5303,-2.5303,-2.5303,-2.5303,-2.5303,-2.5322,-2.5322,-2.5341,-2.5399,-2.5485,-2.5505,-2.5538,-2.5582,-2.5605,-2.5591,-2.555,-2.5585,-2.5625,-2.5624,-2.5664,-2.5703,-2.5703,-2.5703,-2.5703,-2.5703,-2.6406,-2.6797,-2.6172,-2.7637,-2.8809,-2.8574,-2.7979,-2.7561,-2.7578,-2.7578,-2.7656,-2.793,-2.7949,-2.7949,-2.7949,-2.7949,-2.7832,-2.7598,-2.6992,-2.6641,-2.6641,-2.6035,-2.5703,-2.5703,-2.5703,-2.5703,-2.5703,-2.5703,-2.5703,-2.5703,-2.5703,-2.5703,-2.1584,-2.149,-2.1193,-2.0365,-2.0344,-2.0298,-1.9444,-1.9466,-1.9611,-1.9371,-2.007,-2.0662,-2.0425,-2.0582,-2.059,-2.0152,-2.0749,0.0,0.0,-2.0843,-2.123,-2.2268,-2.2406,-2.2508,-2.2719,-2.2952,-2.3377,-2.4091,-2.4255,-2.4659,-2.537,-2.5538,-2.5488,-2.5215,-2.5143,-2.5024,-2.4802,-2.3851,-2.3745,-2.4504,-2.351,-2.3472,-2.4208,-2.4208,-2.4208,-2.419,-2.4208,-2.442,-2.4791,-2.4808,-2.5008,-2.5303,-2.5303,-2.5303,-2.5303,-2.5303,-2.5303,-2.5303,-2.5303,-2.5341,-2.5409,-2.5409,-2.5486,-2.5582,-2.5515,-2.5553,-2.5595,-2.5607,-2.5605,-2.5601,-2.5678,-2.5698,-2.5704,-2.5694,-2.5703,-2.5703,-2.5703,-2.5703,-2.5703,-2.5703,-2.6406,-2.6992,-2.6953,-2.7031,-2.6797,-2.5957,-2.576,-2.5703,-2.5778,-2.5723,-2.6035,-2.6934,-2.7031,-2.7031,-2.7031,-2.7031,-2.668,-2.584,-2.5762,-2.5742,-2.5742,-2.5703,-2.5703,-2.5703,-2.5703,-2.5703,-2.5703,-2.5703,-2.5703,-2.5703,-2.5703,-2.5703,-2.0489,-2.0828,-2.0945,-1.9901,-2.0081,-2.0178,-1.8945,-1.9069,-1.9367,-1.9109,-1.9846,-2.0433,-2.0191,-2.0349,-2.0379,-1.9924,-2.0062,-2.0125,0.0,-1.9431,-1.9368,-1.9795,-2.1194,-2.2,-2.1615,-2.2282,-2.312,-2.4082,-2.4179,-2.4471,-2.5156,-2.5234,-2.5169,-2.4936,-2.4398,-2.402,-2.3817,-2.2897,-2.279,-2.3505,-2.3162,-2.3416,-2.419,-2.419,-2.419,-2.419,-2.419,-2.4284,-2.4423,-2.469,-2.4873,-2.4987,-2.5222,-2.5303,-2.5303,-2.5303,-2.5303,-2.5303,-2.5303,-2.5341,-2.5409,-2.5409,-2.5459,-2.5543,-2.5562,-2.5582,-2.5601,-2.5594,-2.56,-2.5605,-2.5576,-2.5611,-2.563,-2.564,-2.5662,-2.5703,-2.5703,-2.5703,-2.5703,-2.5703,-2.5937,-2.6125,-2.6079,-2.6062,-2.6178,-2.6456,-2.5945,-2.557,-2.5628,-2.5615,-2.5742,-2.6094,-2.6133,-2.6133,-2.6133,-2.6133,-2.6016,-2.5723,-2.5703,-2.5703,-2.5703,-2.5703,-2.5703,-2.5703,-2.5703,-2.5703,-2.5703,-2.5703,-2.5703,-2.5703,-2.5703,-2.5703,-2.0329,-2.038,-2.0255,-1.9512,-1.9694,-1.9847,-1.8944,-1.924,-1.9675,-1.9498,-2.0184,-2.0766,-2.0589,-2.0637,-2.0518,-2.0023,-1.973,-1.9424,0.0,-1.8621,-1.8353,-1.8459,-1.987,-2.0728,-2.0383,-2.1137,-2.2149,-2.3436,-2.3422,-2.3704,-2.4516,-2.4493,-2.435,-2.4132,-2.3375,-2.2978,-2.3032,-2.1896,-2.177,-2.2574,-2.219,-2.248,-2.3343,-2.325,-2.3398,-2.3765,-2.3765,-2.3989,-2.432,-2.4666,-2.4826,-2.491,-2.5182,-2.5303,-2.5303,-2.5303,-2.5303,-2.5303,-2.5303,-2.5341,-2.5399,-2.5432,-2.5485,-2.5535,-2.5593,-2.5596,-2.5589,-2.5591,-2.5596,-2.5597,-2.5584,-2.5595,-2.5635,-2.5635,-2.5665,-2.5703,-2.5703,-2.5703,-2.5703,-2.5703,-2.5689,-2.5644,-2.56,-2.5563,-2.5726,-2.6314,-2.5898,-2.5522,-2.5582,-2.5609,-2.5637,-2.5683,-2.5703,-2.5703,-2.5703,-2.5703,-2.5703,-2.5703,-2.5703,-2.5703,-2.5703,-2.5703,-2.5703,-2.5703,-2.5703,-2.5703,-2.5703,-2.5703,-2.5703,-2.5703,-2.5703,-2.5703]}]]